[[{"header":{"parameterUnit":"m.s-1","parameterCategory":1,"la1":31.0,"la2":29.5877,"lo1":-88.7671,"lo2":-86.6584,"dy":0.0162,"dx":0.0185,"nx":115,"ny":88,"refTime":"2023-06-28T00:00:00:Z","depth":0,"parameterNumber":2,"parameterNumberName":"U-component_of_WINDS"},"data":[0.0,0.0,0.0,0.0,0.0,0.0,0.0,0.0,0.0,0.0,0.0,0.0,0.0,0.0,0.0,0.0,0.0,0.0,0.0,0.0,0.0,0.0,0.0,0.0,0.0,0.0,0.0,0.0,0.0,0.0,0.0,0.0,0.0,0.0,0.0,0.0,0.0,0.0,0.0,0.0,0.0,0.0,0.0,0.0,0.0,0.0,0.0,0.0,0.0,0.0,0.0,0.0,0.0,0.0,0.0,0.0,0.0,0.0,0.0,0.0,0.0,0.0,0.0,0.0,0.0,0.0,0.0,0.0,0.0,0.0,0.0,0.0,0.0,0.0,0.0,0.0,0.0,0.0,0.0,0.0,0.0,0.0,0.0,0.0,0.0,0.0,0.0,0.0,0.0,0.0,0.0,0.0,0.0,0.0,0.0,0.0,0.0,0.0,0.0,0.0,0.0,0.0,0.0,0.0,0.0,0.0,0.0,0.0,0.0,0.0,0.0,0.0,0.0,0.0,0.0,0.0,0.0,0.0,0.0,0.0,0.0,0.0,0.0,0.0,0.0,0.0,0.0,0.0,0.0,0.0,0.0,0.0,0.0,0.0,0.0,0.0,0.0,0.0,0.0,0.0,0.0,0.0,0.0,0.0,0.0,0.0,0.0,0.0,0.0,0.0,0.0,0.0,0.0,0.0,0.0,0.0,0.0,0.0,0.0,0.0,0.0,0.0,0.0,0.0,0.0,0.0,0.0,0.0,0.0,0.0,0.0,0.0,0.0,0.0,0.0,0.0,0.0,0.0,0.0,0.0,0.0,0.0,0.0,0.0,0.0,0.0,0.0,0.0,0.0,0.0,0.0,0.0,0.0,0.0,0.0,0.0,0.0,0.0,0.0,0.0,0.0,0.0,0.0,0.0,0.0,0.0,0.0,0.0,0.0,0.0,0.0,0.0,0.0,0.0,0.0,0.0,0.0,0.0,0.0,0.0,0.0,0.0,0.0,0.0,0.0,0.0,0.0,0.0,0.0,0.0,0.0,0.0,0.0,0.0,0.0,0.0,0.0,0.0,0.0,0.0,0.0,0.0,0.0,0.0,0.0,0.0,0.0,0.0,0.0,0.0,0.0,0.0,0.0,0.0,0.0,0.0,0.0,0.0,0.0,0.0,0.0,0.0,0.0,0.0,0.0,0.0,0.0,0.0,0.0,0.0,0.0,0.0,0.0,0.0,0.0,0.0,0.0,0.0,0.0,0.0,0.0,0.0,0.0,0.0,0.0,0.0,0.0,0.0,0.0,0.0,0.0,0.0,0.0,0.0,0.0,0.0,0.0,0.0,0.0,0.0,0.0,0.0,0.0,0.0,0.0,0.0,0.0,0.0,0.0,0.0,0.0,0.0,0.0,0.0,0.0,0.0,0.0,0.0,0.0,0.0,0.0,0.0,0.0,0.0,0.0,0.0,0.0,0.0,0.0,0.0,0.0,0.0,0.0,0.0,0.0,0.0,0.0,0.0,0.0,0.0,0.0,0.0,0.0,0.0,0.0,0.0,0.0,0.0,0.0,0.0,0.0,0.0,0.0,0.0,0.0,0.0,0.0,0.0,0.0,0.0,0.0,0.0,0.0,0.0,0.0,0.0,0.0,0.0,0.0,0.0,0.0,0.0,0.0,0.0,0.0,0.0,0.0,0.0,0.0,0.0,0.0,0.0,0.0,0.0,0.0,0.0,0.0,0.0,0.0,0.0,0.0,0.0,0.0,0.0,0.0,0.0,0.0,0.0,0.0,0.0,0.0,0.0,0.0,0.0,0.0,0.0,0.0,0.0,0.0,0.0,0.0,0.0,0.0,0.0,0.0,0.0,0.0,0.0,0.0,0.0,0.0,0.0,0.0,0.0,0.0,0.0,0.0,0.0,0.0,0.0,0.0,0.0,0.0,0.0,0.0,0.0,0.0,0.0,0.0,0.0,0.0,0.0,0.0,0.0,0.0,0.0,0.0,0.0,0.0,0.0,0.0,0.0,0.0,0.0,0.0,0.0,0.0,0.0,0.0,0.0,0.0,0.0,0.0,0.0,0.0,0.0,0.0,0.0,0.0,0.0,0.0,0.0,0.0,0.0,0.0,0.0,0.0,0.0,0.0,0.0,0.0,0.0,0.0,0.0,0.0,0.0,0.0,0.0,0.0,0.0,0.0,0.0,0.0,0.0,0.0,0.0,0.0,0.0,0.0,0.0,0.0,0.0,0.0,0.0,0.0,0.0,0.0,0.0,0.0,0.0,0.0,0.0,0.0,0.0,0.0,0.0,0.0,0.0,0.0,0.0,0.0,0.0,0.0,0.0,0.0,0.0,0.0,0.0,0.0,0.0,0.0,0.0,0.0,0.0,0.0,0.0,0.0,0.0,0.0,0.0,0.0,0.0,0.0,0.0,0.0,0.0,0.0,0.0,0.0,0.0,0.0,0.0,0.0,0.0,0.0,0.0,0.0,0.0,0.0,0.0,0.0,0.0,0.0,0.0,0.0,0.0,0.0,0.0,0.0,0.0,0.0,0.0,0.0,0.0,0.0,0.0,0.0,0.0,0.0,0.0,0.0,0.0,0.0,0.0,0.0,0.0,0.0,0.0,0.0,0.0,0.0,0.0,0.0,0.0,0.0,0.0,0.0,0.0,0.0,0.0,0.0,0.0,0.0,0.0,0.0,0.0,0.0,0.0,0.0,0.0,0.0,0.0,0.0,0.0,0.0,0.0,0.0,0.0,0.0,0.0,0.0,0.0,0.0,0.0,0.0,0.0,0.0,0.0,0.0,0.0,0.0,0.0,0.0,0.0,0.0,0.0,0.0,0.0,0.0,0.0,0.0,0.0,0.0,0.0,0.0,0.0,0.0,0.0,0.0,0.0,0.0,0.0,0.0,0.0,0.0,0.0,0.0,0.0,0.0,0.0,0.0,0.0,0.0,0.0,0.0,0.0,0.0,0.0,0.0,0.0,0.0,0.0,0.0,0.0,0.0,0.0,0.0,0.0,0.0,0.0,0.0,0.0,0.0,0.0,0.0,0.0,0.0,0.0,0.0,0.0,0.0,0.0,0.0,0.0,0.0,0.0,0.0,0.0,0.0,0.0,0.0,0.0,0.0,0.0,0.0,0.0,0.0,0.0,0.0,0.0,0.0,0.0,0.0,0.0,0.0,0.0,0.0,0.0,0.0,0.0,0.0,0.0,0.0,0.0,0.0,0.0,0.0,0.0,0.0,0.0,0.0,0.0,0.0,0.0,0.0,0.0,0.0,0.0,0.0,0.0,0.0,0.0,0.0,0.0,0.0,0.0,0.0,0.0,0.0,0.0,0.0,0.0,0.0,0.0,0.0,0.0,0.0,0.0,0.0,0.0,0.0,0.0,0.0,0.0,0.0,0.0,0.0,0.0,0.0,0.0,0.0,0.0,0.0,0.0,0.0,0.0,0.0,0.0,0.0,0.0,0.0,0.0,0.0,0.0,0.0,0.0,0.0,0.0,0.0,0.0,0.0,0.0,0.0,0.0,0.0,0.0,0.0,0.0,0.0,0.0,0.0,0.0,0.0,0.0,0.0,0.0,0.0,0.0,0.0,0.0,0.0,0.0,0.0,0.0,0.0,0.0,0.0,0.0,0.0,0.0,0.0,0.0,0.0,0.0,0.0,0.0,0.0,0.0,0.0,0.0,0.0,0.0,0.0,0.0,0.0,0.0,0.0,0.0,0.0,0.0,0.0,0.0,0.0,0.0,0.0,0.0,0.0,0.0,0.0,0.0,0.0,0.0,0.0,0.0,0.0,0.0,0.0,0.0,0.0,0.0,0.0,0.0,0.0,0.0,0.0,0.0,0.0,0.0,0.0,0.0,0.0,0.0,0.0,0.0,0.0,0.0,0.0,0.0,0.0,0.0,0.0,0.0,0.0,0.0,0.0,0.0,0.0,0.0,0.0,0.0,0.0,0.0,0.0,0.0,0.0,0.0,0.0,0.0,0.0,0.0,0.0,0.0,0.0,0.0,0.0,0.0,0.0,0.0,0.0,0.0,0.0,0.0,0.0,0.0,0.0,0.0,0.0,0.0,0.0,0.0,0.0,0.0,0.0,0.0,0.0,0.0,0.0,0.0,0.0,0.0,0.0,0.0,0.0,0.0,0.0,0.0,0.0,0.0,0.0,0.0,0.0,0.0,0.0,0.0,0.0,0.0,0.0,0.0,0.0,0.0,0.0,0.0,0.0,0.0,0.0,0.0,0.0,0.0,0.0,0.0,0.0,0.0,0.0,0.0,0.0,0.0,-4.5594,0.0,0.0,0.0,0.0,0.0,0.0,0.0,0.0,0.0,0.0,0.0,0.0,0.0,0.0,0.0,0.0,0.0,0.0,0.0,0.0,0.0,0.0,0.0,0.0,0.0,0.0,0.0,0.0,0.0,0.0,0.0,0.0,0.0,0.0,0.0,0.0,0.0,0.0,0.0,0.0,0.0,0.0,0.0,0.0,0.0,0.0,0.0,0.0,0.0,0.0,0.0,0.0,0.0,0.0,0.0,0.0,0.0,0.0,0.0,0.0,0.0,0.0,0.0,0.0,0.0,0.0,0.0,0.0,0.0,0.0,0.0,0.0,0.0,0.0,0.0,0.0,0.0,0.0,0.0,0.0,0.0,0.0,0.0,0.0,0.0,0.0,0.0,0.0,0.0,0.0,0.0,0.0,0.0,0.0,0.0,0.0,0.0,0.0,0.0,0.0,0.0,0.0,0.0,0.0,0.0,0.0,0.0,0.0,0.0,0.0,-4.5594,-4.5594,-4.5594,-4.5594,-4.5594,0.0,0.0,0.0,0.0,0.0,0.0,0.0,0.0,0.0,0.0,0.0,0.0,0.0,0.0,0.0,0.0,0.0,0.0,0.0,0.0,0.0,0.0,0.0,0.0,0.0,0.0,0.0,0.0,0.0,0.0,0.0,0.0,0.0,0.0,0.0,0.0,0.0,0.0,0.0,0.0,0.0,0.0,0.0,0.0,0.0,0.0,0.0,0.0,0.0,0.0,0.0,0.0,0.0,0.0,0.0,0.0,0.0,0.0,0.0,0.0,0.0,0.0,0.0,0.0,0.0,0.0,0.0,0.0,0.0,0.0,0.0,0.0,0.0,0.0,0.0,0.0,0.0,0.0,0.0,0.0,0.0,0.0,0.0,0.0,0.0,0.0,0.0,0.0,0.0,0.0,0.0,0.0,0.0,0.0,0.0,0.0,0.0,0.0,0.0,0.0,0.0,0.0,0.0,0.0,0.0,0.0,0.0,0.0,0.0,0.0,0.0,0.0,-4.5594,-4.5586,-4.5577,0.0,0.0,0.0,0.0,0.0,0.0,0.0,0.0,0.0,0.0,0.0,0.0,0.0,0.0,0.0,0.0,0.0,0.0,0.0,0.0,0.0,0.0,0.0,0.0,0.0,0.0,0.0,0.0,0.0,0.0,0.0,0.0,0.0,0.0,0.0,0.0,0.0,0.0,0.0,0.0,0.0,0.0,0.0,0.0,0.0,0.0,0.0,0.0,0.0,0.0,0.0,0.0,0.0,0.0,0.0,0.0,0.0,0.0,0.0,0.0,0.0,0.0,0.0,0.0,0.0,0.0,0.0,0.0,0.0,0.0,0.0,0.0,0.0,0.0,0.0,0.0,0.0,0.0,0.0,0.0,0.0,0.0,0.0,0.0,0.0,0.0,0.0,0.0,0.0,0.0,0.0,0.0,0.0,0.0,0.0,0.0,0.0,0.0,0.0,0.0,0.0,0.0,0.0,0.0,0.0,0.0,0.0,0.0,0.0,0.0,-4.5594,-4.5594,-4.5594,0.0,-4.5504,0.0,0.0,0.0,0.0,0.0,0.0,0.0,0.0,0.0,0.0,0.0,0.0,0.0,0.0,0.0,0.0,0.0,0.0,0.0,0.0,0.0,0.0,0.0,0.0,0.0,0.0,0.0,0.0,0.0,0.0,0.0,0.0,0.0,0.0,0.0,0.0,0.0,0.0,0.0,0.0,0.0,0.0,0.0,0.0,0.0,0.0,0.0,0.0,0.0,0.0,0.0,0.0,0.0,0.0,0.0,0.0,0.0,0.0,0.0,0.0,0.0,0.0,0.0,0.0,0.0,0.0,0.0,0.0,0.0,0.0,0.0,0.0,0.0,0.0,0.0,0.0,0.0,0.0,0.0,0.0,0.0,0.0,0.0,0.0,0.0,0.0,0.0,0.0,0.0,0.0,0.0,0.0,0.0,0.0,0.0,0.0,0.0,0.0,0.0,0.0,0.0,0.0,0.0,0.0,0.0,0.0,0.0,0.0,0.0,0.0,-4.5594,-4.5594,-4.5594,-4.554,0.0,0.0,0.0,0.0,0.0,0.0,0.0,0.0,0.0,0.0,0.0,0.0,0.0,0.0,0.0,0.0,0.0,0.0,0.0,0.0,0.0,0.0,0.0,0.0,0.0,0.0,0.0,0.0,0.0,0.0,0.0,0.0,0.0,0.0,0.0,0.0,0.0,0.0,0.0,0.0,0.0,0.0,0.0,0.0,0.0,0.0,0.0,0.0,0.0,0.0,0.0,0.0,0.0,0.0,0.0,0.0,0.0,0.0,0.0,0.0,0.0,0.0,0.0,0.0,0.0,0.0,0.0,0.0,0.0,0.0,0.0,0.0,0.0,0.0,0.0,0.0,0.0,0.0,0.0,0.0,0.0,0.0,0.0,0.0,0.0,0.0,0.0,0.0,0.0,0.0,0.0,0.0,0.0,0.0,0.0,0.0,0.0,0.0,0.0,0.0,0.0,0.0,0.0,0.0,0.0,0.0,0.0,0.0,0.0,0.0,-4.5594,-4.5594,-4.5594,-4.5594,-4.5531,-4.541,0.0,0.0,0.0,0.0,0.0,0.0,0.0,0.0,0.0,0.0,0.0,0.0,0.0,0.0,0.0,0.0,0.0,0.0,0.0,0.0,0.0,0.0,0.0,0.0,0.0,0.0,0.0,0.0,0.0,0.0,0.0,0.0,0.0,0.0,0.0,0.0,0.0,0.0,0.0,0.0,0.0,0.0,0.0,0.0,0.0,0.0,0.0,0.0,0.0,0.0,0.0,0.0,0.0,0.0,0.0,0.0,0.0,0.0,0.0,0.0,0.0,0.0,0.0,0.0,0.0,0.0,0.0,0.0,0.0,0.0,0.0,0.0,0.0,0.0,0.0,0.0,0.0,0.0,0.0,0.0,0.0,0.0,0.0,0.0,0.0,0.0,0.0,0.0,0.0,0.0,0.0,0.0,0.0,0.0,0.0,0.0,0.0,0.0,0.0,0.0,0.0,0.0,0.0,0.0,0.0,0.0,0.0,0.0,-4.5594,-4.5594,-4.5594,-4.5594,-4.5594,-4.555,0.0,0.0,0.0,0.0,0.0,0.0,0.0,0.0,0.0,0.0,0.0,0.0,0.0,0.0,0.0,0.0,0.0,0.0,0.0,0.0,0.0,0.0,0.0,0.0,0.0,0.0,0.0,0.0,0.0,0.0,0.0,0.0,0.0,0.0,0.0,0.0,0.0,0.0,0.0,0.0,0.0,0.0,0.0,0.0,0.0,0.0,0.0,0.0,0.0,0.0,0.0,0.0,0.0,0.0,0.0,0.0,0.0,0.0,0.0,0.0,0.0,0.0,0.0,0.0,0.0,0.0,0.0,0.0,0.0,0.0,0.0,0.0,0.0,0.0,0.0,0.0,0.0,0.0,0.0,0.0,0.0,0.0,0.0,0.0,0.0,0.0,0.0,0.0,0.0,0.0,0.0,0.0,0.0,0.0,0.0,0.0,0.0,0.0,0.0,0.0,0.0,0.0,0.0,0.0,0.0,0.0,0.0,0.0,0.0,-4.5594,-4.5594,-4.5594,-4.5594,-4.5594,-4.5531,0.0,0.0,0.0,0.0,0.0,0.0,0.0,0.0,0.0,0.0,0.0,0.0,0.0,0.0,0.0,0.0,0.0,0.0,0.0,0.0,0.0,0.0,0.0,0.0,0.0,0.0,0.0,0.0,0.0,0.0,0.0,0.0,0.0,0.0,0.0,0.0,0.0,0.0,0.0,0.0,0.0,0.0,0.0,0.0,0.0,0.0,0.0,0.0,0.0,0.0,0.0,0.0,0.0,0.0,0.0,0.0,0.0,0.0,0.0,0.0,0.0,0.0,0.0,0.0,0.0,0.0,0.0,0.0,0.0,0.0,0.0,0.0,0.0,0.0,0.0,0.0,0.0,0.0,0.0,0.0,0.0,0.0,0.0,0.0,0.0,0.0,0.0,0.0,0.0,0.0,0.0,0.0,0.0,0.0,0.0,0.0,0.0,0.0,0.0,0.0,0.0,0.0,0.0,0.0,0.0,0.0,0.0,0.0,0.0,-4.5594,0.0,-4.5594,-4.5594,-4.5594,-4.5531,0.0,0.0,0.0,0.0,0.0,0.0,0.0,0.0,0.0,0.0,0.0,0.0,0.0,0.0,0.0,0.0,0.0,0.0,0.0,0.0,0.0,0.0,0.0,0.0,0.0,0.0,0.0,0.0,0.0,0.0,0.0,0.0,0.0,0.0,0.0,0.0,0.0,0.0,0.0,0.0,0.0,0.0,0.0,0.0,0.0,0.0,0.0,0.0,0.0,0.0,0.0,0.0,0.0,0.0,0.0,0.0,0.0,0.0,0.0,0.0,0.0,0.0,0.0,0.0,0.0,0.0,0.0,0.0,0.0,0.0,0.0,0.0,0.0,0.0,0.0,0.0,0.0,0.0,0.0,0.0,0.0,0.0,0.0,0.0,0.0,0.0,0.0,0.0,0.0,0.0,0.0,0.0,0.0,0.0,0.0,0.0,0.0,0.0,0.0,0.0,0.0,0.0,0.0,0.0,0.0,0.0,0.0,0.0,-4.5614,-4.5594,-4.5594,-4.5594,-4.5594,-4.5594,-4.5531,0.0,0.0,0.0,0.0,0.0,0.0,0.0,0.0,0.0,0.0,0.0,0.0,0.0,0.0,0.0,0.0,0.0,0.0,0.0,0.0,0.0,0.0,0.0,0.0,0.0,0.0,0.0,0.0,0.0,0.0,0.0,0.0,0.0,0.0,0.0,0.0,0.0,0.0,0.0,0.0,0.0,0.0,0.0,0.0,0.0,0.0,0.0,0.0,0.0,0.0,0.0,0.0,0.0,0.0,0.0,0.0,0.0,0.0,0.0,0.0,0.0,0.0,0.0,0.0,0.0,0.0,0.0,0.0,0.0,0.0,0.0,0.0,0.0,0.0,0.0,0.0,0.0,0.0,0.0,0.0,0.0,0.0,0.0,0.0,0.0,0.0,0.0,0.0,0.0,0.0,0.0,0.0,0.0,0.0,0.0,0.0,0.0,0.0,0.0,0.0,0.0,0.0,0.0,0.0,0.0,0.0,0.0,0.0,0.0,-4.5614,-4.5594,-4.5594,-4.5594,-4.5594,-4.555,0.0,0.0,0.0,0.0,0.0,0.0,0.0,0.0,0.0,0.0,0.0,0.0,0.0,0.0,0.0,0.0,0.0,0.0,0.0,0.0,0.0,0.0,0.0,0.0,0.0,0.0,0.0,0.0,0.0,0.0,0.0,0.0,0.0,0.0,0.0,0.0,0.0,0.0,0.0,0.0,0.0,0.0,0.0,0.0,0.0,0.0,0.0,0.0,0.0,0.0,0.0,0.0,0.0,0.0,0.0,0.0,0.0,0.0,0.0,0.0,0.0,0.0,0.0,0.0,0.0,0.0,0.0,0.0,0.0,0.0,0.0,0.0,0.0,0.0,0.0,0.0,0.0,0.0,0.0,0.0,0.0,0.0,0.0,0.0,0.0,0.0,0.0,0.0,0.0,0.0,0.0,0.0,0.0,0.0,0.0,0.0,0.0,0.0,0.0,0.0,0.0,0.0,0.0,0.0,0.0,0.0,0.0,0.0,0.0,-4.6547,-4.6547,-4.6528,-4.6528,-4.624,-4.6022,-4.587,0.0,0.0,0.0,0.0,0.0,0.0,0.0,0.0,0.0,0.0,0.0,0.0,0.0,0.0,0.0,0.0,0.0,0.0,0.0,0.0,0.0,0.0,0.0,0.0,0.0,0.0,0.0,0.0,0.0,0.0,0.0,0.0,0.0,0.0,0.0,0.0,0.0,0.0,0.0,0.0,0.0,0.0,0.0,0.0,0.0,0.0,0.0,0.0,0.0,0.0,0.0,0.0,0.0,0.0,0.0,0.0,0.0,0.0,0.0,0.0,0.0,0.0,0.0,0.0,0.0,0.0,0.0,0.0,0.0,0.0,0.0,0.0,0.0,0.0,0.0,0.0,0.0,0.0,0.0,0.0,0.0,0.0,0.0,0.0,0.0,0.0,0.0,0.0,0.0,0.0,0.0,0.0,0.0,0.0,0.0,0.0,0.0,0.0,0.0,0.0,0.0,0.0,0.0,0.0,0.0,0.0,0.0,0.0,-4.8163,-4.8221,-4.8182,-4.8067,-4.7346,-4.6867,0.0,0.0,0.0,0.0,0.0,0.0,0.0,0.0,0.0,0.0,0.0,0.0,0.0,0.0,0.0,0.0,0.0,0.0,0.0,0.0,0.0,0.0,0.0,0.0,0.0,0.0,0.0,0.0,0.0,0.0,0.0,0.0,0.0,0.0,0.0,0.0,0.0,0.0,0.0,0.0,0.0,0.0,0.0,0.0,0.0,0.0,0.0,0.0,0.0,0.0,0.0,0.0,0.0,0.0,0.0,0.0,0.0,0.0,0.0,0.0,0.0,0.0,0.0,0.0,0.0,0.0,0.0,0.0,0.0,0.0,0.0,0.0,0.0,0.0,0.0,0.0,0.0,0.0,0.0,0.0,0.0,0.0,0.0,0.0,0.0,0.0,0.0,0.0,0.0,0.0,0.0,0.0,0.0,0.0,0.0,0.0,0.0,0.0,0.0,0.0,0.0,0.0,0.0,0.0,0.0,0.0,0.0,0.0,0.0,-4.9029,-4.9683,-4.9413,-4.8163,-4.7894,-4.7444,0.0,0.0,0.0,0.0,0.0,0.0,0.0,0.0,0.0,0.0,0.0,0.0,0.0,0.0,0.0,0.0,0.0,0.0,0.0,0.0,0.0,0.0,0.0,0.0,0.0,0.0,0.0,0.0,0.0,0.0,0.0,0.0,0.0,0.0,0.0,0.0,0.0,0.0,0.0,0.0,0.0,0.0,0.0,0.0,0.0,0.0,0.0,0.0,0.0,0.0,0.0,0.0,0.0,0.0,0.0,0.0,0.0,0.0,0.0,0.0,0.0,0.0,0.0,0.0,0.0,0.0,0.0,0.0,0.0,0.0,0.0,0.0,0.0,0.0,0.0,0.0,0.0,0.0,0.0,0.0,0.0,0.0,0.0,0.0,0.0,0.0,0.0,0.0,0.0,0.0,0.0,0.0,0.0,0.0,0.0,0.0,0.0,0.0,0.0,0.0,0.0,0.0,0.0,0.0,0.0,0.0,0.0,0.0,-4.8702,-4.9913,-5.0442,-5.0202,-4.9221,-4.8836,-4.8212,0.0,0.0,0.0,0.0,0.0,0.0,0.0,0.0,0.0,0.0,0.0,0.0,0.0,0.0,0.0,0.0,0.0,0.0,0.0,0.0,0.0,0.0,0.0,0.0,0.0,0.0,0.0,0.0,0.0,0.0,0.0,0.0,0.0,0.0,0.0,0.0,0.0,0.0,0.0,0.0,0.0,0.0,0.0,0.0,0.0,0.0,0.0,0.0,0.0,0.0,0.0,0.0,0.0,0.0,0.0,0.0,0.0,0.0,0.0,0.0,0.0,0.0,0.0,0.0,0.0,0.0,0.0,0.0,0.0,0.0,0.0,0.0,0.0,0.0,0.0,0.0,0.0,0.0,0.0,0.0,0.0,0.0,0.0,0.0,0.0,0.0,0.0,0.0,0.0,0.0,0.0,0.0,0.0,0.0,0.0,0.0,0.0,0.0,0.0,0.0,0.0,0.0,0.0,0.0,0.0,0.0,0.0,0.0,-4.9029,-5.0673,-5.0683,-5.0683,-5.0673,-4.9942,-4.9038,0.0,0.0,0.0,0.0,0.0,0.0,0.0,0.0,0.0,0.0,0.0,0.0,0.0,0.0,0.0,0.0,0.0,0.0,0.0,0.0,0.0,0.0,0.0,0.0,0.0,0.0,0.0,0.0,0.0,0.0,0.0,0.0,0.0,0.0,0.0,0.0,0.0,0.0,0.0,0.0,0.0,0.0,0.0,0.0,0.0,0.0,0.0,0.0,0.0,0.0,0.0,0.0,0.0,0.0,0.0,0.0,0.0,0.0,0.0,0.0,0.0,0.0,0.0,0.0,0.0,0.0,0.0,0.0,0.0,0.0,0.0,0.0,0.0,0.0,0.0,0.0,0.0,0.0,0.0,0.0,0.0,0.0,0.0,0.0,0.0,0.0,0.0,0.0,0.0,0.0,0.0,0.0,0.0,0.0,0.0,0.0,0.0,0.0,0.0,0.0,0.0,0.0,0.0,0.0,0.0,0.0,0.0,0.0,-4.9625,-5.0654,-5.0683,-5.0683,-5.0683,-5.0519,-4.9682,0.0,0.0,0.0,0.0,0.0,0.0,0.0,0.0,0.0,0.0,0.0,0.0,0.0,0.0,0.0,0.0,0.0,0.0,0.0,0.0,0.0,0.0,0.0,0.0,0.0,0.0,0.0,0.0,0.0,0.0,0.0,0.0,0.0,0.0,0.0,0.0,0.0,0.0,0.0,0.0,0.0,0.0,0.0,0.0,0.0,0.0,0.0,0.0,-4.5152,0.0,0.0,0.0,0.0,0.0,0.0,0.0,0.0,0.0,0.0,0.0,0.0,0.0,0.0,0.0,0.0,0.0,0.0,0.0,0.0,0.0,0.0,0.0,0.0,0.0,0.0,0.0,0.0,0.0,0.0,0.0,0.0,0.0,0.0,0.0,0.0,0.0,0.0,0.0,0.0,0.0,0.0,0.0,0.0,0.0,0.0,0.0,0.0,0.0,0.0,0.0,0.0,0.0,0.0,0.0,0.0,0.0,0.0,0.0,-4.9817,-5.0654,-5.0683,-5.0683,-5.0683,-5.0683,-5.0038,0.0,0.0,0.0,0.0,0.0,0.0,0.0,0.0,0.0,0.0,0.0,0.0,0.0,0.0,0.0,0.0,0.0,0.0,0.0,0.0,0.0,0.0,0.0,0.0,0.0,0.0,0.0,0.0,0.0,0.0,0.0,0.0,0.0,0.0,0.0,0.0,0.0,0.0,0.0,0.0,0.0,0.0,0.0,0.0,0.0,0.0,0.0,0.0,0.0,0.0,0.0,0.0,0.0,0.0,0.0,0.0,0.0,0.0,0.0,0.0,0.0,0.0,0.0,0.0,0.0,0.0,0.0,0.0,0.0,0.0,0.0,0.0,0.0,0.0,0.0,0.0,0.0,0.0,0.0,0.0,0.0,0.0,0.0,0.0,0.0,0.0,0.0,0.0,0.0,0.0,0.0,0.0,0.0,0.0,0.0,0.0,0.0,0.0,0.0,0.0,0.0,0.0,0.0,0.0,0.0,0.0,0.0,-4.9067,-4.9962,-5.0654,-5.0683,-5.0683,-5.0683,-5.0683,-5.0288,-4.9355,0.0,0.0,0.0,0.0,0.0,0.0,0.0,0.0,0.0,0.0,0.0,0.0,0.0,0.0,0.0,0.0,0.0,0.0,0.0,0.0,0.0,0.0,0.0,0.0,0.0,0.0,0.0,0.0,0.0,0.0,0.0,0.0,0.0,0.0,0.0,0.0,0.0,0.0,-4.575,-4.6423,0.0,0.0,0.0,0.0,0.0,0.0,0.0,0.0,-4.6759,0.0,0.0,0.0,0.0,0.0,0.0,0.0,0.0,0.0,0.0,0.0,0.0,0.0,0.0,0.0,0.0,0.0,0.0,0.0,0.0,0.0,0.0,0.0,0.0,0.0,0.0,0.0,0.0,0.0,0.0,0.0,0.0,0.0,0.0,0.0,0.0,0.0,0.0,0.0,0.0,0.0,0.0,0.0,0.0,0.0,0.0,0.0,0.0,0.0,0.0,0.0,0.0,0.0,0.0,0.0,0.0,-4.8096,-4.9683,-5.0558,-5.0683,-5.0683,-5.0683,-5.0683,-5.0683,-5.0279,-4.9423,0.0,0.0,0.0,0.0,0.0,0.0,0.0,0.0,0.0,0.0,0.0,0.0,0.0,0.0,0.0,0.0,0.0,0.0,0.0,0.0,0.0,0.0,0.0,0.0,0.0,0.0,0.0,0.0,0.0,0.0,0.0,0.0,0.0,0.0,0.0,0.0,0.0,0.0,0.0,-4.6789,-4.7087,0.0,0.0,0.0,0.0,0.0,0.0,0.0,0.0,-4.7255,0.0,0.0,0.0,0.0,0.0,0.0,0.0,0.0,0.0,0.0,0.0,0.0,0.0,0.0,0.0,0.0,0.0,0.0,0.0,0.0,0.0,0.0,0.0,0.0,0.0,0.0,0.0,0.0,0.0,0.0,0.0,0.0,0.0,0.0,0.0,0.0,0.0,0.0,0.0,0.0,0.0,0.0,0.0,0.0,0.0,0.0,0.0,0.0,0.0,0.0,0.0,0.0,0.0,0.0,0.0,-4.8173,-4.9817,-5.0683,-5.0683,-5.0683,-5.0683,-5.0683,-5.0683,-5.0087,0.0,0.0,0.0,0.0,0.0,0.0,0.0,0.0,0.0,0.0,0.0,0.0,0.0,0.0,0.0,0.0,0.0,0.0,0.0,0.0,0.0,0.0,0.0,0.0,0.0,0.0,0.0,0.0,0.0,0.0,0.0,0.0,0.0,0.0,0.0,0.0,0.0,0.0,0.0,0.0,-4.7165,-4.7588,-4.7893,0.0,0.0,0.0,0.0,0.0,0.0,-4.8071,-4.7874,0.0,0.0,0.0,0.0,0.0,0.0,0.0,0.0,0.0,0.0,0.0,0.0,0.0,0.0,0.0,0.0,0.0,0.0,0.0,0.0,0.0,0.0,0.0,0.0,0.0,0.0,0.0,0.0,0.0,0.0,0.0,0.0,0.0,0.0,0.0,0.0,0.0,0.0,0.0,0.0,0.0,0.0,0.0,0.0,0.0,0.0,0.0,0.0,0.0,0.0,0.0,0.0,0.0,0.0,0.0,-4.8413,-4.9894,-5.0683,-5.0683,-5.0683,-5.0683,-5.0683,-5.0683,-4.9875,0.0,0.0,0.0,0.0,0.0,0.0,0.0,0.0,0.0,0.0,0.0,0.0,0.0,0.0,0.0,0.0,0.0,0.0,0.0,0.0,0.0,0.0,0.0,0.0,0.0,0.0,0.0,0.0,0.0,0.0,0.0,0.0,0.0,0.0,0.0,0.0,0.0,0.0,0.0,0.0,0.0,-4.8005,-4.8122,-4.8697,0.0,0.0,0.0,0.0,-4.817,-4.8548,0.0,0.0,0.0,0.0,0.0,0.0,0.0,0.0,0.0,0.0,0.0,0.0,0.0,0.0,0.0,0.0,0.0,0.0,0.0,0.0,0.0,0.0,0.0,0.0,0.0,0.0,0.0,0.0,0.0,0.0,0.0,0.0,0.0,0.0,0.0,0.0,0.0,0.0,0.0,0.0,0.0,0.0,0.0,0.0,0.0,0.0,0.0,0.0,0.0,0.0,0.0,0.0,0.0,0.0,0.0,0.0,-4.924,-5.0212,-5.0683,-5.0683,-5.0683,-5.0683,-5.0683,-5.0683,-4.9875,0.0,0.0,0.0,0.0,0.0,0.0,0.0,0.0,0.0,0.0,0.0,0.0,0.0,0.0,0.0,0.0,0.0,0.0,0.0,0.0,0.0,0.0,0.0,0.0,0.0,0.0,0.0,0.0,0.0,0.0,0.0,0.0,0.0,0.0,0.0,0.0,0.0,0.0,0.0,0.0,0.0,-4.8141,-4.8785,-4.9454,-4.9789,0.0,0.0,-4.9187,-4.8911,-4.8853,0.0,0.0,0.0,0.0,0.0,0.0,0.0,0.0,0.0,0.0,0.0,0.0,0.0,0.0,0.0,0.0,0.0,0.0,0.0,0.0,0.0,0.0,0.0,0.0,0.0,0.0,0.0,0.0,0.0,0.0,0.0,0.0,0.0,0.0,0.0,0.0,0.0,0.0,0.0,0.0,0.0,0.0,0.0,0.0,0.0,0.0,0.0,0.0,0.0,0.0,0.0,0.0,0.0,0.0,0.0,-4.8529,-4.9394,-5.026,-5.0683,-5.0683,-5.0683,-5.0683,-5.0683,-5.0683,-4.9875,0.0,0.0,0.0,0.0,0.0,0.0,0.0,0.0,0.0,0.0,0.0,0.0,0.0,0.0,0.0,0.0,0.0,0.0,0.0,0.0,0.0,0.0,0.0,0.0,0.0,0.0,0.0,0.0,0.0,0.0,0.0,0.0,0.0,0.0,0.0,0.0,0.0,0.0,0.0,0.0,0.0,0.0,-4.8719,-4.9413,0.0,0.0,0.0,-4.9146,-4.8926,0.0,0.0,0.0,0.0,0.0,0.0,0.0,0.0,0.0,0.0,0.0,0.0,0.0,0.0,0.0,0.0,0.0,0.0,0.0,0.0,0.0,0.0,0.0,0.0,0.0,0.0,0.0,0.0,0.0,0.0,0.0,0.0,0.0,0.0,0.0,0.0,0.0,0.0,0.0,0.0,0.0,0.0,0.0,0.0,0.0,0.0,0.0,0.0,0.0,0.0,0.0,0.0,0.0,0.0,0.0,0.0,0.0,-4.9394,-5.0269,-5.0683,-5.0683,-5.0683,-5.0683,-5.0683,-5.0683,0.0,0.0,0.0,0.0,0.0,0.0,0.0,0.0,0.0,0.0,0.0,0.0,0.0,0.0,0.0,0.0,0.0,0.0,0.0,0.0,0.0,0.0,0.0,0.0,0.0,0.0,0.0,-4.2216,0.0,0.0,0.0,0.0,0.0,0.0,0.0,0.0,0.0,0.0,0.0,0.0,0.0,0.0,-4.7782,-4.8313,-4.9131,-4.9619,0.0,0.0,-4.9049,-4.8822,-4.8697,-4.8015,0.0,0.0,0.0,0.0,0.0,0.0,0.0,0.0,0.0,0.0,0.0,0.0,0.0,0.0,0.0,0.0,0.0,0.0,0.0,0.0,0.0,0.0,0.0,0.0,0.0,0.0,0.0,0.0,0.0,0.0,0.0,0.0,0.0,0.0,0.0,0.0,0.0,0.0,0.0,0.0,0.0,0.0,0.0,0.0,0.0,0.0,0.0,0.0,0.0,0.0,0.0,0.0,0.0,0.0,0.0,-4.9394,-5.026,-5.0683,-5.0683,-5.0683,-5.0683,-5.0683,-5.0683,-5.026,0.0,0.0,0.0,0.0,0.0,0.0,0.0,0.0,0.0,0.0,0.0,0.0,0.0,0.0,0.0,0.0,0.0,0.0,0.0,0.0,0.0,0.0,0.0,0.0,0.0,0.0,0.0,0.0,0.0,0.0,0.0,0.0,0.0,0.0,0.0,0.0,0.0,0.0,0.0,0.0,0.0,-4.7523,-4.7485,-4.8753,-4.9663,0.0,0.0,-4.9096,-4.884,-4.8697,-4.7997,-4.6195,0.0,0.0,0.0,0.0,0.0,0.0,0.0,0.0,0.0,0.0,0.0,0.0,0.0,0.0,0.0,0.0,0.0,0.0,0.0,0.0,0.0,0.0,0.0,0.0,0.0,0.0,0.0,0.0,0.0,0.0,0.0,0.0,0.0,0.0,0.0,0.0,0.0,0.0,0.0,0.0,0.0,0.0,0.0,0.0,0.0,0.0,0.0,0.0,0.0,0.0,0.0,0.0,0.0,-4.8529,-4.9394,-5.026,-5.0683,-5.0683,-5.0683,-5.0683,-5.0683,-5.0683,-5.0308,0.0,0.0,0.0,0.0,0.0,0.0,0.0,0.0,0.0,0.0,0.0,0.0,0.0,0.0,0.0,0.0,0.0,0.0,0.0,0.0,0.0,0.0,0.0,0.0,0.0,0.0,0.0,0.0,-4.4102,-4.4667,-4.4468,0.0,0.0,0.0,0.0,0.0,0.0,0.0,0.0,0.0,0.0,-4.765,-4.8083,-4.9004,0.0,0.0,-4.9295,-4.9064,-4.8874,-4.8714,-4.8181,-4.6948,-4.6287,0.0,0.0,0.0,0.0,0.0,0.0,0.0,0.0,0.0,0.0,0.0,0.0,0.0,0.0,0.0,0.0,0.0,0.0,0.0,0.0,0.0,0.0,0.0,0.0,0.0,0.0,0.0,0.0,0.0,0.0,0.0,0.0,0.0,0.0,0.0,0.0,0.0,0.0,0.0,0.0,0.0,0.0,0.0,0.0,0.0,0.0,0.0,0.0,0.0,0.0,0.0,0.0,-4.8529,-4.9394,-5.0269,-5.0683,-5.0683,-5.0683,-5.0683,-5.0683,-5.0683,-5.0404,0.0,0.0,0.0,0.0,0.0,0.0,0.0,0.0,0.0,0.0,0.0,0.0,0.0,0.0,0.0,0.0,0.0,0.0,0.0,0.0,0.0,0.0,0.0,0.0,0.0,0.0,0.0,0.0,-4.4414,-4.4693,-4.4401,0.0,0.0,0.0,0.0,0.0,0.0,0.0,0.0,0.0,0.0,-4.8055,-4.8588,-4.9211,-4.9589,-4.9442,-4.9228,-4.9013,-4.8839,-4.8678,-4.8274,-4.739,0.0,0.0,0.0,0.0,0.0,0.0,0.0,0.0,0.0,0.0,0.0,0.0,0.0,0.0,0.0,0.0,0.0,0.0,0.0,0.0,0.0,0.0,0.0,0.0,0.0,0.0,0.0,0.0,0.0,0.0,0.0,0.0,0.0,0.0,0.0,0.0,0.0,0.0,0.0,0.0,0.0,0.0,0.0,0.0,0.0,0.0,0.0,0.0,0.0,0.0,0.0,0.0,0.0,-4.8529,-4.9394,-5.024,-5.0683,-5.0683,-5.0683,-5.0683,-5.0683,-5.0683,-5.0673,-5.0635,0.0,0.0,0.0,0.0,0.0,0.0,0.0,0.0,0.0,0.0,0.0,0.0,0.0,0.0,0.0,0.0,0.0,0.0,0.0,0.0,0.0,0.0,0.0,0.0,0.0,0.0,-4.3949,-4.4543,-4.4802,0.0,0.0,0.0,0.0,0.0,0.0,0.0,0.0,0.0,0.0,-4.7675,-4.8706,-4.8795,-4.9324,-4.9644,-4.9514,-4.9204,-4.8906,-4.866,-4.855,-4.8199,0.0,0.0,0.0,0.0,0.0,0.0,0.0,0.0,0.0,0.0,0.0,0.0,0.0,0.0,0.0,0.0,0.0,0.0,0.0,0.0,0.0,0.0,0.0,0.0,0.0,0.0,0.0,0.0,-4.754,0.0,0.0,0.0,0.0,0.0,0.0,0.0,0.0,0.0,0.0,0.0,-4.8971,-4.8971,0.0,0.0,0.0,0.0,0.0,0.0,0.0,0.0,0.0,0.0,0.0,0.0,-4.8529,-4.9394,-5.025,-5.0683,-5.0683,-5.0683,-5.0683,-5.0683,-5.0683,-5.0683,-5.0683,0.0,0.0,0.0,0.0,0.0,0.0,0.0,0.0,0.0,0.0,0.0,0.0,0.0,0.0,0.0,0.0,0.0,0.0,0.0,0.0,0.0,0.0,0.0,0.0,0.0,-4.399,0.0,0.0,0.0,0.0,0.0,0.0,0.0,0.0,0.0,0.0,0.0,-4.6588,-4.7738,-4.8409,-4.894,-4.9445,-4.9617,-4.9678,0.0,0.0,0.0,0.0,0.0,0.0,0.0,0.0,0.0,0.0,0.0,0.0,0.0,0.0,-4.4745,-4.3698,-4.3479,-4.3479,-4.3479,0.0,0.0,0.0,0.0,0.0,0.0,0.0,0.0,0.0,0.0,0.0,0.0,0.0,0.0,0.0,0.0,-4.7945,0.0,0.0,0.0,0.0,0.0,0.0,0.0,0.0,-4.9702,-4.9865,-4.9856,-4.9837,-4.9548,0.0,-4.9009,-4.9009,0.0,0.0,0.0,0.0,0.0,0.0,0.0,0.0,-4.8971,-4.9837,-5.0414,-5.0683,-5.0683,-5.0683,-5.0683,-5.0683,-5.0683,-5.0683,-5.0683,-4.9856,-4.9125,0.0,0.0,0.0,0.0,0.0,0.0,0.0,0.0,0.0,0.0,0.0,0.0,0.0,0.0,0.0,0.0,0.0,0.0,0.0,0.0,0.0,0.0,0.0,-4.4776,0.0,0.0,0.0,0.0,0.0,0.0,0.0,0.0,0.0,-4.6016,-4.665,-4.7485,-4.8592,-4.9016,-4.9377,-4.9863,0.0,0.0,0.0,0.0,0.0,0.0,0.0,-4.866,-4.855,-4.8015,-4.7462,-4.7149,-4.6672,-4.6232,-4.5938,0.0,0.0,-4.4543,-4.4341,-4.4323,-4.4323,-4.4103,-4.3754,-4.324,-4.291,-4.2653,0.0,0.0,0.0,0.0,0.0,0.0,0.0,0.0,-4.8811,-4.8829,0.0,-4.8704,0.0,0.0,0.0,0.0,0.0,0.0,0.0,0.0,-5.0298,-5.0683,-5.0673,-5.0673,-5.0683,-5.0683,-5.0654,-5.0654,-5.0577,-4.899,0.0,0.0,0.0,0.0,0.0,0.0,-4.9817,-5.0635,-5.0693,-5.0683,-5.0683,-5.0683,-5.0683,-5.0683,-5.0683,-5.0683,-5.0673,-4.9904,-4.9433,-4.9375,-4.7836,0.0,0.0,0.0,0.0,0.0,0.0,0.0,0.0,0.0,0.0,0.0,0.0,0.0,0.0,0.0,0.0,0.0,0.0,0.0,0.0,-4.4986,0.0,0.0,0.0,0.0,0.0,0.0,0.0,0.0,0.0,0.0,-4.6246,-4.7655,-4.8712,-4.8814,0.0,0.0,0.0,0.0,-4.9807,-4.9807,-4.9585,-4.9371,-4.9228,-4.901,-4.882,-4.8623,0.0,0.0,-4.7297,-4.7131,-4.6892,-4.6122,-4.6049,-4.5975,-4.5993,-4.5865,-4.581,-4.581,-4.5223,-4.4764,-4.4673,-4.4121,-4.3828,-5.1698,0.0,0.0,0.0,0.0,-4.9703,-5.0045,-5.062,-5.0636,-5.0589,-5.0521,-4.9834,0.0,0.0,0.0,0.0,0.0,0.0,-4.9721,-5.0327,-5.0577,-5.0683,-5.0683,-5.0683,-5.0683,-5.0683,-5.0683,-5.0683,-5.0673,-5.0192,-4.9644,-4.9029,0.0,0.0,0.0,0.0,-4.9817,-5.0654,-5.0683,-5.0683,-5.0683,-5.0683,-5.0683,-5.0683,-5.0683,-5.0683,-5.0683,-5.0462,-5.0038,-4.9413,-4.8355,0.0,0.0,0.0,0.0,0.0,0.0,0.0,0.0,0.0,0.0,0.0,0.0,0.0,0.0,0.0,0.0,0.0,0.0,0.0,-4.5152,-4.5378,-4.5438,0.0,0.0,0.0,0.0,0.0,0.0,0.0,0.0,0.0,-4.803,-4.8389,-4.8907,0.0,0.0,-4.9925,-4.9992,-4.9885,-4.9802,-4.9871,0.0,0.0,0.0,-4.9094,-4.8874,-4.875,-4.8532,-4.8252,-4.8012,-4.7938,-4.7883,-4.7645,-4.7609,-4.7609,-4.7553,-4.6654,-4.5975,-4.5883,-4.57,-4.5553,-4.5535,-4.5351,-4.5241,-5.3086,-5.164,-5.0717,-5.0439,-5.0612,-5.0608,-5.0915,-5.1398,-5.1388,-5.1369,-5.1294,-5.0711,-5.0397,-5.0287,-4.9602,0.0,0.0,0.0,-5.0202,-5.0683,-5.0683,-5.0683,-5.0683,-5.0683,-5.0683,-5.0683,-5.0683,-5.0683,-5.0683,-5.0683,-5.0442,-4.9933,0.0,0.0,-4.9894,-4.9913,-5.0164,-5.0673,-5.0683,-5.0683,-5.0683,-5.0683,-5.0683,-5.0683,-5.0683,-5.0683,-5.0683,-5.0683,-5.0452,-4.9913,-4.9067,-4.8221,0.0,0.0,0.0,0.0,0.0,0.0,0.0,0.0,0.0,0.0,0.0,-4.195,-4.2288,0.0,0.0,0.0,-4.4643,-4.5528,-4.6067,-4.6377,0.0,0.0,0.0,0.0,0.0,0.0,0.0,-4.7946,-4.8523,-4.8991,-4.9271,-4.9277,-4.9441,-4.9922,-4.9959,-4.9986,-5.0044,0.0,-4.9885,-4.992,-4.9726,-4.9537,-4.9525,-4.9257,-4.8976,-4.8732,-4.8476,-4.8306,-4.8324,-4.8324,-4.8324,-4.8324,-4.8324,-4.8324,-4.8324,-4.7498,-4.6856,-4.6838,-4.6581,-4.6397,-4.6379,-4.6122,-4.5975,-5.416,-5.4043,-5.3241,-5.2399,-5.1614,-5.1595,-5.1614,-5.1594,-5.152,-5.1507,-5.1494,-5.137,-5.123,-5.1081,-5.0898,0.0,0.0,-5.0693,-5.0693,-5.0683,-5.0683,-5.0683,-5.0683,-5.0683,-5.0683,-5.0683,-5.0683,-5.0683,-5.0683,-5.0683,-5.0683,-5.0683,-5.0683,-5.0683,-5.0683,-5.0683,-5.0683,-5.0683,-5.0683,-5.0683,-5.0683,-5.0683,-5.0683,-5.0683,-5.0683,-5.0683,-5.0683,-5.0683,-5.0683,-5.0673,-4.9856,-4.9048,-4.824,0.0,0.0,0.0,0.0,0.0,0.0,0.0,0.0,0.0,0.0,0.0,0.0,0.0,0.0,0.0,-4.6028,0.0,-4.7,-4.7664,0.0,0.0,0.0,-4.8017,-4.8003,-4.8003,-4.8275,-4.9033,0.0,0.0,0.0,0.0,-5.0133,-5.0133,-5.0108,-5.0108,-5.0108,-5.0057,-4.9986,-4.9999,-4.9903,-4.9778,-4.9678,-4.9434,-4.9077,-4.8678,-4.8439,-4.8324,-4.8324,-4.8324,-4.8324,-4.8324,-4.8324,-4.8324,-4.8324,-4.8251,-4.8324,-4.8233,-4.7681,-4.7204,-4.7168,-4.6691,-4.6452,-5.5586,-5.498,-5.4785,-5.4199,-5.3378,-5.3377,-5.3376,-5.3317,-5.2683,-5.2397,-5.2347,-5.1635,-5.1181,-5.1017,-5.091,-5.0808,-5.0701,-5.0692,-5.0683,-5.0693,-5.0683,-5.0683,-5.0683,-5.0683,-5.0683,-5.0683,-5.0683,-5.0683,-5.0683,-5.0683,-5.0683,-5.0683,-5.0683,-5.0683,-5.0683,-5.0683,-5.0683,-5.0683,-5.0683,-5.0683,-5.0683,-5.0683,-5.0683,-5.0683,-5.0683,-5.0683,-5.0683,-5.0683,-5.0683,-5.0673,-4.9856,-4.9298,-4.9106,-4.8298,0.0,0.0,0.0,0.0,0.0,0.0,0.0,0.0,0.0,-4.3797,-4.3989,0.0,-4.6278,0.0,-4.7221,-4.7808,-4.7817,-4.8,0.0,0.0,-4.8077,-4.8297,-4.8832,-4.8879,-4.9194,-5.0044,-5.0139,-5.0205,-5.0385,-5.0404,-5.0424,-5.0393,-5.0231,-5.012,-5.0151,-5.0101,-5.0082,-5.007,-4.9931,-4.9778,-4.9678,-4.9308,-4.8907,-4.8641,-4.842,-4.8324,-4.8324,-4.8324,-4.8324,-4.8324,-4.8324,-4.8324,-4.8324,-4.8324,-4.8324,-4.8306,-4.8122,-4.8031,-4.8031,-4.7847,-4.7792,-5.668,-5.5879,-5.5879,-5.5605,-5.5098,-5.4336,-5.3984,-5.3964,-5.3472,-5.3288,-5.3254,-5.2695,-5.2358,-5.2214,-5.2138,-5.2047,-5.1919,-5.148,-5.1279,-5.126,-5.0875,-5.0683,-5.0683,-5.0683,-5.0894,-5.1221,-5.1241,-5.1433,-5.1798,-5.1818,-5.1818,-5.1818,-5.1818,-5.1798,-5.1779,-5.1068,-5.0683,-5.0683,-5.0683,-5.0683,-5.0683,-5.0683,-5.0683,-5.0683,-5.0683,-5.0683,-5.0683,-5.0683,-5.0683,-5.0693,-5.0221,-4.9798,-4.9413,-4.8933,-4.8298,0.0,0.0,0.0,0.0,0.0,0.0,0.0,0.0,0.0,0.0,0.0,-4.7423,0.0,-4.8202,0.0,-4.8682,-4.9029,-4.9269,-4.926,-4.926,-4.9423,-4.9816,-4.9873,-5.0036,-5.0485,-5.0562,-5.0532,-5.0511,-5.05,-5.05,-5.05,-5.0371,-5.0278,-5.0278,-5.0212,-5.017,-5.0108,-4.9952,-4.9759,-4.9555,-4.9193,-4.8873,-4.8641,-4.8476,-4.8363,-4.8306,-4.8324,-4.8324,-4.8324,-4.8324,-4.8324,-4.8324,-4.8324,-4.8324,-4.8324,-4.8324,-4.8324,-4.8324,-4.8324,-4.8324,-5.7637,-5.6933,-5.6816,-5.6758,-5.664,-5.5019,-5.4336,-5.4336,-5.4218,-5.4095,-5.3982,-5.392,-5.3833,-5.3707,-5.3657,-5.356,-5.3448,-5.2605,-5.2184,-5.2127,-5.1395,-5.102,-5.101,-5.1039,-5.1375,-5.2038,-5.2058,-5.2472,-5.3183,-5.3203,-5.3203,-5.3203,-5.3203,-5.3203,-5.3126,-5.1741,-5.102,-5.102,-5.102,-5.0962,-5.0856,-5.0866,-5.0808,-5.0712,-5.0683,-5.0683,-5.0683,-5.0683,-5.0683,-5.0683,-5.0683,-5.0366,-4.9606,-4.9548,-4.9183,0.0,-4.8259,0.0,0.0,0.0,0.0,0.0,0.0,0.0,0.0,-4.7798,-4.8317,-4.8413,-4.9125,-4.9567,-4.9567,-5.026,-5.0683,-5.0683,-5.0683,-5.0683,-5.0683,-5.0683,-5.0673,-5.0613,-5.0613,-5.0593,-5.0551,-5.0521,-5.0521,-5.0532,-5.0532,-5.0489,-5.0435,-5.0367,-5.0267,-5.0145,-4.9992,-4.9759,-4.9415,-4.916,-4.8925,-4.8678,-4.8569,-4.8475,-4.8306,-4.8324,-4.8324,-4.8324,-4.8324,-4.8324,-4.8324,-4.8324,-4.8324,-4.8324,-4.8324,-4.8324,-4.8324,-4.8324,-4.8324,-5.8848,-5.8633,-5.793,-5.7656,-5.7578,-5.6543,-5.6113,-5.6055,-5.5351,-5.4661,-5.3994,-5.3927,-5.3872,-5.3774,-5.3718,-5.3624,-5.3495,-5.3296,-5.3153,-5.3051,-5.2887,-5.2781,-5.2741,-5.2722,-5.2818,-5.2953,-5.2942,-5.3029,-5.3203,-5.3203,-5.3203,-5.3203,-5.3203,-5.3203,0.0,0.0,0.0,0.0,-5.2741,-5.2395,-5.1712,-5.1673,-5.1356,-5.0731,-5.0683,0.0,-5.0683,-5.0683,-5.0683,-5.0683,-5.0683,0.0,0.0,0.0,0.0,0.0,0.0,0.0,0.0,0.0,0.0,0.0,-4.8452,-4.8452,-4.7942,-4.8644,-4.9452,-5.0144,-5.0366,-5.0462,-5.0462,-5.0616,-5.0683,-5.0683,-5.0683,-5.0683,-5.0683,-5.0683,-5.0683,-5.0673,-5.0692,-5.0673,-5.0653,-5.0663,-5.0653,-5.0653,-5.0653,-5.0633,-5.0572,-5.0457,-5.0367,-5.0255,-4.9999,-4.9717,-4.943,-4.9174,-4.8959,-4.8786,-4.8587,-4.8457,-4.8343,-4.8324,-4.8324,-4.8324,-4.8324,-4.8324,-4.8324,-4.8324,-4.8324,-4.8324,-4.8324,-4.8324,-4.8324,-4.8324,-4.8324,-5.957,0.0,-5.873,-5.8281,0.0,0.0,-5.6992,-5.6582,-5.6133,-5.5679,-5.5248,-5.5204,-5.5142,-5.5082,-5.5054,-5.4995,-5.4871,-5.4363,-5.4108,-5.4021,-5.3561,-5.3321,-5.3262,-5.3262,-5.3454,-5.3837,-5.3837,-5.4049,-5.4414,-5.4414,-5.4434,-5.4414,-5.4434,-5.4434,-5.4434,-5.4434,-5.403,-5.3203,-5.3203,-5.2991,-5.2558,-5.2538,-5.2145,-5.1337,0.0,0.0,0.0,0.0,0.0,0.0,0.0,0.0,0.0,0.0,0.0,-5.0096,-5.0058,-4.9837,-4.9433,-4.9375,-4.9375,-4.9375,-4.9779,-4.9856,-4.9394,-4.9798,-5.0221,-5.0654,-5.0683,-5.0683,-5.0683,-5.0683,-5.0683,-5.0683,-5.0683,-5.0683,-5.0683,-5.0683,-5.0683,-5.0683,-5.0683,-5.0683,-5.0683,-5.0683,-5.0683,-5.0683,-5.0683,-5.0683,-5.0643,-5.0572,-5.0457,-5.0314,-5.0038,-4.9788,-4.9585,-4.9302,-4.9077,-4.8874,-4.8697,-4.8513,-4.842,-4.8325,-4.8324,-4.8324,-4.8324,-4.8324,-4.8324,-4.8324,-4.8324,-4.8324,-4.8324,-4.8324,-4.8324,-4.8324,-4.8324,-6.0254,-5.9629,-5.9492,-5.9004,-5.834,-5.8203,-5.7637,-5.6816,0.0,0.0,0.0,-5.6515,-5.6464,-5.643,-5.6396,-5.6377,-5.6258,-5.5453,-5.506,-5.5001,-5.4231,-5.383,-5.3755,-5.3764,-5.4101,-5.4734,-5.4724,-5.507,-5.5705,-5.5695,-5.5684,-5.5684,-5.5684,-5.5684,-5.5684,-5.5684,-5.5011,-5.3703,-5.3645,-5.3568,-5.3453,-5.3433,-5.3029,-5.2135,-5.1981,-5.1577,-5.0933,-5.077,-5.0683,-5.0683,-5.0683,-5.0683,-5.0683,-5.0683,-5.0683,-5.0683,-5.0683,-5.0683,-5.0683,-5.0683,-5.0683,-5.0683,-5.0683,-5.0683,-5.0683,-5.0683,-5.0683,-5.0683,-5.0683,-5.0683,-5.0683,-5.0683,-5.0683,-5.0683,-5.0683,-5.0683,-5.0683,-5.0683,-5.0683,-5.0683,-5.0683,-5.0683,-5.0683,-5.0683,-5.0683,-5.0683,-5.0683,-5.0683,-5.0702,-5.0633,-5.0511,-5.0344,-5.012,-4.9893,-4.9731,-4.9506,-4.9241,-4.9012,-4.8803,-4.8624,-4.8513,-4.8401,-4.8325,-4.8324,-4.8324,-4.8324,-4.8324,-4.8324,-4.8324,-4.8324,-4.8324,-4.8324,-4.8324,-4.8324,-4.8324,-6.1445,-6.1289,-6.0527,-6.0156,-6.0,-5.9297,-5.8515,-5.7676,-5.6913,-5.658,-5.6578,-5.652,-5.6484,-5.6494,-5.6437,-5.6407,-5.6368,-5.6181,-5.6044,0.0,-5.5708,-5.5601,-5.5527,-5.5538,-5.5596,-5.5702,-5.5643,-5.569,-5.5776,-5.5735,-5.5684,-5.5695,-5.5684,-5.5684,-5.5684,-5.5684,-5.5588,-5.5338,-5.5357,-5.5011,-5.4337,-5.4318,-5.3914,-5.3038,-5.2288,-5.1846,-5.1731,-5.1068,-5.0683,-5.0683,-5.0683,-5.0683,-5.0683,-5.0683,-5.0683,-5.0683,-5.0683,-5.0683,-5.0683,-5.0683,-5.0683,-5.0683,-5.0683,-5.0683,-5.0683,-5.0683,-5.0683,-5.0683,-5.0683,-5.0683,-5.0683,-5.0683,-5.0683,-5.0683,-5.0683,-5.0683,-5.0683,-5.0683,-5.0683,-5.0683,-5.0683,-5.0683,-5.0683,-5.0683,-5.0683,-5.0683,-5.0683,-5.0683,-5.0683,-5.0633,-5.0511,-5.0356,-5.0231,-5.0076,-4.9893,-4.965,-4.9411,-4.9214,-4.8995,-4.8786,-4.8569,-4.8476,-4.8438,-4.8306,-4.8324,-4.8324,-4.8324,-4.8324,-4.8324,-4.8324,-4.8324,-4.8324,-4.8324,-4.8324,-4.8324,-6.1699,-6.164,-6.1289,-6.082,-6.0351,-5.9531,-5.8691,-5.789,-5.748,-5.705,-5.6618,-5.6573,-5.6543,-5.6487,-5.6464,-5.6448,-5.6444,-5.6382,-5.6308,-5.622,-5.6144,-5.6056,-5.5996,-5.6003,-5.5969,-5.5904,-5.5885,-5.5856,-5.5846,-5.5845,-5.5806,-5.5806,-5.5766,-5.5735,-5.5684,-5.5684,-5.5684,-5.5684,-5.5684,-5.5511,-5.5164,-5.5145,-5.4741,-5.3914,-5.3491,-5.2846,-5.1923,-5.1548,-5.1164,-5.0731,-5.0683,-5.0683,-5.0683,-5.0683,-5.0683,-5.0683,-5.0683,-5.0683,-5.0683,-5.0683,-5.0683,-5.0683,-5.0683,-5.0683,-5.0683,-5.0683,-5.0683,-5.0683,-5.0683,-5.0683,-5.0683,-5.0683,-5.0683,-5.0683,-5.0683,-5.0683,-5.0683,-5.0683,-5.0683,-5.0683,-5.0683,-5.0683,-5.0683,-5.0683,-5.0683,-5.0683,-5.0683,-5.0683,-5.0683,-5.0663,-5.0613,-5.0478,-5.0348,-5.0212,-5.0076,-4.9838,-4.9611,-4.938,-4.9125,-4.8907,-4.8715,-4.8624,-4.8476,-4.8419,-4.8363,-4.8324,-4.8324,-4.8324,-4.8324,-4.8324,-4.8324,-4.8324,-4.8324,-4.8324,-4.8324,-6.1699,-6.1699,-6.1699,-6.1308,-6.0625,-5.9824,-5.8984,-5.8203,-5.7988,-5.7402,-5.6678,-5.6619,-5.6574,-5.654,-5.6515,-5.6494,-5.6494,-5.6453,-5.6402,-5.6349,-5.6264,-5.62,-5.6153,-5.6141,-5.607,-5.5984,-5.5958,-5.5931,-5.5933,-5.5904,-5.5905,-5.5895,-5.5846,-5.5806,-5.5765,-5.5745,-5.5765,-5.5745,-5.5745,-5.5735,-5.5684,-5.5684,-5.5376,-5.4818,-5.4568,-5.3876,-5.2558,-5.2096,-5.1606,-5.101,-5.0808,-5.0683,-5.0683,-5.0683,-5.0683,-5.0683,-5.0683,-5.0683,-5.0683,-5.0683,-5.0683,-5.0683,-5.0683,-5.0683,-5.0683,-5.0683,-5.0683,-5.0683,-5.0683,-5.0683,-5.0683,-5.0683,-5.0683,-5.0683,-5.0683,-5.0683,-5.0683,-5.0683,-5.0683,-5.0683,-5.0683,-5.0683,-5.0683,-5.0683,-5.0683,-5.0683,-5.0683,-5.0683,-5.0683,-5.0683,-5.0663,-5.0613,-5.0478,-5.0337,-5.0224,-5.0038,-4.9824,-4.9602,-4.9334,-4.9108,-4.8942,-4.8715,-4.8569,-4.8531,-4.8401,-4.8343,-4.8324,-4.8324,-4.8324,-4.8324,-4.8324,-4.8324,-4.8324,-4.8324,-4.8324,-6.1699,-6.1699,-6.1699,-6.166,-6.1445,-6.0644,-5.9824,-5.9023,-5.8262,-5.7402,-5.668,-5.662,-5.6599,-5.6597,-5.6528,-5.6495,-5.6499,-5.6491,-5.6484,-5.6461,-5.6334,-5.6278,-5.6286,-5.622,-5.6185,-5.617,-5.611,-5.6082,-5.6073,-5.5958,-5.5904,-5.5905,-5.5914,-5.5895,-5.5866,-5.5885,-5.5885,-5.5885,-5.5885,-5.5816,-5.5714,-5.5684,-5.5665,-5.5588,-5.4876,-5.4434,-5.4126,-5.2731,-5.1865,-5.175,-5.1087,-5.0702,-5.0683,-5.0683,-5.0683,-5.0683,-5.0683,-5.0683,-5.0683,-5.0683,-5.0683,-5.0683,-5.0683,-5.0683,-5.0683,-5.0683,-5.0683,-5.0683,-5.0683,-5.0683,-5.0683,-5.0683,-5.0683,-5.0683,-5.0683,-5.0683,-5.0683,-5.0683,-5.0683,-5.0683,-5.0683,-5.0683,-5.0683,-5.0683,-5.0683,-5.0683,-5.0683,-5.0683,-5.0683,-5.0683,-5.0683,-5.0673,-5.0594,-5.0489,-5.0337,-5.0243,-5.0038,-4.9797,-4.9592,-4.9346,-4.9092,-4.8925,-4.8804,-4.8606,-4.8494,-4.8438,-4.8343,-4.8324,-4.8324,-4.8324,-4.8324,-4.8324,-4.8324,-4.8324,-4.8324,-6.1699,-6.1699,-6.1699,-6.1699,-6.164,-6.1308,-6.0703,-5.9844,-5.9043,-5.8183,-5.7344,-5.6836,-5.662,-5.6619,-5.6557,-5.6571,-5.6545,-5.6523,-5.6489,-5.6497,-5.6445,-5.6435,-5.6411,-5.6352,-5.6294,-5.6251,-5.622,-5.6179,-5.6168,-5.6106,-5.6057,-5.6014,-5.6014,-5.5996,-5.595,-5.5923,-5.5904,-5.5904,-5.5914,-5.5856,-5.5816,-5.5776,-5.5745,-5.5675,-5.5376,-5.4953,-5.4511,-5.378,-5.2991,-5.2,-5.1577,-5.1183,-5.0731,-5.0683,-5.0683,-5.0683,-5.0683,-5.0683,-5.0683,-5.0683,-5.0683,-5.0683,-5.0683,-5.0683,-5.0683,-5.0683,-5.0683,-5.0683,-5.0683,-5.0683,-5.0683,-5.0683,-5.0683,-5.0683,-5.0683,-5.0683,-5.0683,-5.0683,-5.0683,-5.0683,-5.0683,-5.0683,-5.0683,-5.0683,-5.0683,-5.0683,-5.0683,-5.0683,-5.0683,-5.0683,-5.0683,-5.0683,-5.0663,-5.0613,-5.0489,-5.0348,-5.0175,-5.0018,-4.9816,-4.9566,-4.9321,-4.9077,-4.8909,-4.8715,-4.8587,-4.8457,-4.8306,-4.8324,-4.8324,-4.8324,-4.8324,-4.8324,-4.8324,-4.8324,-4.8324,-6.1699,-6.1699,-6.1699,-6.1699,-6.1699,-6.1699,-6.1211,-6.0351,-5.9551,-5.8711,-5.7851,-5.6992,-5.6621,-5.662,-5.662,-5.6618,-5.6595,-5.6546,-5.6538,-5.6534,-5.6503,-5.6485,-5.6494,-5.6461,-5.6407,-5.6364,-5.6333,-5.6288,-5.6246,-5.6225,-5.619,-5.6133,-5.6126,-5.611,-5.6059,-5.6018,-5.5973,-5.5993,-5.5987,-5.598,-5.5942,-5.5914,-5.5856,-5.5766,-5.5765,-5.5476,-5.4918,-5.4638,-5.3935,-5.2684,-5.2183,-5.1635,-5.1087,-5.0827,-5.0683,-5.0683,-5.0683,-5.0683,-5.0683,-5.0683,-5.0683,-5.0683,-5.0683,-5.0683,-5.0683,-5.0683,-5.0683,-5.0683,-5.0683,-5.0683,-5.0683,-5.0683,-5.0683,-5.0683,-5.0683,-5.0683,-5.0683,-5.0683,-5.0683,-5.0683,-5.0683,-5.0683,-5.0683,-5.0683,-5.0683,-5.0683,-5.0683,-5.0683,-5.0683,-5.0683,-5.0683,-5.0683,-5.0683,-5.0663,-5.0584,-5.0448,-5.0302,-5.017,-4.9992,-4.9774,-4.9521,-4.9273,-4.901,-4.8839,-4.8679,-4.8513,-4.8401,-4.8363,-4.8324,-4.8324,-4.8324,-4.8324,-4.8324,-4.8324,-4.8324,-6.1699,-6.1699,-6.1699,-6.1699,-6.1699,-6.1699,-6.123,-6.043,-5.9551,-5.8711,-5.791,-5.6992,-5.6621,-5.6621,-5.6621,-5.6621,-5.6619,-5.6579,-5.6596,-5.6591,-5.6523,-5.6495,-5.6484,-5.6494,-5.6491,-5.6473,-5.6414,-5.6359,-5.6283,-5.6294,-5.6264,-5.6207,-5.6214,-5.6188,-5.6181,-5.6186,-5.6192,-5.6185,-5.616,-5.6149,-5.609,-5.6082,-5.6003,-5.5904,-5.5895,-5.5847,-5.5712,-5.4959,-5.4438,-5.4361,-5.2848,-5.1933,-5.1779,-5.1116,-5.0693,-5.0693,-5.0693,-5.0683,-5.0683,-5.0683,-5.0683,-5.0683,-5.0683,-5.0683,-5.0683,-5.0683,-5.0683,-5.0683,-5.0683,-5.0683,-5.0683,-5.0683,-5.0683,-5.0683,-5.0683,-5.0683,-5.0683,-5.0683,-5.0683,-5.0683,-5.0683,-5.0683,-5.0683,-5.0683,-5.0683,-5.0683,-5.0683,-5.0683,-5.0683,-5.0683,-5.0683,-5.0683,-5.0683,-5.0692,-5.0613,-5.0521,-5.0446,-5.029,-5.0101,-4.9906,-4.9683,-4.9464,-4.9228,-4.8978,-4.8767,-4.8624,-4.8513,-4.8419,-4.8343,-4.8324,-4.8324,-4.8324,-4.8324,-4.8324,-4.8324,-6.1699,-6.1699,-6.1699,-6.1699,-6.1699,-6.1699,-6.1523,-6.1113,-5.9785,-5.9023,-5.8515,-5.7226,-5.6621,-5.6621,-5.6621,-5.6621,-5.6621,-5.662,-5.6618,-5.6597,-5.6572,-5.6568,-5.6564,-5.6532,-5.6484,-5.6497,-5.6494,-5.6445,-5.6425,-5.6378,-5.6344,-5.6334,-5.6334,-5.6334,-5.6324,-5.6286,-5.6263,-5.6257,-5.6227,-5.6186,-5.616,-5.6172,-5.6132,-5.6087,-5.5967,-5.5904,-5.5904,-5.5557,-5.5143,-5.4612,-5.3957,-5.3138,-5.2088,-5.1173,-5.0692,-5.0692,-5.0683,-5.0683,-5.0683,-5.0683,-5.0683,-5.0683,-5.0683,-5.0683,-5.0683,-5.0683,-5.0683,-5.0683,-5.0683,-5.0683,-5.0683,-5.0683,-5.0683,-5.0683,-5.0683,-5.0683,-5.0683,-5.0683,-5.0683,-5.0683,-5.0683,-5.0683,-5.0683,-5.0683,-5.0683,-5.0683,-5.0683,-5.0683,-5.0683,-5.0683,-5.0683,-5.0683,-5.0683,-5.0683,-5.0663,-5.0613,-5.0511,-5.0382,-5.0224,-5.0063,-4.9866,-4.9673,-4.943,-4.9162,-4.8925,-4.8697,-4.8587,-4.8419,-4.8343,-4.8324,-4.8324,-4.8324,-4.8324,-4.8324,-4.8324,-6.1699,-6.1699,-6.1699,-6.1699,-6.1699,-6.1699,-6.1699,-6.1504,-5.9941,-5.9199,-5.8867,-5.7363,-5.6621,-5.6621,-5.6621,-5.6621,-5.6621,-5.662,-5.662,-5.662,-5.6618,-5.6616,-5.6595,-5.6553,-5.6529,-5.6525,-5.6511,-5.6492,-5.6491,-5.6455,-5.6425,-5.6418,-5.6437,-5.6434,-5.6422,-5.6387,-5.6349,-5.6339,-5.6283,-5.6261,-5.6261,-5.6255,-5.6255,-5.6238,-5.6119,-5.6012,-5.599,-5.5968,-5.5729,-5.5149,-5.4792,-5.3983,-5.2614,-5.1661,-5.1152,-5.1133,-5.0894,-5.0731,-5.0693,-5.0693,-5.0683,-5.0693,-5.0683,-5.0683,-5.0683,-5.0683,-5.0683,-5.0683,-5.0683,-5.0683,-5.0683,-5.0683,-5.0683,-5.0683,-5.0683,-5.0683,-5.0683,-5.0683,-5.0683,-5.0683,-5.0683,-5.0683,-5.0683,-5.0683,-5.0683,-5.0683,-5.0683,-5.0683,-5.0683,-5.0683,-5.0683,-5.0683,-5.0683,-5.0683,-5.0683,-5.0643,-5.0603,-5.0489,-5.0337,-5.0194,-5.0025,-4.9843,-4.963,-4.9321,-4.9079,-4.8821,-4.8624,-4.8457,-4.8381,-4.8324,-4.8324,-4.8324,-4.8324,-4.8324,-4.8324,-6.1699,-6.1699,-6.1699,-6.1699,-6.1699,-6.1699,-6.1699,-6.1426,-5.9922,-5.9199,-5.8984,-5.7363,-5.6621,-5.6621,-5.6621,-5.6621,-5.6621,-5.6621,-5.6621,-5.6621,-5.6621,-5.6621,-5.6599,-5.6599,-5.6597,-5.6573,-5.6527,-5.6504,-5.6518,-5.6511,-5.6499,-5.6489,-5.6509,-5.6503,-5.6485,-5.6487,-5.6496,-5.6473,-5.6418,-5.637,-5.639,-5.6386,-5.6405,-5.6381,-5.631,-5.6257,-5.6206,-5.6145,-5.6059,-5.5935,-5.5241,-5.4329,-5.3484,-5.252,-5.2031,-5.1861,-5.1264,-5.0813,-5.073,-5.0701,-5.0702,-5.0683,-5.0693,-5.0693,-5.0693,-5.0683,-5.0683,-5.0683,-5.0683,-5.0683,-5.0683,-5.0683,-5.0683,-5.0683,-5.0683,-5.0683,-5.0683,-5.0683,-5.0683,-5.0683,-5.0683,-5.0683,-5.0683,-5.0683,-5.0683,-5.0683,-5.0683,-5.0683,-5.0683,-5.0683,-5.0683,-5.0683,-5.0683,-5.0683,-5.0683,-5.0683,-5.0643,-5.0593,-5.0435,-5.0267,-5.0114,-4.9946,-4.9759,-4.9476,-4.9144,-4.889,-4.8697,-4.855,-4.8438,-4.8401,-4.8363,-4.8324,-4.8324,-4.8324,-4.8324,-6.1699,-6.1699,-6.1699,-6.1699,-6.1699,-6.1699,-6.1699,-6.1523,-5.9922,-5.9219,-5.8887,-5.7363,-5.6621,-5.6621,-5.6621,-5.6621,-5.6621,-5.6621,-5.6621,-5.6621,-5.6621,-5.6621,-5.6621,-5.6621,-5.662,-5.6598,-5.6577,-5.6574,-5.655,-5.6549,-5.6566,-5.6563,-5.6582,-5.6561,-5.6577,-5.6528,-5.6482,-5.6482,-5.6472,-5.6464,-5.6481,-5.6472,-5.6465,-5.6462,-5.6449,-5.6431,-5.6407,-5.6258,-5.6186,-5.6167,-5.5901,-5.5343,-5.4377,-5.303,-5.226,-5.21,-5.1363,-5.0846,-5.0784,-5.0756,-5.0738,-5.0711,-5.0702,-5.0702,-5.0693,-5.0693,-5.0693,-5.0693,-5.0683,-5.0683,-5.0683,-5.0683,-5.0683,-5.0683,-5.0683,-5.0683,-5.0683,-5.0683,-5.0683,-5.0683,-5.0683,-5.0683,-5.0683,-5.0683,-5.0683,-5.0683,-5.0683,-5.0683,-5.0683,-5.0683,-5.0683,-5.0683,-5.0683,-5.0683,-5.0683,-5.0683,-5.0673,-5.0633,-5.053,-5.0379,-5.0231,-5.0076,-4.9879,-4.9611,-4.927,-4.9027,-4.8839,-4.866,-4.8569,-4.8476,-4.8457,-4.8401,-4.8343,-4.8324,-4.8324,-6.1699,-6.1699,-6.1699,-6.1699,-6.1699,-6.1699,-6.1699,-6.1465,-5.9922,-5.9219,-5.8867,-5.7363,-5.6621,-5.6621,-5.6621,-5.6621,-5.6621,-5.6621,-5.6621,-5.6621,-5.6621,-5.6621,-5.6621,-5.6621,-5.6621,-5.662,-5.662,-5.6619,-5.6618,-5.6618,-5.6617,-5.6615,-5.6615,-5.6613,-5.6593,-5.655,-5.6548,-5.6527,-5.6541,-5.6559,-5.6538,-5.6532,-5.653,-5.6526,-5.6528,-5.6497,-5.6491,-5.639,-5.629,-5.6278,-5.63,-5.5985,-5.5352,-5.4097,-5.3132,-5.2635,-5.1958,-5.1328,-5.0963,-5.0861,-5.0808,-5.0784,-5.0738,-5.0739,-5.073,-5.0712,-5.0693,-5.0693,-5.0702,-5.0683,-5.0683,-5.0683,-5.0683,-5.0683,-5.0683,-5.0683,-5.0683,-5.0683,-5.0683,-5.0683,-5.0683,-5.0683,-5.0683,-5.0683,-5.0683,-5.0683,-5.0683,-5.0683,-5.0683,-5.0683,-5.0683,-5.0683,-5.0683,-5.0683,-5.0683,-5.0683,-5.0683,-5.0653,-5.0603,-5.0468,-5.0337,-5.0212,-5.005,-4.9755,-4.943,-4.9209,-4.901,-4.8838,-4.8696,-4.8642,-4.855,-4.8476,-4.8382,-4.8343,-4.8306,-6.1699,-6.1699,-6.1699,-6.1699,-6.1699,-6.1699,-6.1621,-6.1328,-5.9902,-5.914,-5.8711,-5.7305,-5.6621,-5.6621,-5.6621,-5.6621,-5.6621,-5.6621,-5.6621,-5.6621,-5.6621,-5.6621,-5.6621,-5.6621,-5.6621,-5.6621,-5.6621,-5.6621,-5.6621,-5.6621,-5.6621,-5.6619,-5.6619,-5.6618,-5.6596,-5.6613,-5.6594,-5.6594,-5.6594,-5.6594,-5.6593,-5.6593,-5.6593,-5.6592,-5.6545,-5.6501,-5.6516,-5.6506,-5.6458,-5.6422,-5.6392,-5.633,-5.6144,-5.548,-5.4449,-5.356,-5.2816,-5.1903,-5.122,-5.0944,-5.0898,-5.0905,-5.0844,-5.0801,-5.0801,-5.0766,-5.073,-5.0701,-5.0712,-5.0702,-5.0702,-5.0702,-5.0693,-5.0693,-5.0683,-5.0683,-5.0683,-5.0683,-5.0683,-5.0683,-5.0683,-5.0683,-5.0683,-5.0683,-5.0683,-5.0683,-5.0683,-5.0683,-5.0683,-5.0683,-5.0683,-5.0683,-5.0683,-5.0683,-5.0683,-5.0683,-5.0683,-5.0673,-5.0643,-5.0572,-5.0446,-5.0325,-5.0163,-4.9879,-4.9644,-4.9415,-4.9225,-4.9042,-4.889,-4.8768,-4.8679,-4.855,-4.8457,-4.8382,-4.8325,-6.1699,-6.1699,-6.1699,-6.1699,-6.1699,-6.1699,-6.1328,-6.0664,-5.9668,-5.8867,-5.8125,-5.709,-5.6621,-5.6621,-5.6621,-5.6621,-5.6621,-5.6621,-5.6621,-5.6621,-5.6621,-5.6621,-5.6621,-5.6621,-5.6621,-5.6621,-5.6621,-5.6621,-5.6621,-5.6621,-5.6621,-5.6621,-5.6621,-5.6621,-5.6621,-5.6621,-5.662,-5.662,-5.6621,-5.6621,-5.662,-5.6618,-5.6618,-5.6597,-5.6574,-5.6571,-5.6591,-5.6588,-5.6536,-5.6478,-5.6465,-5.6487,-5.6359,-5.5649,-5.4801,-5.388,-5.2989,-5.2092,-5.1334,-5.1056,-5.1016,-5.0981,-5.0963,-5.0937,-5.0891,-5.0855,-5.0829,-5.0784,-5.0766,-5.0748,-5.0711,-5.0702,-5.0702,-5.0693,-5.0693,-5.0693,-5.0693,-5.0683,-5.0683,-5.0683,-5.0683,-5.0683,-5.0683,-5.0683,-5.0683,-5.0683,-5.0683,-5.0683,-5.0683,-5.0683,-5.0683,-5.0683,-5.0683,-5.0683,-5.0683,-5.0683,-5.0683,-5.0683,-5.0663,-5.0643,-5.0511,-5.0401,-5.0219,-4.9973,-4.9843,-4.9659,-4.9457,-4.9283,-4.9125,-4.8942,-4.8821,-4.8715,-4.8587,-4.8475,-4.8401,-6.1699,-6.1699,-6.1699,-6.1699,-6.1699,-6.1699,-6.1211,-6.0351,-5.9531,-5.8711,-5.7851,-5.6992,-5.6621,-5.6621,-5.6621,-5.6621,-5.6621,-5.6621,-5.6621,-5.6621,-5.6621,-5.6621,-5.6621,-5.6621,-5.6621,-5.6621,-5.6621,-5.6621,-5.6621,-5.6621,-5.6621,-5.6621,-5.6621,-5.6621,-5.6621,-5.6621,-5.6621,-5.6621,-5.6621,-5.6621,-5.6621,-5.6621,-5.662,-5.662,-5.6619,-5.6618,-5.6618,-5.6618,-5.6593,-5.6536,-5.6506,-5.6497,-5.6461,-5.6059,-5.5333,-5.4453,-5.3587,-5.2703,-5.1867,-5.1397,-5.113,-5.1081,-5.105,-5.1035,-5.0978,-5.0948,-5.0925,-5.0893,-5.0852,-5.081,-5.0784,-5.0766,-5.073,-5.0692,-5.0693,-5.0693,-5.0693,-5.0683,-5.0683,-5.0683,-5.0683,-5.0683,-5.0683,-5.0683,-5.0683,-5.0683,-5.0683,-5.0683,-5.0683,-5.0683,-5.0683,-5.0683,-5.0683,-5.0683,-5.0683,-5.0683,-5.0683,-5.0683,-5.0683,-5.0663,-5.0593,-5.0468,-5.0333,-5.0145,-5.0018,-4.9871,-4.9693,-4.9514,-4.9349,-4.9174,-4.9044,-4.8874,-4.8733,-4.8569,-4.8513,-6.1699,-6.1699,-6.1699,-6.1699,-6.168,-6.1601,-6.0976,-6.0195,-5.9336,-5.8515,-5.7656,-5.6914,-5.6621,-5.6621,-5.6621,-5.6621,-5.6621,-5.6621,-5.6621,-5.6621,-5.6621,-5.6621,-5.6621,-5.6621,-5.6621,-5.6621,-5.6621,-5.6621,-5.6621,-5.6621,-5.6621,-5.6621,-5.6621,-5.6621,-5.6621,-5.6621,-5.6621,-5.6621,-5.6621,-5.6621,-5.6621,-5.6621,-5.6621,-5.6621,-5.6621,-5.6621,-5.6621,-5.6621,-5.66,-5.6614,-5.6529,-5.6506,-5.6502,-5.6484,-5.6023,-5.5171,-5.4258,-5.3403,-5.2618,-5.1685,-5.1205,-5.1196,-5.1155,-5.1105,-5.1094,-5.1043,-5.103,-5.0988,-5.0933,-5.0921,-5.0872,-5.0846,-5.0784,-5.0739,-5.071,-5.0702,-5.0693,-5.0693,-5.0683,-5.0683,-5.0683,-5.0683,-5.0683,-5.0683,-5.0683,-5.0683,-5.0683,-5.0683,-5.0683,-5.0683,-5.0683,-5.0683,-5.0683,-5.0683,-5.0683,-5.0683,-5.0683,-5.0683,-5.0683,-5.0673,-5.0633,-5.0521,-5.0435,-5.0321,-5.0182,-5.007,-4.9946,-4.9764,-4.9562,-4.9365,-4.9206,-4.9044,-4.8891,-4.8733,-4.8624,-6.1699,-6.1699,-6.1699,-6.1699,-6.1582,-6.0976,-6.0215,-5.9394,-5.8574,-5.7754,-5.6992,-5.668,-5.6621,-5.6621,-5.6621,-5.6621,-5.6621,-5.6621,-5.6621,-5.6621,-5.6621,-5.6621,-5.6621,-5.6621,-5.6621,-5.6621,-5.6621,-5.6621,-5.6621,-5.6621,-5.6621,-5.6621,-5.6621,-5.6621,-5.6621,-5.6621,-5.6621,-5.6621,-5.6621,-5.6621,-5.6621,-5.6621,-5.6621,-5.6621,-5.6621,-5.6621,-5.6621,-5.6621,-5.6621,-5.6601,-5.6579,-5.6556,-5.6572,-5.6568,-5.6192,-5.5384,-5.4502,-5.3594,-5.2735,-5.1892,-5.1268,-5.1273,-5.1269,-5.1234,-5.119,-5.1161,-5.1128,-5.1101,-5.1076,-5.1015,-5.0933,-5.0897,-5.0844,-5.081,-5.0764,-5.0747,-5.0711,-5.0693,-5.0693,-5.0693,-5.0683,-5.0683,-5.0683,-5.0683,-5.0683,-5.0683,-5.0683,-5.0683,-5.0683,-5.0683,-5.0683,-5.0683,-5.0683,-5.0683,-5.0683,-5.0683,-5.0683,-5.0683,-5.0683,-5.0683,-5.0643,-5.0613,-5.0511,-5.0435,-5.0337,-5.0243,-5.0114,-4.9973,-4.9764,-4.9558,-4.9362,-4.9206,-4.9044,-4.8909,-4.875,-6.1699,-6.166,-6.125,-6.1074,-6.0957,-6.0195,-5.9375,-5.8613,-5.8125,-5.7402,-5.6738,-5.6621,-5.6621,-5.6621,-5.6621,-5.6621,-5.6621,-5.6621,-5.6621,-5.6621,-5.6621,-5.6621,-5.6621,-5.6621,-5.6621,-5.6621,-5.6621,-5.6621,-5.6621,-5.6621,-5.6621,-5.6621,-5.6621,-5.6621,-5.6621,-5.6621,-5.6621,-5.6621,-5.6621,-5.6621,-5.6621,-5.6621,-5.6621,-5.6621,-5.6621,-5.6621,-5.6621,-5.6621,-5.6621,-5.6621,-5.6621,-5.6621,-5.6618,-5.6617,-5.6321,-5.5851,-5.4637,-5.3912,-5.3178,-5.2154,-5.1362,-5.1335,-5.1336,-5.131,-5.1265,-5.1249,-5.1243,-5.1206,-5.1164,-5.1087,-5.1002,-5.1,-5.0956,-5.0901,-5.0869,-5.0816,-5.0793,-5.0749,-5.0693,-5.0693,-5.0683,-5.0683,-5.0683,-5.0683,-5.0683,-5.0683,-5.0683,-5.0683,-5.0683,-5.0683,-5.0683,-5.0683,-5.0683,-5.0683,-5.0683,-5.0683,-5.0683,-5.0683,-5.0683,-5.0683,-5.0673,-5.0653,-5.0623,-5.0532,-5.0457,-5.0371,-5.0248,-5.0101,-4.9978,-4.9783,-4.9596,-4.9415,-4.9241,-4.9129,-4.896,-6.1426,-6.1269,-6.0527,-6.0215,-6.0078,-5.9336,-5.8613,-5.7988,-5.7754,-5.7226,-5.6719,-5.6621,-5.6621,-5.6621,-5.6621,-5.6621,-5.6621,-5.6621,-5.6621,-5.6621,-5.6621,-5.6621,-5.6621,-5.6621,-5.6621,-5.6621,-5.6621,-5.6621,-5.6621,-5.6621,-5.6621,-5.6621,-5.6621,-5.6621,-5.6621,-5.6621,-5.6621,-5.6621,-5.6621,-5.6621,-5.6621,-5.6621,-5.6621,-5.6621,-5.6621,-5.6621,-5.6621,-5.6621,-5.6621,-5.6621,-5.6621,-5.6621,-5.6621,-5.6601,-5.6463,-5.6326,-5.4801,-5.3901,-5.3312,-5.2293,-5.1391,-5.1391,-5.1398,-5.1362,-5.1308,-5.1313,-5.1314,-5.1289,-5.1256,-5.1196,-5.1113,-5.1094,-5.1063,-5.1029,-5.0959,-5.0914,-5.0885,-5.081,-5.0748,-5.0693,-5.0693,-5.0693,-5.0693,-5.0683,-5.0683,-5.0683,-5.0693,-5.0683,-5.0683,-5.0683,-5.0683,-5.0683,-5.0683,-5.0683,-5.0683,-5.0683,-5.0683,-5.0683,-5.0683,-5.0683,-5.0683,-5.0673,-5.0653,-5.0633,-5.0562,-5.0478,-5.0382,-5.0248,-5.0114,-4.9978,-4.9816,-4.9611,-4.9461,-4.934,-4.9179,-6.0214,-5.9609,-5.9453,-5.9414,-5.9277,-5.8476,-5.8027,-5.7793,-5.7148,-5.6777,-5.664,-5.6621,-5.6621,-5.6621,-5.6621,-5.6621,-5.6621,-5.6621,-5.6621,-5.6621,-5.6621,-5.6621,-5.6621,-5.6621,-5.6621,-5.6621,-5.6621,-5.6621,-5.6621,-5.6621,-5.6621,-5.6621,-5.6621,-5.6621,-5.6621,-5.6621,-5.6621,-5.6621,-5.6621,-5.6621,-5.6621,-5.6621,-5.6621,-5.6621,-5.6621,-5.6621,-5.6621,-5.6621,-5.6621,-5.6621,-5.6621,-5.6621,-5.6582,-5.6582,-5.6191,-5.5547,-5.4648,-5.3768,-5.3006,-5.2048,-5.1479,-5.1398,-5.1394,-5.1391,-5.1363,-5.1373,-5.1379,-5.1364,-5.1336,-5.1273,-5.1181,-5.1171,-5.1145,-5.1093,-5.1069,-5.1056,-5.0976,-5.0921,-5.0833,-5.0747,-5.072,-5.0702,-5.0712,-5.0693,-5.0683,-5.0702,-5.0693,-5.0693,-5.0683,-5.0683,-5.0683,-5.0683,-5.0683,-5.0683,-5.0683,-5.0683,-5.0683,-5.0683,-5.0683,-5.0683,-5.0683,-5.0683,-5.0673,-5.0653,-5.0633,-5.0582,-5.0478,-5.0382,-5.0278,-5.0133,-4.9992,-4.983,-4.9702,-4.9555,-4.9418,-5.9549,-5.9159,-5.873,-5.8535,-5.8379,-5.7598,-5.7226,-5.7168,-5.6777,-5.6621,-5.6621,-5.6621,-5.6621,-5.6621,-5.6621,-5.6621,-5.6621,-5.6621,-5.6621,-5.6621,-5.6621,-5.6621,-5.6621,-5.6621,-5.6621,-5.6621,-5.6621,-5.6621,-5.6621,-5.6621,-5.6621,-5.6621,-5.6621,-5.6621,-5.6621,-5.6621,-5.6621,-5.6621,-5.6621,-5.6621,-5.6621,-5.6621,-5.6621,-5.6621,-5.6621,-5.6621,-5.6621,-5.6621,-5.6621,-5.6621,-5.6621,-5.6621,-5.6484,-5.6133,-5.5742,-5.5215,-5.4453,-5.3613,-5.2754,-5.1914,-5.1425,-5.1385,-5.1384,-5.1402,-5.1398,-5.1393,-5.1385,-5.1394,-5.1401,-5.1333,-5.125,-5.1253,-5.1233,-5.1196,-5.118,-5.1147,-5.1113,-5.105,-5.0966,-5.0855,-5.0808,-5.0784,-5.0739,-5.072,-5.0692,-5.0693,-5.0683,-5.0693,-5.0693,-5.0683,-5.0683,-5.0683,-5.0683,-5.0683,-5.0683,-5.0683,-5.0683,-5.0683,-5.0683,-5.0683,-5.0683,-5.0683,-5.0683,-5.0683,-5.0653,-5.0653,-5.0593,-5.05,-5.0401,-5.029,-5.0182,-5.0057,-4.9898,-4.9759,-4.9644,-5.8824,-5.863,-5.7929,-5.7636,-5.7519,-5.6933,-5.664,-5.6621,-5.6621,-5.6621,-5.6621,-5.6621,-5.6621,-5.6621,-5.6621,-5.6621,-5.6621,-5.6621,-5.6621,-5.6621,-5.6621,-5.6621,-5.6621,-5.6621,-5.6621,-5.6621,-5.6621,-5.6621,-5.6621,-5.6621,-5.6621,-5.6621,-5.6621,-5.6621,-5.6621,-5.6621,-5.6621,-5.6621,-5.6621,-5.6621,-5.6621,-5.6621,-5.6621,-5.6621,-5.6621,-5.6621,-5.6621,-5.6621,-5.6621,-5.6621,-5.6621,-5.6601,-5.6465,-5.5781,-5.5234,-5.4941,-5.4219,-5.3359,-5.25,-5.1875,-5.1387,-5.1387,-5.1387,-5.1386,-5.1385,-5.1402,-5.1397,-5.1393,-5.1385,-5.1392,-5.133,-5.1336,-5.132,-5.1316,-5.1261,-5.121,-5.1191,-5.115,-5.1087,-5.1004,-5.0921,-5.0869,-5.0836,-5.0766,-5.0739,-5.072,-5.073,-5.0683,-5.0702,-5.0693,-5.0683,-5.0683,-5.0683,-5.0683,-5.0683,-5.0683,-5.0683,-5.0683,-5.0683,-5.0683,-5.0683,-5.0683,-5.0683,-5.0683,-5.0683,-5.0663,-5.0633,-5.0603,-5.05,-5.0424,-5.0348,-5.0255,-5.0089,-4.9959,-4.9852,-5.7539,-5.6906,-5.6813,-5.6756,-5.6776,-5.666,-5.6621,-5.6621,-5.6621,-5.6621,-5.6621,-5.6621,-5.6621,-5.6621,-5.6621,-5.6621,-5.6621,-5.6621,-5.6621,-5.6621,-5.6621,-5.6621,-5.6621,-5.6621,-5.6621,-5.6621,-5.6621,-5.6621,-5.6621,-5.6621,-5.6621,-5.6621,-5.6621,-5.6621,-5.6621,-5.6621,-5.6621,-5.6621,-5.6621,-5.6621,-5.6621,-5.6621,-5.6621,-5.6621,-5.6621,-5.6621,-5.6621,-5.6621,-5.6621,-5.6621,-5.6621,-5.6621,-5.6465,-5.5781,-5.4922,-5.416,-5.334,-5.248,-5.1797,-5.1504,-5.1387,-5.1387,-5.1387,-5.1387,-5.1386,-5.1386,-5.1402,-5.1398,-5.1396,-5.1393,-5.1384,-5.1375,-5.1384,-5.1369,-5.1327,-5.1287,-5.1273,-5.1237,-5.1167,-5.1145,-5.1063,-5.0981,-5.0925,-5.0852,-5.0773,-5.0775,-5.0748,-5.071,-5.0692,-5.0683,-5.0683,-5.0683,-5.0683,-5.0683,-5.0683,-5.0683,-5.0683,-5.0683,-5.0683,-5.0683,-5.0683,-5.0683,-5.0683,-5.0683,-5.0683,-5.0683,-5.0663,-5.0633,-5.0584,-5.0532,-5.0457,-5.039,-5.029,-5.0163,-5.005,-5.6812,-5.6561,-5.6549,-5.6576,-5.6619,-5.662,-5.6621,-5.6621,-5.6621,-5.6621,-5.6621,-5.6621,-5.6621,-5.6621,-5.6621,-5.6621,-5.6621,-5.6621,-5.6621,-5.6621,-5.6621,-5.6621,-5.6621,-5.6621,-5.6621,-5.6621,-5.6621,-5.6621,-5.6621,-5.6621,-5.6621,-5.6621,-5.6621,-5.6621,-5.6621,-5.6621,-5.6621,-5.6621,-5.6621,-5.6621,-5.6621,-5.6621,-5.6621,-5.6621,-5.6621,-5.6621,-5.6621,-5.6621,-5.6621,-5.6621,-5.6621,-5.6621,-5.625,-5.541,-5.4336,-5.4004,-5.2695,-5.1855,-5.1465,-5.1406,-5.1387,-5.1387,-5.1387,-5.1387,-5.1387,-5.1387,-5.1387,-5.1386,-5.1384,-5.1402,-5.1399,-5.1394,-5.139,-5.1382,-5.1369,-5.136,-5.1325,-5.1278,-5.1242,-5.1233,-5.1211,-5.1111,-5.1037,-5.0952,-5.0871,-5.085,-5.0799,-5.0757,-5.072,-5.0693,-5.0693,-5.0683,-5.0683,-5.0683,-5.0683,-5.0683,-5.0683,-5.0683,-5.0683,-5.0683,-5.0683,-5.0683,-5.0683,-5.0683,-5.0683,-5.0683,-5.0683,-5.0673,-5.0643,-5.0603,-5.0562,-5.0478,-5.0404,-5.0337,-5.0255,-5.6405,-5.6442,-5.6491,-5.6528,-5.6575,-5.6578,-5.6619,-5.6621,-5.6621,-5.6621,-5.6621,-5.6621,-5.6621,-5.6621,-5.6621,-5.6621,-5.6621,-5.6621,-5.6621,-5.6621,-5.6621,-5.6621,-5.6621,-5.6621,-5.6621,-5.6621,-5.6621,-5.6621,-5.6621,-5.6621,-5.6621,-5.6621,-5.6621,-5.6621,-5.6621,-5.6621,-5.6621,-5.6621,-5.6621,-5.6621,-5.6621,-5.6621,-5.6621,-5.6621,-5.6621,-5.6621,-5.6621,-5.6621,-5.6621,-5.6621,-5.6621,-5.6621,-5.6387,-5.5098,-5.418,-5.3652,-5.25,-5.1543,-5.1406,-5.1387,-5.1387,-5.1387,-5.1387,-5.1387,-5.1387,-5.1387,-5.1387,-5.1387,-5.1386,-5.1386,-5.1385,-5.1402,-5.14,-5.1397,-5.1394,-5.1389,-5.1382,-5.1342,-5.1302,-5.1301,-5.1273,-5.1241,-5.1146,-5.1043,-5.099,-5.0952,-5.0882,-5.081,-5.0748,-5.0712,-5.0683,-5.0702,-5.0693,-5.0693,-5.0683,-5.0683,-5.0683,-5.0683,-5.0683,-5.0683,-5.0683,-5.0683,-5.0683,-5.0683,-5.0683,-5.0683,-5.0683,-5.0683,-5.0683,-5.0643,-5.0613,-5.0593,-5.0521,-5.0468,-5.0424,-5.6308,-5.632,-5.6436,-5.6489,-5.6513,-5.6588,-5.6596,-5.6599,-5.66,-5.662,-5.6621,-5.6621,-5.6621,-5.6621,-5.6621,-5.6621,-5.6621,-5.6621,-5.6621,-5.6621,-5.6621,-5.6621,-5.6621,-5.6621,-5.6621,-5.6621,-5.6621,-5.6621,-5.6621,-5.6621,-5.6621,-5.6621,-5.6621,-5.6621,-5.6621,-5.6621,-5.6621,-5.6621,-5.6621,-5.6621,-5.6621,-5.6621,-5.6621,-5.6621,-5.6621,-5.6621,-5.6621,-5.6621,-5.6621,-5.6621,-5.6621,-5.6621,-5.6308,-5.4922,-5.4101,-5.3633,-5.2363,-5.1523,-5.1387,-5.1387,-5.1387,-5.1387,-5.1387,-5.1387,-5.1387,-5.1387,-5.1387,-5.1387,-5.1387,-5.1387,-5.1387,-5.1386,-5.1385,-5.1384,-5.1402,-5.1399,-5.1395,-5.1391,-5.1361,-5.1369,-5.1333,-5.1307,-5.1257,-5.1162,-5.1099,-5.1043,-5.0921,-5.0852,-5.0784,-5.073,-5.0692,-5.0693,-5.0693,-5.0693,-5.0693,-5.0683,-5.0683,-5.0683,-5.0683,-5.0683,-5.0683,-5.0683,-5.0683,-5.0683,-5.0683,-5.0683,-5.0683,-5.0683,-5.0683,-5.0683,-5.0673,-5.0633,-5.0613,-5.0572,-5.0521,-5.6213,-5.6302,-5.6344,-5.6425,-5.6484,-5.653,-5.6545,-5.6553,-5.6597,-5.662,-5.6621,-5.6621,-5.6621,-5.6621,-5.6621,-5.6621,-5.6621,-5.6621,-5.6621,-5.6621,-5.6621,-5.6621,-5.6621,-5.6621,-5.6621,-5.6621,-5.6621,-5.6621,-5.6621,-5.6621,-5.6621,-5.6621,-5.6621,-5.6621,-5.6621,-5.6621,-5.6621,-5.6621,-5.6621,-5.6621,-5.6621,-5.6621,-5.6621,-5.6621,-5.6621,-5.6621,-5.6621,-5.6621,-5.6621,-5.6621,-5.6621,-5.6621,-5.6348,-5.4883,-5.4121,-5.3789,-5.2344,-5.1543,-5.1387,-5.1387,-5.1387,-5.1387,-5.1387,-5.1387,-5.1387,-5.1387,-5.1387,-5.1387,-5.1387,-5.1387,-5.1387,-5.1387,-5.1386,-5.1386,-5.1386,-5.1385,-5.1383,-5.1401,-5.1397,-5.1369,-5.138,-5.1369,-5.1327,-5.1281,-5.1228,-5.1153,-5.1023,-5.0901,-5.0816,-5.0756,-5.0739,-5.0692,-5.0693,-5.0693,-5.0693,-5.0693,-5.0693,-5.0683,-5.0683,-5.0683,-5.0683,-5.0683,-5.0683,-5.0683,-5.0683,-5.0683,-5.0683,-5.0683,-5.0683,-5.0683,-5.0683,-5.0673,-5.0653,-5.0633,-5.0613,-5.613,-5.6218,-5.6239,-5.6359,-5.6468,-5.65,-5.6482,-5.6501,-5.655,-5.6598,-5.6621,-5.6621,-5.6621,-5.6621,-5.6621,-5.6621,-5.6621,-5.6621,-5.6621,-5.6621,-5.6621,-5.662,-5.6621,-5.6621,-5.6621,-5.6621,-5.6621,-5.6621,-5.6621,-5.6621,-5.6621,-5.6621,-5.6621,-5.6621,-5.6621,-5.6621,-5.6621,-5.6621,-5.6621,-5.6621,-5.6621,-5.6621,-5.6621,-5.6621,-5.6621,-5.6621,-5.6621,-5.6621,-5.6621,-5.6621,-5.6621,-5.6621,-5.6015,-5.5176,-5.418,-5.3437,-5.2558,-5.1484,-5.1387,-5.1387,-5.1387,-5.1387,-5.1387,-5.1387,-5.1387,-5.1387,-5.1387,-5.1387,-5.1387,-5.1387,-5.1387,-5.1387,-5.1387,-5.1387,-5.1387,-5.1386,-5.1386,-5.1385,-5.1384,-5.1381,-5.1396,-5.1391,-5.1377,-5.1335,-5.1285,-5.1206,-5.1081,-5.0974,-5.0874,-5.0816,-5.0764,-5.0739,-5.0692,-5.0693,-5.0693,-5.0693,-5.0693,-5.0683,-5.0683,-5.0683,-5.0683,-5.0683,-5.0683,-5.0683,-5.0683,-5.0683,-5.0683,-5.0683,-5.0683,-5.0683,-5.0683,-5.0683,-5.0683,-5.0663,-5.0663,-5.6012,-5.6029,-5.6156,-5.6263,-5.6396,-5.6469,-5.6485,-5.6482,-5.6511,-5.6546,-5.6598,-5.6599,-5.662,-5.6621,-5.6621,-5.6621,-5.6619,-5.6619,-5.6618,-5.6615,-5.6616,-5.6617,-5.6618,-5.6619,-5.662,-5.6621,-5.6621,-5.6621,-5.6621,-5.6621,-5.6621,-5.6621,-5.6621,-5.6621,-5.6621,-5.6621,-5.6621,-5.6621,-5.6621,-5.6621,-5.6621,-5.6621,-5.6621,-5.6621,-5.6621,-5.6621,-5.6621,-5.6621,-5.6621,-5.6621,-5.6621,-5.6621,-5.6406,-5.5039,-5.4199,-5.3887,-5.2422,-5.1562,-5.1387,-5.1387,-5.1387,-5.1387,-5.1387,-5.1387,-5.1387,-5.1387,-5.1387,-5.1387,-5.1387,-5.1387,-5.1387,-5.1387,-5.1387,-5.1387,-5.1387,-5.1387,-5.1387,-5.1386,-5.1386,-5.1385,-5.1385,-5.1402,-5.1394,-5.1375,-5.1317,-5.1243,-5.1145,-5.105,-5.0966,-5.0874,-5.0816,-5.0782,-5.0729,-5.0702,-5.0702,-5.0702,-5.0693,-5.0693,-5.0683,-5.0683,-5.0683,-5.0683,-5.0683,-5.0683,-5.0683,-5.0683,-5.0683,-5.0683,-5.0683,-5.0683,-5.0683,-5.0683,-5.0683,-5.0683,-5.0683,-5.5885,-5.5949,-5.6026,-5.6129,-5.622,-5.6338,-5.6401,-5.6432,-5.6472,-5.6499,-5.6529,-5.6594,-5.6615,-5.6617,-5.6519,-5.6499,-5.6575,-5.6614,-5.6612,-5.6592,-5.661,-5.6613,-5.6614,-5.6595,-5.6615,-5.6617,-5.6617,-5.6597,-5.6621,-5.6597,-5.6597,-5.6621,-5.6598,-5.6621,-5.6621,-5.6621,-5.6621,-5.6621,-5.6621,-5.6621,-5.6621,-5.6621,-5.6621,-5.6621,-5.6621,-5.6621,-5.6621,-5.6621,-5.6621,-5.6621,-5.6621,-5.6621,-5.6465,-5.5273,-5.459,-5.4043,-5.2773,-5.1992,-5.1621,-5.1387,-5.1387,-5.1387,-5.1387,-5.1387,-5.1387,-5.1387,-5.1387,-5.1387,-5.1387,-5.1387,-5.1387,-5.1387,-5.1387,-5.1387,-5.1387,-5.1387,-5.1387,-5.1387,-5.1386,-5.1386,-5.1386,-5.1386,-5.1402,-5.1391,-5.1355,-5.1323,-5.1243,-5.1164,-5.1069,-5.0959,-5.0874,-5.0841,-5.0808,-5.0738,-5.072,-5.073,-5.0702,-5.0683,-5.0693,-5.0683,-5.0683,-5.0683,-5.0683,-5.0683,-5.0683,-5.0683,-5.0683,-5.0683,-5.0683,-5.0683,-5.0683,-5.0683,-5.0683,-5.0683,-5.0683,-5.5383,-5.5383,-5.5168,-5.5131,-5.5304,-5.5993,-5.6227,-5.6039,-5.602,-5.5892,-5.5634,-5.5624,-5.5627,-5.5648,-5.5708,-5.5978,-5.6074,-5.6113,-5.6479,-5.6479,-5.6556,-5.6556,-5.6559,-5.6563,-5.6563,-5.6584,-5.6566,-5.6566,-5.6566,-5.6566,-5.6566,-5.6566,-5.6585,-5.657,-5.6582,-5.6582,-5.6621,-5.6621,-5.6621,-5.6621,-5.6621,-5.6621,-5.6621,-5.6621,-5.6621,-5.6621,-5.6621,-5.6601,-5.6621,-5.6621,-5.6621,-5.6621,-5.6348,-5.5781,-5.5058,-5.4355,-5.332,-5.2383,-5.1641,-5.1387,-5.1387,-5.1387,-5.1387,-5.1387,-5.1387,-5.1387,-5.1387,-5.1387,-5.1387,-5.1387,-5.1387,-5.1387,-5.1387,-5.1387,-5.1387,-5.1387,-5.1387,-5.1387,-5.1387,-5.1387,-5.1387,-5.1387,-5.1386,-5.1399,-5.1384,-5.1352,-5.133,-5.1248,-5.1169,-5.1043,-5.0947,-5.0917,-5.089,-5.0844,-5.0793,-5.0757,-5.0749,-5.0702,-5.0693,-5.0712,-5.0683,-5.0683,-5.0683,-5.0693,-5.0693,-5.0693,-5.0693,-5.0683,-5.0683,-5.0683,-5.0683,-5.0683,-5.0683,-5.0683,-5.0683,-5.4477,-5.4371,-5.3706,-5.3518,-5.3823,-5.5331,-5.5691,-5.515,-5.5135,-5.472,-5.3989,-5.4125,-5.427,-5.4144,-5.4108,-5.4548,-5.5065,-5.5162,-5.5661,-5.614,-5.6199,-5.6322,-5.6464,-5.6506,-5.6511,-5.6499,-5.6502,-5.6497,-5.6504,-5.6499,-5.6499,-5.6502,-5.6499,-5.6504,-5.6511,-5.6538,-5.6567,-5.6571,-5.6592,-5.6572,-5.6572,-5.6592,-5.6592,-5.6593,-5.6594,-5.6596,-5.6597,-5.6579,-5.66,-5.6621,-5.6621,-5.6621,-5.6348,-5.5781,-5.5508,-5.4844,-5.3613,-5.2461,-5.1758,-5.1621,-5.1387,-5.1387,-5.1387,-5.1387,-5.1387,-5.1387,-5.1387,-5.1387,-5.1387,-5.1387,-5.1387,-5.1387,-5.1387,-5.1387,-5.1387,-5.1387,-5.1387,-5.1387,-5.1387,-5.1387,-5.1387,-5.1387,-5.1387,-5.1402,-5.1396,-5.1385,-5.1357,-5.1323,-5.1245,-5.115,-5.1049,-5.1024,-5.0969,-5.0933,-5.0885,-5.0833,-5.0812,-5.0776,-5.073,-5.074,-5.0712,-5.0702,-5.0683,-5.0693,-5.0693,-5.0693,-5.0693,-5.0683,-5.0683,-5.0683,-5.0683,-5.0683,-5.0683,-5.0683,-5.0683,-5.3569,-5.356,-5.3398,-5.335,-5.3454,-5.4044,-5.4206,-5.4136,-5.4164,-5.3992,-5.3841,-5.3876,-5.3712,-5.393,-5.3933,-5.4063,-5.4195,-5.439,-5.4835,-5.5237,-5.5599,-5.5942,-5.62,-5.6395,-5.6398,-5.6422,-5.6445,-5.6425,-5.6441,-5.6422,-5.6422,-5.6422,-5.6402,-5.6422,-5.6448,-5.6455,-5.6486,-5.6506,-5.6511,-5.6534,-5.6534,-5.6534,-5.6534,-5.6534,-5.654,-5.6545,-5.6528,-5.6572,-5.6595,-5.6597,-5.6597,-5.6618,-5.6561,-5.6327,-5.6074,-5.5156,-5.3789,-5.2519,-5.2266,-5.1758,-5.1406,-5.1426,-5.1387,-5.1387,-5.1387,-5.1387,-5.1387,-5.1387,-5.1387,-5.1387,-5.1387,-5.1387,-5.1387,-5.1387,-5.1387,-5.1387,-5.1387,-5.1387,-5.1387,-5.1387,-5.1387,-5.1387,-5.1387,-5.1386,-5.1402,-5.1398,-5.139,-5.1349,-5.1313,-5.1222,-5.1157,-5.1114,-5.1069,-5.1023,-5.0966,-5.091,-5.0885,-5.0855,-5.081,-5.0784,-5.0776,-5.0758,-5.0711,-5.0692,-5.0702,-5.0702,-5.0693,-5.0683,-5.0683,-5.0683,-5.0683,-5.0683,-5.0683,-5.0683,-5.0683,-5.2683,-5.2645,-5.2377,-5.2262,-5.228,-5.24,-5.2504,-5.2646,-5.3054,-5.3086,-5.2762,-5.2743,-5.2787,-5.2709,-5.2709,-5.2923,-5.3293,-5.3351,-5.3755,-5.4436,-5.4869,-5.5317,-5.5745,-5.6154,-5.631,-5.6329,-5.6329,-5.631,-5.6329,-5.6329,-5.631,-5.631,-5.631,-5.631,-5.631,-5.6315,-5.632,-5.6387,-5.6416,-5.6452,-5.6455,-5.6455,-5.6475,-5.6458,-5.6472,-5.6477,-5.6484,-5.6554,-5.6563,-5.6549,-5.657,-5.6592,-5.6596,-5.6558,-5.6169,-5.5312,-5.459,-5.3418,-5.2773,-5.2246,-5.1816,-5.1523,-5.1426,-5.1387,-5.1387,-5.1387,-5.1387,-5.1387,-5.1387,-5.1387,-5.1387,-5.1387,-5.1387,-5.1387,-5.1387,-5.1387,-5.1387,-5.1387,-5.1387,-5.1387,-5.1387,-5.1387,-5.1387,-5.1387,-5.1386,-5.1384,-5.14,-5.1374,-5.1351,-5.1307,-5.1246,-5.1213,-5.1171,-5.1125,-5.1063,-5.101,-5.0981,-5.0941,-5.0885,-5.0841,-5.0836,-5.0801,-5.0766,-5.0739,-5.0711,-5.0721,-5.0702,-5.0693,-5.0683,-5.0693,-5.0702,-5.0693,-5.0693,-5.0683,-5.0683,-5.1808,-5.1769,-5.101,-5.0827,-5.074,-5.0891,-5.0943,-5.0985,-5.1906,-5.1871,-5.1301,-5.1152,-5.1319,-5.1519,-5.1538,-5.1824,-5.2154,-5.2329,-5.2769,-5.3605,-5.4336,-5.4828,-5.5256,-5.5754,-5.6104,-5.6181,-5.6181,-5.6181,-5.6175,-5.6175,-5.6175,-5.6201,-5.6201,-5.6181,-5.6181,-5.6194,-5.6194,-5.6219,-5.6289,-5.633,-5.6372,-5.6377,-5.6377,-5.6381,-5.6418,-5.6457,-5.6475,-5.6494,-5.6494,-5.6491,-5.6499,-5.654,-5.6566,-5.6572,-5.6068,-5.5659,-5.5153,-5.4413,-5.3554,-5.3008,-5.2363,-5.1914,-5.1504,-5.1504,-5.1523,-5.1426,-5.1387,-5.1387,-5.1387,-5.1387,-5.1387,-5.1387,-5.1387,-5.1387,-5.1387,-5.1387,-5.1387,-5.1387,-5.1387,-5.1387,-5.1387,-5.1387,-5.1387,-5.1387,-5.1387,-5.1386,-5.1385,-5.1383,-5.1376,-5.1349,-5.1327,-5.1281,-5.1238,-5.1205,-5.1176,-5.1134,-5.1069,-5.1037,-5.0974,-5.0937,-5.0941,-5.0885,-5.0819,-5.0793,-5.0794,-5.0748,-5.0749,-5.073,-5.0731,-5.0731,-5.0731,-5.0702,-5.0693,-5.0702,-5.0683,-5.0991,-5.0971,-5.0789,-5.0702,-5.0693,-5.072,-5.0739,-5.0776,-5.1037,-5.1154,-5.1041,-5.1069,-5.1082,-5.1075,-5.1075,-5.1282,-5.1319,-5.1552,-5.1886,-5.2615,-5.346,-5.4204,-5.4797,-5.5475,-5.5932,-5.6032,-5.6051,-5.6067,-5.6048,-5.604,-5.6059,-5.6059,-5.6059,-5.6048,-5.6067,-5.6067,-5.6067,-5.6075,-5.6102,-5.6168,-5.6245,-5.6257,-5.6263,-5.6281,-5.6328,-5.6339,-5.6363,-5.6409,-5.6457,-5.6498,-5.6482,-5.6497,-5.6519,-5.6516,-5.6427,-5.6178,-5.5653,-5.5053,-5.4548,-5.3905,-5.3261,-5.2676,-5.2266,-5.1914,-5.168,-5.1484,-5.1387,-5.1387,-5.1387,-5.1387,-5.1387,-5.1387,-5.1387,-5.1387,-5.1387,-5.1387,-5.1387,-5.1387,-5.1387,-5.1387,-5.1387,-5.1387,-5.1387,-5.1387,-5.1387,-5.1387,-5.1387,-5.1386,-5.1385,-5.1377,-5.1364,-5.1347,-5.13,-5.1268,-5.1261,-5.1228,-5.1176,-5.1147,-5.1094,-5.1063,-5.1042,-5.0974,-5.0921,-5.0897,-5.0874,-5.0846,-5.081,-5.0784,-5.0785,-5.0776,-5.0749,-5.073,-5.0712,-5.0712,-5.0712,-5.0683,-5.0683,-5.0683,-5.0683,-5.0693,-5.0702,-5.0692,-5.0721,-5.0748,-5.081,-5.0877,-5.0937,-5.096,-5.0979,-5.0979,-5.096,-5.0909,-5.0929,-5.1191,-5.1747,-5.2539,-5.3312,-5.4143,-5.5023,-5.5592,-5.5815,-5.5922,-5.5969,-5.5941,-5.5969,-5.5969,-5.596,-5.5941,-5.5941,-5.5941,-5.5941,-5.5941,-5.5941,-5.5941,-5.6012,-5.6099,-5.6129,-5.6158,-5.6186,-5.622,-5.6239,-5.6263,-5.6297,-5.6334,-5.6411,-5.6433,-5.6453,-5.6478,-5.6497,-5.6492,-5.6387,-5.6085,-5.5667,-5.5303,-5.4818,-5.4175,-5.3572,-5.2812,-5.2363,-5.2109,-5.1894,-5.1426,-5.1387,-5.1387,-5.1387,-5.1387,-5.1387,-5.1387,-5.1387,-5.1387,-5.1387,-5.1387,-5.1387,-5.1387,-5.1387,-5.1387,-5.1387,-5.1387,-5.1387,-5.1387,-5.1387,-5.1387,-5.1387,-5.1387,-5.1387,-5.1402,-5.1376,-5.1338,-5.134,-5.1341,-5.1294,-5.1238,-5.1219,-5.1201,-5.1147,-5.1101,-5.1069,-5.1023,-5.1,-5.0975,-5.0945,-5.0909,-5.0877,-5.0855,-5.0838,-5.0784,-5.0738,-5.0748,-5.0748,-5.0749,-5.0683,-5.0683,-5.0683,-5.0683,-5.0683,-5.0693,-5.0693,-5.0693,-5.0692,-5.0692,-5.073,-5.0794,-5.0803,-5.0821,-5.0821,-5.0793,-5.0793,-5.081,-5.0859,-5.1092,-5.1778,-5.2703,-5.3532,-5.4246,-5.5075,-5.5654,-5.5837,-5.5856,-5.5856,-5.5885,-5.5866,-5.5885,-5.5875,-5.5875,-5.5875,-5.5856,-5.5856,-5.5856,-5.5866,-5.5856,-5.5923,-5.5996,-5.6048,-5.6098,-5.6126,-5.6144,-5.6158,-5.62,-5.6207,-5.6261,-5.6349,-5.6378,-5.6396,-5.6437,-5.6476,-5.6416,-5.6425,-5.6033,-5.5695,-5.5526,-5.4906,-5.4246,-5.3406,-5.2939,-5.2763,-5.2259,-5.1793,-5.1562,-5.1562,-5.1406,-5.1406,-5.1387,-5.1387,-5.1387,-5.1387,-5.1387,-5.1387,-5.1387,-5.1387,-5.1387,-5.1387,-5.1387,-5.1387,-5.1387,-5.1387,-5.1387,-5.1387,-5.1387,-5.1387,-5.1387,-5.1386,-5.1384,-5.1379,-5.137,-5.1398,-5.1362,-5.1297,-5.1294,-5.1257,-5.1201,-5.115,-5.1164,-5.1142,-5.1101,-5.1069,-5.1043,-5.1007,-5.0971,-5.0933,-5.0909,-5.0877,-5.0841,-5.0825,-5.0844,-5.0827,-5.0683,-5.0683,-5.0683,-5.0683,-5.0683,-5.0683,-5.0683,-5.0693,-5.0702,-5.0683,-5.0693,-5.0721,-5.0759,-5.0821,-5.0821,-5.0784,-5.0739,-5.0739,-5.073,-5.0856,-5.1462,-5.2338,-5.332,-5.4293,-5.4975,-5.5457,-5.5756,-5.5745,-5.5785,-5.5775,-5.5745,-5.5745,-5.5745,-5.5745,-5.5745,-5.5745,-5.5756,-5.5756,-5.5756,-5.5756,-5.5796,-5.5856,-5.5924,-5.5951,-5.5959,-5.5938,-5.5973,-5.6059,-5.6114,-5.6153,-5.622,-5.6263,-5.6311,-5.6333,-5.6364,-5.6407,-5.643,-5.6358,-5.6085,-5.6062,-5.5562,-5.5081,-5.442,-5.4151,-5.3703,-5.2947,-5.2525,-5.22,-5.2031,-5.1562,-5.1465,-5.1406,-5.1387,-5.1387,-5.1387,-5.1387,-5.1387,-5.1387,-5.1387,-5.1387,-5.1387,-5.1387,-5.1387,-5.1387,-5.1387,-5.1387,-5.1387,-5.1387,-5.1387,-5.1387,-5.1387,-5.1387,-5.1387,-5.1384,-5.1396,-5.139,-5.1355,-5.134,-5.1322,-5.128,-5.1249,-5.128,-5.1258,-5.1181,-5.1161,-5.1139,-5.1093,-5.1082,-5.1063,-5.1023,-5.0993,-5.0963,-5.0929,-5.0921,-5.0914]},{"header":{"parameterUnit":"m.s-1","parameterCategory":1,"la1":31.0,"la2":29.5877,"lo1":-88.7671,"lo2":-86.6584,"dy":0.0162,"dx":0.0185,"nx":115,"ny":88,"refTime":"2023-06-28T00:00:00:Z","depth":0,"parameterNumber":3,"parameterNumberName":"V-component_of_WINDS"},"data":[0.0,0.0,0.0,0.0,0.0,0.0,0.0,0.0,0.0,0.0,0.0,0.0,0.0,0.0,0.0,0.0,0.0,0.0,0.0,0.0,0.0,0.0,0.0,0.0,0.0,0.0,0.0,0.0,0.0,0.0,0.0,0.0,0.0,0.0,0.0,0.0,0.0,0.0,0.0,0.0,0.0,0.0,0.0,0.0,0.0,0.0,0.0,0.0,0.0,0.0,0.0,0.0,0.0,0.0,0.0,0.0,0.0,0.0,0.0,0.0,0.0,0.0,0.0,0.0,0.0,0.0,0.0,0.0,0.0,0.0,0.0,0.0,0.0,0.0,0.0,0.0,0.0,0.0,0.0,0.0,0.0,0.0,0.0,0.0,0.0,0.0,0.0,0.0,0.0,0.0,0.0,0.0,0.0,0.0,0.0,0.0,0.0,0.0,0.0,0.0,0.0,0.0,0.0,0.0,0.0,0.0,0.0,0.0,0.0,0.0,0.0,0.0,0.0,0.0,0.0,0.0,0.0,0.0,0.0,0.0,0.0,0.0,0.0,0.0,0.0,0.0,0.0,0.0,0.0,0.0,0.0,0.0,0.0,0.0,0.0,0.0,0.0,0.0,0.0,0.0,0.0,0.0,0.0,0.0,0.0,0.0,0.0,0.0,0.0,0.0,0.0,0.0,0.0,0.0,0.0,0.0,0.0,0.0,0.0,0.0,0.0,0.0,0.0,0.0,0.0,0.0,0.0,0.0,0.0,0.0,0.0,0.0,0.0,0.0,0.0,0.0,0.0,0.0,0.0,0.0,0.0,0.0,0.0,0.0,0.0,0.0,0.0,0.0,0.0,0.0,0.0,0.0,0.0,0.0,0.0,0.0,0.0,0.0,0.0,0.0,0.0,0.0,0.0,0.0,0.0,0.0,0.0,0.0,0.0,0.0,0.0,0.0,0.0,0.0,0.0,0.0,0.0,0.0,0.0,0.0,0.0,0.0,0.0,0.0,0.0,0.0,0.0,0.0,0.0,0.0,0.0,0.0,0.0,0.0,0.0,0.0,0.0,0.0,0.0,0.0,0.0,0.0,0.0,0.0,0.0,0.0,0.0,0.0,0.0,0.0,0.0,0.0,0.0,0.0,0.0,0.0,0.0,0.0,0.0,0.0,0.0,0.0,0.0,0.0,0.0,0.0,0.0,0.0,0.0,0.0,0.0,0.0,0.0,0.0,0.0,0.0,0.0,0.0,0.0,0.0,0.0,0.0,0.0,0.0,0.0,0.0,0.0,0.0,0.0,0.0,0.0,0.0,0.0,0.0,0.0,0.0,0.0,0.0,0.0,0.0,0.0,0.0,0.0,0.0,0.0,0.0,0.0,0.0,0.0,0.0,0.0,0.0,0.0,0.0,0.0,0.0,0.0,0.0,0.0,0.0,0.0,0.0,0.0,0.0,0.0,0.0,0.0,0.0,0.0,0.0,0.0,0.0,0.0,0.0,0.0,0.0,0.0,0.0,0.0,0.0,0.0,0.0,0.0,0.0,0.0,0.0,0.0,0.0,0.0,0.0,0.0,0.0,0.0,0.0,0.0,0.0,0.0,0.0,0.0,0.0,0.0,0.0,0.0,0.0,0.0,0.0,0.0,0.0,0.0,0.0,0.0,0.0,0.0,0.0,0.0,0.0,0.0,0.0,0.0,0.0,0.0,0.0,0.0,0.0,0.0,0.0,0.0,0.0,0.0,0.0,0.0,0.0,0.0,0.0,0.0,0.0,0.0,0.0,0.0,0.0,0.0,0.0,0.0,0.0,0.0,0.0,0.0,0.0,0.0,0.0,0.0,0.0,0.0,0.0,0.0,0.0,0.0,0.0,0.0,0.0,0.0,0.0,0.0,0.0,0.0,0.0,0.0,0.0,0.0,0.0,0.0,0.0,0.0,0.0,0.0,0.0,0.0,0.0,0.0,0.0,0.0,0.0,0.0,0.0,0.0,0.0,0.0,0.0,0.0,0.0,0.0,0.0,0.0,0.0,0.0,0.0,0.0,0.0,0.0,0.0,0.0,0.0,0.0,0.0,0.0,0.0,0.0,0.0,0.0,0.0,0.0,0.0,0.0,0.0,0.0,0.0,0.0,0.0,0.0,0.0,0.0,0.0,0.0,0.0,0.0,0.0,0.0,0.0,0.0,0.0,0.0,0.0,0.0,0.0,0.0,0.0,0.0,0.0,0.0,0.0,0.0,0.0,0.0,0.0,0.0,0.0,0.0,0.0,0.0,0.0,0.0,0.0,0.0,0.0,0.0,0.0,0.0,0.0,0.0,0.0,0.0,0.0,0.0,0.0,0.0,0.0,0.0,0.0,0.0,0.0,0.0,0.0,0.0,0.0,0.0,0.0,0.0,0.0,0.0,0.0,0.0,0.0,0.0,0.0,0.0,0.0,0.0,0.0,0.0,0.0,0.0,0.0,0.0,0.0,0.0,0.0,0.0,0.0,0.0,0.0,0.0,0.0,0.0,0.0,0.0,0.0,0.0,0.0,0.0,0.0,0.0,0.0,0.0,0.0,0.0,0.0,0.0,0.0,0.0,0.0,0.0,0.0,0.0,0.0,0.0,0.0,0.0,0.0,0.0,0.0,0.0,0.0,0.0,0.0,0.0,0.0,0.0,0.0,0.0,0.0,0.0,0.0,0.0,0.0,0.0,0.0,0.0,0.0,0.0,0.0,0.0,0.0,0.0,0.0,0.0,0.0,0.0,0.0,0.0,0.0,0.0,0.0,0.0,0.0,0.0,0.0,0.0,0.0,0.0,0.0,0.0,0.0,0.0,0.0,0.0,0.0,0.0,0.0,0.0,0.0,0.0,0.0,0.0,0.0,0.0,0.0,0.0,0.0,0.0,0.0,0.0,0.0,0.0,0.0,0.0,0.0,0.0,0.0,0.0,0.0,0.0,0.0,0.0,0.0,0.0,0.0,0.0,0.0,0.0,0.0,0.0,0.0,0.0,0.0,0.0,0.0,0.0,0.0,0.0,0.0,0.0,0.0,0.0,0.0,0.0,0.0,0.0,0.0,0.0,0.0,0.0,0.0,0.0,0.0,0.0,0.0,0.0,0.0,0.0,0.0,0.0,0.0,0.0,0.0,0.0,0.0,0.0,0.0,0.0,0.0,0.0,0.0,0.0,0.0,0.0,0.0,0.0,0.0,0.0,0.0,0.0,0.0,0.0,0.0,0.0,0.0,0.0,0.0,0.0,0.0,0.0,0.0,0.0,0.0,0.0,0.0,0.0,0.0,0.0,0.0,0.0,0.0,0.0,0.0,0.0,0.0,0.0,0.0,0.0,0.0,0.0,0.0,0.0,0.0,0.0,0.0,0.0,0.0,0.0,0.0,0.0,0.0,0.0,0.0,0.0,0.0,0.0,0.0,0.0,0.0,0.0,0.0,0.0,0.0,0.0,0.0,0.0,0.0,0.0,0.0,0.0,0.0,0.0,0.0,0.0,0.0,0.0,0.0,0.0,0.0,0.0,0.0,0.0,0.0,0.0,0.0,0.0,0.0,0.0,0.0,0.0,0.0,0.0,0.0,0.0,0.0,0.0,0.0,0.0,0.0,0.0,0.0,0.0,0.0,0.0,0.0,0.0,0.0,0.0,0.0,0.0,0.0,0.0,0.0,0.0,0.0,0.0,0.0,0.0,0.0,0.0,0.0,0.0,0.0,0.0,0.0,0.0,0.0,0.0,0.0,0.0,0.0,0.0,0.0,0.0,0.0,0.0,0.0,0.0,0.0,0.0,0.0,0.0,0.0,0.0,0.0,0.0,0.0,0.0,0.0,0.0,0.0,0.0,0.0,0.0,0.0,0.0,0.0,0.0,0.0,0.0,0.0,0.0,0.0,0.0,0.0,0.0,0.0,0.0,0.0,0.0,0.0,0.0,0.0,0.0,0.0,0.0,0.0,0.0,0.0,0.0,0.0,0.0,0.0,0.0,0.0,0.0,0.0,0.0,0.0,0.0,0.0,0.0,0.0,0.0,0.0,0.0,0.0,0.0,0.0,0.0,0.0,0.0,0.0,0.0,0.0,0.0,0.0,0.0,0.0,0.0,0.0,0.0,0.0,0.0,0.0,0.0,0.0,0.0,0.0,0.0,0.0,0.0,0.0,0.0,0.0,0.0,0.0,0.0,0.0,0.0,0.0,0.0,0.0,0.0,0.0,0.0,0.0,0.0,0.0,0.0,0.0,0.0,0.0,0.0,0.0,0.0,0.0,0.0,0.0,0.0,0.0,0.0,0.0,0.0,0.0,-0.7988,0.0,0.0,0.0,0.0,0.0,0.0,0.0,0.0,0.0,0.0,0.0,0.0,0.0,0.0,0.0,0.0,0.0,0.0,0.0,0.0,0.0,0.0,0.0,0.0,0.0,0.0,0.0,0.0,0.0,0.0,0.0,0.0,0.0,0.0,0.0,0.0,0.0,0.0,0.0,0.0,0.0,0.0,0.0,0.0,0.0,0.0,0.0,0.0,0.0,0.0,0.0,0.0,0.0,0.0,0.0,0.0,0.0,0.0,0.0,0.0,0.0,0.0,0.0,0.0,0.0,0.0,0.0,0.0,0.0,0.0,0.0,0.0,0.0,0.0,0.0,0.0,0.0,0.0,0.0,0.0,0.0,0.0,0.0,0.0,0.0,0.0,0.0,0.0,0.0,0.0,0.0,0.0,0.0,0.0,0.0,0.0,0.0,0.0,0.0,0.0,0.0,0.0,0.0,0.0,0.0,0.0,0.0,0.0,0.0,0.0,-0.7988,-0.7988,-0.7988,-0.7988,-0.7988,0.0,0.0,0.0,0.0,0.0,0.0,0.0,0.0,0.0,0.0,0.0,0.0,0.0,0.0,0.0,0.0,0.0,0.0,0.0,0.0,0.0,0.0,0.0,0.0,0.0,0.0,0.0,0.0,0.0,0.0,0.0,0.0,0.0,0.0,0.0,0.0,0.0,0.0,0.0,0.0,0.0,0.0,0.0,0.0,0.0,0.0,0.0,0.0,0.0,0.0,0.0,0.0,0.0,0.0,0.0,0.0,0.0,0.0,0.0,0.0,0.0,0.0,0.0,0.0,0.0,0.0,0.0,0.0,0.0,0.0,0.0,0.0,0.0,0.0,0.0,0.0,0.0,0.0,0.0,0.0,0.0,0.0,0.0,0.0,0.0,0.0,0.0,0.0,0.0,0.0,0.0,0.0,0.0,0.0,0.0,0.0,0.0,0.0,0.0,0.0,0.0,0.0,0.0,0.0,0.0,0.0,0.0,0.0,0.0,0.0,0.0,0.0,-0.7988,-0.8038,-0.8088,0.0,0.0,0.0,0.0,0.0,0.0,0.0,0.0,0.0,0.0,0.0,0.0,0.0,0.0,0.0,0.0,0.0,0.0,0.0,0.0,0.0,0.0,0.0,0.0,0.0,0.0,0.0,0.0,0.0,0.0,0.0,0.0,0.0,0.0,0.0,0.0,0.0,0.0,0.0,0.0,0.0,0.0,0.0,0.0,0.0,0.0,0.0,0.0,0.0,0.0,0.0,0.0,0.0,0.0,0.0,0.0,0.0,0.0,0.0,0.0,0.0,0.0,0.0,0.0,0.0,0.0,0.0,0.0,0.0,0.0,0.0,0.0,0.0,0.0,0.0,0.0,0.0,0.0,0.0,0.0,0.0,0.0,0.0,0.0,0.0,0.0,0.0,0.0,0.0,0.0,0.0,0.0,0.0,0.0,0.0,0.0,0.0,0.0,0.0,0.0,0.0,0.0,0.0,0.0,0.0,0.0,0.0,0.0,0.0,0.0,-0.7988,-0.7988,-0.7988,0.0,-0.8382,0.0,0.0,0.0,0.0,0.0,0.0,0.0,0.0,0.0,0.0,0.0,0.0,0.0,0.0,0.0,0.0,0.0,0.0,0.0,0.0,0.0,0.0,0.0,0.0,0.0,0.0,0.0,0.0,0.0,0.0,0.0,0.0,0.0,0.0,0.0,0.0,0.0,0.0,0.0,0.0,0.0,0.0,0.0,0.0,0.0,0.0,0.0,0.0,0.0,0.0,0.0,0.0,0.0,0.0,0.0,0.0,0.0,0.0,0.0,0.0,0.0,0.0,0.0,0.0,0.0,0.0,0.0,0.0,0.0,0.0,0.0,0.0,0.0,0.0,0.0,0.0,0.0,0.0,0.0,0.0,0.0,0.0,0.0,0.0,0.0,0.0,0.0,0.0,0.0,0.0,0.0,0.0,0.0,0.0,0.0,0.0,0.0,0.0,0.0,0.0,0.0,0.0,0.0,0.0,0.0,0.0,0.0,0.0,0.0,0.0,-0.7988,-0.7988,-0.7988,-0.8184,0.0,0.0,0.0,0.0,0.0,0.0,0.0,0.0,0.0,0.0,0.0,0.0,0.0,0.0,0.0,0.0,0.0,0.0,0.0,0.0,0.0,0.0,0.0,0.0,0.0,0.0,0.0,0.0,0.0,0.0,0.0,0.0,0.0,0.0,0.0,0.0,0.0,0.0,0.0,0.0,0.0,0.0,0.0,0.0,0.0,0.0,0.0,0.0,0.0,0.0,0.0,0.0,0.0,0.0,0.0,0.0,0.0,0.0,0.0,0.0,0.0,0.0,0.0,0.0,0.0,0.0,0.0,0.0,0.0,0.0,0.0,0.0,0.0,0.0,0.0,0.0,0.0,0.0,0.0,0.0,0.0,0.0,0.0,0.0,0.0,0.0,0.0,0.0,0.0,0.0,0.0,0.0,0.0,0.0,0.0,0.0,0.0,0.0,0.0,0.0,0.0,0.0,0.0,0.0,0.0,0.0,0.0,0.0,0.0,0.0,-0.7988,-0.7988,-0.7988,-0.7988,-0.8233,-0.8775,0.0,0.0,0.0,0.0,0.0,0.0,0.0,0.0,0.0,0.0,0.0,0.0,0.0,0.0,0.0,0.0,0.0,0.0,0.0,0.0,0.0,0.0,0.0,0.0,0.0,0.0,0.0,0.0,0.0,0.0,0.0,0.0,0.0,0.0,0.0,0.0,0.0,0.0,0.0,0.0,0.0,0.0,0.0,0.0,0.0,0.0,0.0,0.0,0.0,0.0,0.0,0.0,0.0,0.0,0.0,0.0,0.0,0.0,0.0,0.0,0.0,0.0,0.0,0.0,0.0,0.0,0.0,0.0,0.0,0.0,0.0,0.0,0.0,0.0,0.0,0.0,0.0,0.0,0.0,0.0,0.0,0.0,0.0,0.0,0.0,0.0,0.0,0.0,0.0,0.0,0.0,0.0,0.0,0.0,0.0,0.0,0.0,0.0,0.0,0.0,0.0,0.0,0.0,0.0,0.0,0.0,0.0,0.0,-0.7988,-0.7988,-0.7988,-0.7988,-0.7988,-0.8237,0.0,0.0,0.0,0.0,0.0,0.0,0.0,0.0,0.0,0.0,0.0,0.0,0.0,0.0,0.0,0.0,0.0,0.0,0.0,0.0,0.0,0.0,0.0,0.0,0.0,0.0,0.0,0.0,0.0,0.0,0.0,0.0,0.0,0.0,0.0,0.0,0.0,0.0,0.0,0.0,0.0,0.0,0.0,0.0,0.0,0.0,0.0,0.0,0.0,0.0,0.0,0.0,0.0,0.0,0.0,0.0,0.0,0.0,0.0,0.0,0.0,0.0,0.0,0.0,0.0,0.0,0.0,0.0,0.0,0.0,0.0,0.0,0.0,0.0,0.0,0.0,0.0,0.0,0.0,0.0,0.0,0.0,0.0,0.0,0.0,0.0,0.0,0.0,0.0,0.0,0.0,0.0,0.0,0.0,0.0,0.0,0.0,0.0,0.0,0.0,0.0,0.0,0.0,0.0,0.0,0.0,0.0,0.0,0.0,-0.7988,-0.7988,-0.7988,-0.7988,-0.7988,-0.8233,0.0,0.0,0.0,0.0,0.0,0.0,0.0,0.0,0.0,0.0,0.0,0.0,0.0,0.0,0.0,0.0,0.0,0.0,0.0,0.0,0.0,0.0,0.0,0.0,0.0,0.0,0.0,0.0,0.0,0.0,0.0,0.0,0.0,0.0,0.0,0.0,0.0,0.0,0.0,0.0,0.0,0.0,0.0,0.0,0.0,0.0,0.0,0.0,0.0,0.0,0.0,0.0,0.0,0.0,0.0,0.0,0.0,0.0,0.0,0.0,0.0,0.0,0.0,0.0,0.0,0.0,0.0,0.0,0.0,0.0,0.0,0.0,0.0,0.0,0.0,0.0,0.0,0.0,0.0,0.0,0.0,0.0,0.0,0.0,0.0,0.0,0.0,0.0,0.0,0.0,0.0,0.0,0.0,0.0,0.0,0.0,0.0,0.0,0.0,0.0,0.0,0.0,0.0,0.0,0.0,0.0,0.0,0.0,0.0,-0.7988,0.0,-0.7988,-0.7988,-0.7988,-0.8233,0.0,0.0,0.0,0.0,0.0,0.0,0.0,0.0,0.0,0.0,0.0,0.0,0.0,0.0,0.0,0.0,0.0,0.0,0.0,0.0,0.0,0.0,0.0,0.0,0.0,0.0,0.0,0.0,0.0,0.0,0.0,0.0,0.0,0.0,0.0,0.0,0.0,0.0,0.0,0.0,0.0,0.0,0.0,0.0,0.0,0.0,0.0,0.0,0.0,0.0,0.0,0.0,0.0,0.0,0.0,0.0,0.0,0.0,0.0,0.0,0.0,0.0,0.0,0.0,0.0,0.0,0.0,0.0,0.0,0.0,0.0,0.0,0.0,0.0,0.0,0.0,0.0,0.0,0.0,0.0,0.0,0.0,0.0,0.0,0.0,0.0,0.0,0.0,0.0,0.0,0.0,0.0,0.0,0.0,0.0,0.0,0.0,0.0,0.0,0.0,0.0,0.0,0.0,0.0,0.0,0.0,0.0,0.0,-0.7992,-0.7988,-0.7988,-0.7988,-0.7988,-0.7988,-0.8233,0.0,0.0,0.0,0.0,0.0,0.0,0.0,0.0,0.0,0.0,0.0,0.0,0.0,0.0,0.0,0.0,0.0,0.0,0.0,0.0,0.0,0.0,0.0,0.0,0.0,0.0,0.0,0.0,0.0,0.0,0.0,0.0,0.0,0.0,0.0,0.0,0.0,0.0,0.0,0.0,0.0,0.0,0.0,0.0,0.0,0.0,0.0,0.0,0.0,0.0,0.0,0.0,0.0,0.0,0.0,0.0,0.0,0.0,0.0,0.0,0.0,0.0,0.0,0.0,0.0,0.0,0.0,0.0,0.0,0.0,0.0,0.0,0.0,0.0,0.0,0.0,0.0,0.0,0.0,0.0,0.0,0.0,0.0,0.0,0.0,0.0,0.0,0.0,0.0,0.0,0.0,0.0,0.0,0.0,0.0,0.0,0.0,0.0,0.0,0.0,0.0,0.0,0.0,0.0,0.0,0.0,0.0,0.0,0.0,-0.7992,-0.7988,-0.7988,-0.7988,-0.7988,-0.8237,0.0,0.0,0.0,0.0,0.0,0.0,0.0,0.0,0.0,0.0,0.0,0.0,0.0,0.0,0.0,0.0,0.0,0.0,0.0,0.0,0.0,0.0,0.0,0.0,0.0,0.0,0.0,0.0,0.0,0.0,0.0,0.0,0.0,0.0,0.0,0.0,0.0,0.0,0.0,0.0,0.0,0.0,0.0,0.0,0.0,0.0,0.0,0.0,0.0,0.0,0.0,0.0,0.0,0.0,0.0,0.0,0.0,0.0,0.0,0.0,0.0,0.0,0.0,0.0,0.0,0.0,0.0,0.0,0.0,0.0,0.0,0.0,0.0,0.0,0.0,0.0,0.0,0.0,0.0,0.0,0.0,0.0,0.0,0.0,0.0,0.0,0.0,0.0,0.0,0.0,0.0,0.0,0.0,0.0,0.0,0.0,0.0,0.0,0.0,0.0,0.0,0.0,0.0,0.0,0.0,0.0,0.0,0.0,0.0,-0.8208,-0.8208,-0.8204,-0.8204,-0.8153,-0.8374,-0.8864,0.0,0.0,0.0,0.0,0.0,0.0,0.0,0.0,0.0,0.0,0.0,0.0,0.0,0.0,0.0,0.0,0.0,0.0,0.0,0.0,0.0,0.0,0.0,0.0,0.0,0.0,0.0,0.0,0.0,0.0,0.0,0.0,0.0,0.0,0.0,0.0,0.0,0.0,0.0,0.0,0.0,0.0,0.0,0.0,0.0,0.0,0.0,0.0,0.0,0.0,0.0,0.0,0.0,0.0,0.0,0.0,0.0,0.0,0.0,0.0,0.0,0.0,0.0,0.0,0.0,0.0,0.0,0.0,0.0,0.0,0.0,0.0,0.0,0.0,0.0,0.0,0.0,0.0,0.0,0.0,0.0,0.0,0.0,0.0,0.0,0.0,0.0,0.0,0.0,0.0,0.0,0.0,0.0,0.0,0.0,0.0,0.0,0.0,0.0,0.0,0.0,0.0,0.0,0.0,0.0,0.0,0.0,0.0,-0.8492,-0.8503,-0.8496,-0.8476,-0.8402,-0.8528,0.0,0.0,0.0,0.0,0.0,0.0,0.0,0.0,0.0,0.0,0.0,0.0,0.0,0.0,0.0,0.0,0.0,0.0,0.0,0.0,0.0,0.0,0.0,0.0,0.0,0.0,0.0,0.0,0.0,0.0,0.0,0.0,0.0,0.0,0.0,0.0,0.0,0.0,0.0,0.0,0.0,0.0,0.0,0.0,0.0,0.0,0.0,0.0,0.0,0.0,0.0,0.0,0.0,0.0,0.0,0.0,0.0,0.0,0.0,0.0,0.0,0.0,0.0,0.0,0.0,0.0,0.0,0.0,0.0,0.0,0.0,0.0,0.0,0.0,0.0,0.0,0.0,0.0,0.0,0.0,0.0,0.0,0.0,0.0,0.0,0.0,0.0,0.0,0.0,0.0,0.0,0.0,0.0,0.0,0.0,0.0,0.0,0.0,0.0,0.0,0.0,0.0,0.0,0.0,0.0,0.0,0.0,0.0,0.0,-0.8645,-0.876,-0.8713,-0.8492,-0.8445,-0.8633,0.0,0.0,0.0,0.0,0.0,0.0,0.0,0.0,0.0,0.0,0.0,0.0,0.0,0.0,0.0,0.0,0.0,0.0,0.0,0.0,0.0,0.0,0.0,0.0,0.0,0.0,0.0,0.0,0.0,0.0,0.0,0.0,0.0,0.0,0.0,0.0,0.0,0.0,0.0,0.0,0.0,0.0,0.0,0.0,0.0,0.0,0.0,0.0,0.0,0.0,0.0,0.0,0.0,0.0,0.0,0.0,0.0,0.0,0.0,0.0,0.0,0.0,0.0,0.0,0.0,0.0,0.0,0.0,0.0,0.0,0.0,0.0,0.0,0.0,0.0,0.0,0.0,0.0,0.0,0.0,0.0,0.0,0.0,0.0,0.0,0.0,0.0,0.0,0.0,0.0,0.0,0.0,0.0,0.0,0.0,0.0,0.0,0.0,0.0,0.0,0.0,0.0,0.0,0.0,0.0,0.0,0.0,0.0,-0.8587,-0.8801,-0.8838,-0.8852,-0.8679,-0.8611,-0.8773,0.0,0.0,0.0,0.0,0.0,0.0,0.0,0.0,0.0,0.0,0.0,0.0,0.0,0.0,0.0,0.0,0.0,0.0,0.0,0.0,0.0,0.0,0.0,0.0,0.0,0.0,0.0,0.0,0.0,0.0,0.0,0.0,0.0,0.0,0.0,0.0,0.0,0.0,0.0,0.0,0.0,0.0,0.0,0.0,0.0,0.0,0.0,0.0,0.0,0.0,0.0,0.0,0.0,0.0,0.0,0.0,0.0,0.0,0.0,0.0,0.0,0.0,0.0,0.0,0.0,0.0,0.0,0.0,0.0,0.0,0.0,0.0,0.0,0.0,0.0,0.0,0.0,0.0,0.0,0.0,0.0,0.0,0.0,0.0,0.0,0.0,0.0,0.0,0.0,0.0,0.0,0.0,0.0,0.0,0.0,0.0,0.0,0.0,0.0,0.0,0.0,0.0,0.0,0.0,0.0,0.0,0.0,0.0,-0.8645,-0.8878,-0.8937,-0.8937,-0.8878,-0.875,-0.8923,0.0,0.0,0.0,0.0,0.0,0.0,0.0,0.0,0.0,0.0,0.0,0.0,0.0,0.0,0.0,0.0,0.0,0.0,0.0,0.0,0.0,0.0,0.0,0.0,0.0,0.0,0.0,0.0,0.0,0.0,0.0,0.0,0.0,0.0,0.0,0.0,0.0,0.0,0.0,0.0,0.0,0.0,0.0,0.0,0.0,0.0,0.0,0.0,0.0,0.0,0.0,0.0,0.0,0.0,0.0,0.0,0.0,0.0,0.0,0.0,0.0,0.0,0.0,0.0,0.0,0.0,0.0,0.0,0.0,0.0,0.0,0.0,0.0,0.0,0.0,0.0,0.0,0.0,0.0,0.0,0.0,0.0,0.0,0.0,0.0,0.0,0.0,0.0,0.0,0.0,0.0,0.0,0.0,0.0,0.0,0.0,0.0,0.0,0.0,0.0,0.0,0.0,0.0,0.0,0.0,0.0,0.0,0.0,-0.875,-0.8875,-0.8937,-0.8937,-0.8937,-0.8851,-0.8984,0.0,0.0,0.0,0.0,0.0,0.0,0.0,0.0,0.0,0.0,0.0,0.0,0.0,0.0,0.0,0.0,0.0,0.0,0.0,0.0,0.0,0.0,0.0,0.0,0.0,0.0,0.0,0.0,0.0,0.0,0.0,0.0,0.0,0.0,0.0,0.0,0.0,0.0,0.0,0.0,0.0,0.0,0.0,0.0,0.0,0.0,0.0,0.0,-1.0632,0.0,0.0,0.0,0.0,0.0,0.0,0.0,0.0,0.0,0.0,0.0,0.0,0.0,0.0,0.0,0.0,0.0,0.0,0.0,0.0,0.0,0.0,0.0,0.0,0.0,0.0,0.0,0.0,0.0,0.0,0.0,0.0,0.0,0.0,0.0,0.0,0.0,0.0,0.0,0.0,0.0,0.0,0.0,0.0,0.0,0.0,0.0,0.0,0.0,0.0,0.0,0.0,0.0,0.0,0.0,0.0,0.0,0.0,0.0,-0.8784,-0.8875,-0.8937,-0.8937,-0.8937,-0.8937,-0.8992,0.0,0.0,0.0,0.0,0.0,0.0,0.0,0.0,0.0,0.0,0.0,0.0,0.0,0.0,0.0,0.0,0.0,0.0,0.0,0.0,0.0,0.0,0.0,0.0,0.0,0.0,0.0,0.0,0.0,0.0,0.0,0.0,0.0,0.0,0.0,0.0,0.0,0.0,0.0,0.0,0.0,0.0,0.0,0.0,0.0,0.0,0.0,0.0,0.0,0.0,0.0,0.0,0.0,0.0,0.0,0.0,0.0,0.0,0.0,0.0,0.0,0.0,0.0,0.0,0.0,0.0,0.0,0.0,0.0,0.0,0.0,0.0,0.0,0.0,0.0,0.0,0.0,0.0,0.0,0.0,0.0,0.0,0.0,0.0,0.0,0.0,0.0,0.0,0.0,0.0,0.0,0.0,0.0,0.0,0.0,0.0,0.0,0.0,0.0,0.0,0.0,0.0,0.0,0.0,0.0,0.0,0.0,-0.8652,-0.8753,-0.8875,-0.8937,-0.8937,-0.8937,-0.8937,-0.8924,-0.9036,0.0,0.0,0.0,0.0,0.0,0.0,0.0,0.0,0.0,0.0,0.0,0.0,0.0,0.0,0.0,0.0,0.0,0.0,0.0,0.0,0.0,0.0,0.0,0.0,0.0,0.0,0.0,0.0,0.0,0.0,0.0,0.0,0.0,0.0,0.0,0.0,0.0,0.0,-0.8118,-0.8238,0.0,0.0,0.0,0.0,0.0,0.0,0.0,0.0,-1.2639,0.0,0.0,0.0,0.0,0.0,0.0,0.0,0.0,0.0,0.0,0.0,0.0,0.0,0.0,0.0,0.0,0.0,0.0,0.0,0.0,0.0,0.0,0.0,0.0,0.0,0.0,0.0,0.0,0.0,0.0,0.0,0.0,0.0,0.0,0.0,0.0,0.0,0.0,0.0,0.0,0.0,0.0,0.0,0.0,0.0,0.0,0.0,0.0,0.0,0.0,0.0,0.0,0.0,0.0,0.0,0.0,-0.8535,-0.876,-0.8858,-0.8937,-0.8937,-0.8937,-0.8937,-0.8937,-0.8866,-0.877,0.0,0.0,0.0,0.0,0.0,0.0,0.0,0.0,0.0,0.0,0.0,0.0,0.0,0.0,0.0,0.0,0.0,0.0,0.0,0.0,0.0,0.0,0.0,0.0,0.0,0.0,0.0,0.0,0.0,0.0,0.0,0.0,0.0,0.0,0.0,0.0,0.0,0.0,0.0,-0.8408,-0.8409,0.0,0.0,0.0,0.0,0.0,0.0,0.0,0.0,-1.411,0.0,0.0,0.0,0.0,0.0,0.0,0.0,0.0,0.0,0.0,0.0,0.0,0.0,0.0,0.0,0.0,0.0,0.0,0.0,0.0,0.0,0.0,0.0,0.0,0.0,0.0,0.0,0.0,0.0,0.0,0.0,0.0,0.0,0.0,0.0,0.0,0.0,0.0,0.0,0.0,0.0,0.0,0.0,0.0,0.0,0.0,0.0,0.0,0.0,0.0,0.0,0.0,0.0,0.0,0.0,-0.8548,-0.8784,-0.8937,-0.8937,-0.8937,-0.8937,-0.8937,-0.8937,-0.8832,0.0,0.0,0.0,0.0,0.0,0.0,0.0,0.0,0.0,0.0,0.0,0.0,0.0,0.0,0.0,0.0,0.0,0.0,0.0,0.0,0.0,0.0,0.0,0.0,0.0,0.0,0.0,0.0,0.0,0.0,0.0,0.0,0.0,0.0,0.0,0.0,0.0,0.0,0.0,0.0,-0.8848,-0.8927,-0.9309,0.0,0.0,0.0,0.0,0.0,0.0,-1.4582,-1.5152,0.0,0.0,0.0,0.0,0.0,0.0,0.0,0.0,0.0,0.0,0.0,0.0,0.0,0.0,0.0,0.0,0.0,0.0,0.0,0.0,0.0,0.0,0.0,0.0,0.0,0.0,0.0,0.0,0.0,0.0,0.0,0.0,0.0,0.0,0.0,0.0,0.0,0.0,0.0,0.0,0.0,0.0,0.0,0.0,0.0,0.0,0.0,0.0,0.0,0.0,0.0,0.0,0.0,0.0,0.0,-0.8537,-0.8798,-0.8937,-0.8937,-0.8937,-0.8937,-0.8937,-0.8937,-0.8794,0.0,0.0,0.0,0.0,0.0,0.0,0.0,0.0,0.0,0.0,0.0,0.0,0.0,0.0,0.0,0.0,0.0,0.0,0.0,0.0,0.0,0.0,0.0,0.0,0.0,0.0,0.0,0.0,0.0,0.0,0.0,0.0,0.0,0.0,0.0,0.0,0.0,0.0,0.0,0.0,0.0,-0.9549,-0.9955,-1.0629,0.0,0.0,0.0,0.0,-1.4727,-1.5482,0.0,0.0,0.0,0.0,0.0,0.0,0.0,0.0,0.0,0.0,0.0,0.0,0.0,0.0,0.0,0.0,0.0,0.0,0.0,0.0,0.0,0.0,0.0,0.0,0.0,0.0,0.0,0.0,0.0,0.0,0.0,0.0,0.0,0.0,0.0,0.0,0.0,0.0,0.0,0.0,0.0,0.0,0.0,0.0,0.0,0.0,0.0,0.0,0.0,0.0,0.0,0.0,0.0,0.0,0.0,0.0,-0.8682,-0.8797,-0.8937,-0.8937,-0.8937,-0.8937,-0.8937,-0.8937,-0.8794,0.0,0.0,0.0,0.0,0.0,0.0,0.0,0.0,0.0,0.0,0.0,0.0,0.0,0.0,0.0,0.0,0.0,0.0,0.0,0.0,0.0,0.0,0.0,0.0,0.0,0.0,0.0,0.0,0.0,0.0,0.0,0.0,0.0,0.0,0.0,0.0,0.0,0.0,0.0,0.0,0.0,-0.9959,-1.0592,-1.1361,-1.2068,0.0,0.0,-1.4395,-1.5304,-1.5873,0.0,0.0,0.0,0.0,0.0,0.0,0.0,0.0,0.0,0.0,0.0,0.0,0.0,0.0,0.0,0.0,0.0,0.0,0.0,0.0,0.0,0.0,0.0,0.0,0.0,0.0,0.0,0.0,0.0,0.0,0.0,0.0,0.0,0.0,0.0,0.0,0.0,0.0,0.0,0.0,0.0,0.0,0.0,0.0,0.0,0.0,0.0,0.0,0.0,0.0,0.0,0.0,0.0,0.0,0.0,-0.8557,-0.871,-0.8862,-0.8937,-0.8937,-0.8937,-0.8937,-0.8937,-0.8937,-0.8794,0.0,0.0,0.0,0.0,0.0,0.0,0.0,0.0,0.0,0.0,0.0,0.0,0.0,0.0,0.0,0.0,0.0,0.0,0.0,0.0,0.0,0.0,0.0,0.0,0.0,0.0,0.0,0.0,0.0,0.0,0.0,0.0,0.0,0.0,0.0,0.0,0.0,0.0,0.0,0.0,0.0,0.0,-1.1416,-1.2206,0.0,0.0,0.0,-1.5143,-1.5838,0.0,0.0,0.0,0.0,0.0,0.0,0.0,0.0,0.0,0.0,0.0,0.0,0.0,0.0,0.0,0.0,0.0,0.0,0.0,0.0,0.0,0.0,0.0,0.0,0.0,0.0,0.0,0.0,0.0,0.0,0.0,0.0,0.0,0.0,0.0,0.0,0.0,0.0,0.0,0.0,0.0,0.0,0.0,0.0,0.0,0.0,0.0,0.0,0.0,0.0,0.0,0.0,0.0,0.0,0.0,0.0,0.0,-0.871,-0.8807,-0.8937,-0.8937,-0.8937,-0.8937,-0.8937,-0.8937,0.0,0.0,0.0,0.0,0.0,0.0,0.0,0.0,0.0,0.0,0.0,0.0,0.0,0.0,0.0,0.0,0.0,0.0,0.0,0.0,0.0,0.0,0.0,0.0,0.0,0.0,0.0,-1.2205,0.0,0.0,0.0,0.0,0.0,0.0,0.0,0.0,0.0,0.0,0.0,0.0,0.0,0.0,-1.1306,-1.1934,-1.2763,-1.3586,0.0,0.0,-1.5583,-1.6217,-1.653,-1.665,0.0,0.0,0.0,0.0,0.0,0.0,0.0,0.0,0.0,0.0,0.0,0.0,0.0,0.0,0.0,0.0,0.0,0.0,0.0,0.0,0.0,0.0,0.0,0.0,0.0,0.0,0.0,0.0,0.0,0.0,0.0,0.0,0.0,0.0,0.0,0.0,0.0,0.0,0.0,0.0,0.0,0.0,0.0,0.0,0.0,0.0,0.0,0.0,0.0,0.0,0.0,0.0,0.0,0.0,0.0,-0.871,-0.8862,-0.8937,-0.8937,-0.8937,-0.8937,-0.8937,-0.8937,-0.8862,0.0,0.0,0.0,0.0,0.0,0.0,0.0,0.0,0.0,0.0,0.0,0.0,0.0,0.0,0.0,0.0,0.0,0.0,0.0,0.0,0.0,0.0,0.0,0.0,0.0,0.0,0.0,0.0,0.0,0.0,0.0,0.0,0.0,0.0,0.0,0.0,0.0,0.0,0.0,0.0,0.0,-1.1464,-1.1784,-1.2665,-1.3423,0.0,0.0,-1.5303,-1.6164,-1.653,-1.6703,-1.67,0.0,0.0,0.0,0.0,0.0,0.0,0.0,0.0,0.0,0.0,0.0,0.0,0.0,0.0,0.0,0.0,0.0,0.0,0.0,0.0,0.0,0.0,0.0,0.0,0.0,0.0,0.0,0.0,0.0,0.0,0.0,0.0,0.0,0.0,0.0,0.0,0.0,0.0,0.0,0.0,0.0,0.0,0.0,0.0,0.0,0.0,0.0,0.0,0.0,0.0,0.0,0.0,0.0,-0.8557,-0.871,-0.8862,-0.8937,-0.8937,-0.8937,-0.8937,-0.8937,-0.8937,-0.8814,0.0,0.0,0.0,0.0,0.0,0.0,0.0,0.0,0.0,0.0,0.0,0.0,0.0,0.0,0.0,0.0,0.0,0.0,0.0,0.0,0.0,0.0,0.0,0.0,0.0,0.0,0.0,0.0,-1.1457,-1.2073,-1.2856,0.0,0.0,0.0,0.0,0.0,0.0,0.0,0.0,0.0,0.0,-1.1605,-1.2211,-1.3016,0.0,0.0,-1.4719,-1.547,-1.5998,-1.6418,-1.6708,-1.6683,-1.6676,0.0,0.0,0.0,0.0,0.0,0.0,0.0,0.0,0.0,0.0,0.0,0.0,0.0,0.0,0.0,0.0,0.0,0.0,0.0,0.0,0.0,0.0,0.0,0.0,0.0,0.0,0.0,0.0,0.0,0.0,0.0,0.0,0.0,0.0,0.0,0.0,0.0,0.0,0.0,0.0,0.0,0.0,0.0,0.0,0.0,0.0,0.0,0.0,0.0,0.0,0.0,0.0,-0.8557,-0.871,-0.8807,-0.8937,-0.8937,-0.8937,-0.8937,-0.8937,-0.8937,-0.8831,0.0,0.0,0.0,0.0,0.0,0.0,0.0,0.0,0.0,0.0,0.0,0.0,0.0,0.0,0.0,0.0,0.0,0.0,0.0,0.0,0.0,0.0,0.0,0.0,0.0,0.0,0.0,0.0,-1.1022,-1.1975,-1.3152,0.0,0.0,0.0,0.0,0.0,0.0,0.0,0.0,0.0,0.0,-1.1759,-1.2283,-1.3071,-1.3694,-1.4002,-1.4874,-1.563,-1.6105,-1.6524,-1.6858,-1.684,0.0,0.0,0.0,0.0,0.0,0.0,0.0,0.0,0.0,0.0,0.0,0.0,0.0,0.0,0.0,0.0,0.0,0.0,0.0,0.0,0.0,0.0,0.0,0.0,0.0,0.0,0.0,0.0,0.0,0.0,0.0,0.0,0.0,0.0,0.0,0.0,0.0,0.0,0.0,0.0,0.0,0.0,0.0,0.0,0.0,0.0,0.0,0.0,0.0,0.0,0.0,0.0,0.0,-0.8557,-0.871,-0.8859,-0.8937,-0.8937,-0.8937,-0.8937,-0.8937,-0.8937,-0.8878,-0.8871,0.0,0.0,0.0,0.0,0.0,0.0,0.0,0.0,0.0,0.0,0.0,0.0,0.0,0.0,0.0,0.0,0.0,0.0,0.0,0.0,0.0,0.0,0.0,0.0,0.0,0.0,-0.9392,-1.0489,-1.1639,0.0,0.0,0.0,0.0,0.0,0.0,0.0,0.0,0.0,0.0,-1.1666,-1.1975,-1.1771,-1.2641,-1.3418,-1.3673,-1.475,-1.5773,-1.6518,-1.6955,-1.7187,0.0,0.0,0.0,0.0,0.0,0.0,0.0,0.0,0.0,0.0,0.0,0.0,0.0,0.0,0.0,0.0,0.0,0.0,0.0,0.0,0.0,0.0,0.0,0.0,0.0,0.0,0.0,0.0,-0.5942,0.0,0.0,0.0,0.0,0.0,0.0,0.0,0.0,0.0,0.0,0.0,-0.8635,-0.8635,0.0,0.0,0.0,0.0,0.0,0.0,0.0,0.0,0.0,0.0,0.0,0.0,-0.8557,-0.871,-0.8804,-0.8937,-0.8937,-0.8937,-0.8937,-0.8937,-0.8937,-0.8937,-0.8937,0.0,0.0,0.0,0.0,0.0,0.0,0.0,0.0,0.0,0.0,0.0,0.0,0.0,0.0,0.0,0.0,0.0,0.0,0.0,0.0,0.0,0.0,0.0,0.0,0.0,-0.91,0.0,0.0,0.0,0.0,0.0,0.0,0.0,0.0,0.0,0.0,0.0,-1.167,-1.1737,-1.179,-1.1919,-1.2156,-1.2832,-1.3369,0.0,0.0,0.0,0.0,0.0,0.0,0.0,0.0,0.0,0.0,0.0,0.0,0.0,0.0,-1.6286,-1.5851,-1.5825,-1.5825,-1.5825,0.0,0.0,0.0,0.0,0.0,0.0,0.0,0.0,0.0,0.0,0.0,0.0,0.0,0.0,0.0,0.0,-0.5516,0.0,0.0,0.0,0.0,0.0,0.0,0.0,0.0,-0.8764,-0.8737,-0.8791,-0.8788,-0.8737,0.0,-0.8642,-0.8642,0.0,0.0,0.0,0.0,0.0,0.0,0.0,0.0,-0.8635,-0.8788,-0.8889,-0.8937,-0.8937,-0.8937,-0.8937,-0.8937,-0.8937,-0.8937,-0.8937,-0.8791,-0.8662,0.0,0.0,0.0,0.0,0.0,0.0,0.0,0.0,0.0,0.0,0.0,0.0,0.0,0.0,0.0,0.0,0.0,0.0,0.0,0.0,0.0,0.0,0.0,-0.9059,0.0,0.0,0.0,0.0,0.0,0.0,0.0,0.0,0.0,-1.2169,-1.1902,-1.1784,-1.1947,-1.1938,-1.2025,-1.2259,0.0,0.0,0.0,0.0,0.0,0.0,0.0,-1.6577,-1.6955,-1.7121,-1.7216,-1.7219,-1.7045,-1.6827,-1.672,0.0,0.0,-1.6157,-1.6084,-1.6132,-1.6132,-1.6052,-1.5925,-1.5738,-1.5618,-1.5524,0.0,0.0,0.0,0.0,0.0,0.0,0.0,0.0,-0.3627,-0.3897,0.0,-0.4851,0.0,0.0,0.0,0.0,0.0,0.0,0.0,0.0,-0.8869,-0.8937,-0.8878,-0.8878,-0.8937,-0.8937,-0.8875,-0.8875,-0.8861,-0.8638,0.0,0.0,0.0,0.0,0.0,0.0,-0.8784,-0.8871,-0.8881,-0.8937,-0.8937,-0.8937,-0.8937,-0.8937,-0.8937,-0.8937,-0.8878,-0.8743,-0.8716,-0.8706,-0.8435,0.0,0.0,0.0,0.0,0.0,0.0,0.0,0.0,0.0,0.0,0.0,0.0,0.0,0.0,0.0,0.0,0.0,0.0,0.0,0.0,-0.8388,0.0,0.0,0.0,0.0,0.0,0.0,0.0,0.0,0.0,0.0,-1.1906,-1.1992,-1.2032,-1.1776,0.0,0.0,0.0,0.0,-1.2881,-1.2881,-1.3635,-1.439,-1.4874,-1.5512,-1.6099,-1.6624,0.0,0.0,-1.7215,-1.7213,-1.7125,-1.6787,-1.676,-1.6734,-1.674,-1.6693,-1.6673,-1.6673,-1.646,-1.6348,-1.6315,-1.6059,-1.5952,-0.0395,0.0,0.0,0.0,0.0,-0.2061,-0.2294,-0.2542,-0.2598,-0.3094,-0.381,-0.4305,0.0,0.0,0.0,0.0,0.0,0.0,-0.8767,-0.8817,-0.8861,-0.8937,-0.8937,-0.8937,-0.8937,-0.8937,-0.8937,-0.8937,-0.8878,-0.8794,-0.8754,-0.8645,0.0,0.0,0.0,0.0,-0.8784,-0.8875,-0.8937,-0.8937,-0.8937,-0.8937,-0.8937,-0.8937,-0.8937,-0.8937,-0.8937,-0.8841,-0.8767,-0.8713,-0.8526,0.0,0.0,0.0,0.0,0.0,0.0,0.0,0.0,0.0,0.0,0.0,0.0,0.0,0.0,0.0,0.0,0.0,0.0,0.0,-0.7911,-0.8308,-0.873,0.0,0.0,0.0,0.0,0.0,0.0,0.0,0.0,0.0,-1.1697,-1.1953,-1.2137,0.0,0.0,-1.2332,-1.206,-1.2495,-1.2822,-1.255,0.0,0.0,0.0,-1.5244,-1.5998,-1.6371,-1.7008,-1.7503,-1.7475,-1.7507,-1.7487,-1.7341,-1.7328,-1.7328,-1.7308,-1.6981,-1.6734,-1.67,-1.6633,-1.658,-1.6573,-1.6506,-1.6466,-0.0116,-0.0282,-0.0719,-0.0991,-0.116,-0.1325,-0.15,-0.1683,-0.1963,-0.2411,-0.3081,-0.388,-0.4797,-0.5841,-0.7026,0.0,0.0,0.0,-0.8852,-0.8937,-0.8937,-0.8937,-0.8937,-0.8937,-0.8937,-0.8937,-0.8937,-0.8937,-0.8937,-0.8937,-0.8838,-0.8804,0.0,0.0,-0.8798,-0.8801,-0.8845,-0.8878,-0.8937,-0.8937,-0.8937,-0.8937,-0.8937,-0.8937,-0.8937,-0.8937,-0.8937,-0.8937,-0.8896,-0.8801,-0.8652,-0.8503,0.0,0.0,0.0,0.0,0.0,0.0,0.0,0.0,0.0,0.0,0.0,-0.7397,-0.7504,0.0,0.0,0.0,-0.7872,-0.8028,-0.8123,-0.8386,0.0,0.0,0.0,0.0,0.0,0.0,0.0,-1.129,-1.1314,-1.1367,-1.1545,-1.1774,-1.1927,-1.21,-1.211,-1.2001,-1.1841,0.0,-1.2495,-1.2273,-1.3034,-1.3738,-1.3851,-1.4708,-1.5618,-1.6365,-1.7107,-1.7582,-1.7589,-1.7589,-1.7589,-1.7589,-1.7589,-1.7589,-1.7589,-1.7288,-1.7054,-1.7048,-1.6954,-1.6887,-1.6881,-1.6787,-1.6734,0.0,0.0,-0.029,-0.0572,-0.0845,-0.0844,-0.0845,-0.0901,-0.1518,-0.1911,-0.2248,-0.3423,-0.4482,-0.5594,-0.721,0.0,0.0,-0.8768,-0.8881,-0.8937,-0.8937,-0.8937,-0.8937,-0.8937,-0.8937,-0.8937,-0.8937,-0.8937,-0.8937,-0.8937,-0.8937,-0.8937,-0.8937,-0.8937,-0.8937,-0.8937,-0.8937,-0.8937,-0.8937,-0.8937,-0.8937,-0.8937,-0.8937,-0.8937,-0.8937,-0.8937,-0.8937,-0.8937,-0.8937,-0.8878,-0.8791,-0.8648,-0.8506,0.0,0.0,0.0,0.0,0.0,0.0,0.0,0.0,0.0,0.0,0.0,0.0,0.0,0.0,0.0,-0.8116,0.0,-0.834,-0.8619,0.0,0.0,0.0,-0.9388,-0.9657,-0.9657,-0.9986,-1.0646,0.0,0.0,0.0,0.0,-1.1459,-1.1459,-1.1568,-1.1568,-1.1568,-1.1787,-1.2001,-1.1946,-1.25,-1.2989,-1.3369,-1.4175,-1.5298,-1.6465,-1.7213,-1.7589,-1.7589,-1.7589,-1.7589,-1.7589,-1.7589,-1.7589,-1.7589,-1.7562,-1.7589,-1.7555,-1.7414,-1.7239,-1.7226,-1.6994,-1.6907,0.0,0.0,-0.006,-0.0118,-0.0233,-0.0408,-0.0524,-0.0582,-0.115,-0.1601,-0.1942,-0.2932,-0.4365,-0.6151,-0.6985,-0.782,-0.8484,-0.854,-0.8709,-0.8881,-0.8937,-0.8937,-0.8937,-0.8937,-0.8937,-0.8937,-0.8937,-0.8937,-0.8937,-0.8937,-0.8937,-0.8937,-0.8937,-0.8937,-0.8937,-0.8937,-0.8937,-0.8937,-0.8937,-0.8937,-0.8937,-0.8937,-0.8937,-0.8937,-0.8937,-0.8937,-0.8937,-0.8937,-0.8937,-0.8878,-0.8791,-0.8693,-0.8659,-0.8516,0.0,0.0,0.0,0.0,0.0,0.0,0.0,0.0,0.0,-0.7723,-0.7756,0.0,-0.816,0.0,-0.8326,-0.8484,-0.8431,-0.8518,0.0,0.0,-0.8965,-0.917,-0.9492,-0.9556,-0.9674,-1.0011,-1.003,-1.01,-1.0194,-1.0198,-1.0202,-1.0253,-1.1021,-1.1514,-1.1291,-1.1509,-1.1678,-1.1732,-1.2391,-1.2989,-1.3369,-1.4606,-1.5832,-1.6571,-1.7206,-1.7589,-1.7589,-1.7589,-1.7589,-1.7589,-1.7589,-1.7589,-1.7589,-1.7589,-1.7589,-1.7582,-1.7574,-1.7482,-1.7482,-1.7415,-1.7395,0.0,0.0,0.0,0.0,0.0,-0.0178,-0.0236,-0.0235,-0.07,-0.1163,-0.1685,-0.2877,-0.4351,-0.6007,-0.6633,-0.7315,-0.8049,-0.8442,-0.8696,-0.8808,-0.8856,-0.8937,-0.8937,-0.8937,-0.8974,-0.9032,-0.9035,-0.9069,-0.9133,-0.9137,-0.9137,-0.9137,-0.9137,-0.9133,-0.913,-0.9005,-0.8937,-0.8937,-0.8937,-0.8937,-0.8937,-0.8937,-0.8937,-0.8937,-0.8937,-0.8937,-0.8937,-0.8937,-0.8937,-0.8881,-0.8855,-0.8781,-0.8713,-0.8628,-0.8516,0.0,0.0,0.0,0.0,0.0,0.0,0.0,0.0,0.0,0.0,0.0,-0.8415,0.0,-0.8499,0.0,-0.8584,-0.8645,-0.8743,-0.8908,-0.8908,-0.8993,-0.9233,-0.9243,-0.933,-0.9585,-0.9599,-0.9651,-0.9761,-0.9816,-0.9816,-0.9816,-1.0363,-1.0802,-1.0802,-1.1017,-1.1295,-1.1568,-1.2223,-1.2985,-1.3743,-1.4922,-1.5939,-1.6571,-1.7107,-1.7483,-1.7582,-1.7589,-1.7589,-1.7589,-1.7589,-1.7589,-1.7589,-1.7589,-1.7589,-1.7589,-1.7589,-1.7589,-1.7589,-1.7589,-1.7589,0.0,0.0,0.0,0.0,0.0,0.0,0.0,0.0,-0.0296,-0.0826,-0.1531,-0.3003,-0.4296,-0.5467,-0.6113,-0.6754,-0.7452,-0.8214,-0.8616,-0.8723,-0.8831,-0.8939,-0.8994,-0.8942,-0.9059,-0.9234,-0.9238,-0.9252,-0.9378,-0.9381,-0.9381,-0.9381,-0.9381,-0.9381,-0.9367,-0.9123,-0.8939,-0.8939,-0.8939,-0.8929,-0.8967,-0.8912,-0.8902,-0.8885,-0.8937,-0.8937,-0.8937,-0.8937,-0.8937,-0.8937,-0.8937,-0.8824,-0.8747,-0.8737,-0.8672,0.0,-0.8509,0.0,0.0,0.0,0.0,0.0,0.0,0.0,0.0,-0.8428,-0.852,-0.8537,-0.8662,-0.874,-0.874,-0.8862,-0.8937,-0.8937,-0.8937,-0.8937,-0.8937,-0.8937,-0.8992,-0.9323,-0.9323,-0.9434,-0.9655,-0.9706,-0.9706,-0.9651,-0.9651,-0.9871,-1.0147,-1.0476,-1.0857,-1.1404,-1.206,-1.2985,-1.4169,-1.503,-1.5779,-1.6465,-1.6961,-1.7285,-1.7582,-1.7589,-1.7589,-1.7589,-1.7589,-1.7589,-1.7589,-1.7589,-1.7589,-1.7589,-1.7589,-1.7589,-1.7589,-1.7589,-1.7589,0.0,0.0,0.0,0.0,0.0,0.0,0.0,0.0,-0.0302,-0.0894,-0.1768,-0.2885,-0.3767,-0.4527,-0.535,-0.6228,-0.7102,-0.755,-0.8122,-0.8878,-0.891,-0.9069,-0.93,-0.9296,-0.9313,-0.9337,-0.9395,-0.9351,-0.9381,-0.9381,-0.9381,-0.9381,-0.9381,-0.9381,0.0,0.0,0.0,0.0,-0.93,-0.9239,-0.9176,-0.9169,-0.9055,-0.8888,-0.8937,0.0,-0.8937,-0.8937,-0.8937,-0.8937,-0.8937,0.0,0.0,0.0,0.0,0.0,0.0,0.0,0.0,0.0,0.0,0.0,-0.8543,-0.8543,-0.8507,-0.8577,-0.872,-0.8842,-0.8824,-0.8841,-0.8841,-0.8868,-0.8937,-0.8937,-0.8937,-0.8937,-0.8937,-0.8937,-0.8937,-0.8992,-0.8995,-0.8992,-0.9103,-0.9047,-0.9103,-0.9103,-0.9103,-0.9213,-0.9544,-1.0036,-1.0476,-1.0911,-1.1946,-1.3147,-1.4116,-1.4917,-1.5672,-1.6264,-1.6849,-1.7279,-1.7536,-1.7589,-1.7589,-1.7589,-1.7589,-1.7589,-1.7589,-1.7589,-1.7589,-1.7589,-1.7589,-1.7589,-1.7589,-1.7589,-1.7589,0.0,0.0,0.0,0.0,0.0,0.0,0.0,0.0,-0.0122,-0.0729,-0.1688,-0.235,-0.3192,-0.4093,-0.4696,-0.5538,-0.6494,-0.7097,-0.7665,-0.8254,-0.8543,-0.8803,-0.9152,-0.9152,-0.9305,-0.9493,-0.9493,-0.953,-0.9595,-0.9595,-0.9598,-0.9595,-0.9598,-0.9598,-0.9598,-0.9598,-0.9527,-0.9381,-0.9381,-0.9344,-0.9326,-0.9323,-0.9195,-0.9052,0.0,0.0,0.0,0.0,0.0,0.0,0.0,0.0,0.0,0.0,0.0,-0.8777,-0.877,-0.8788,-0.8716,-0.8706,-0.8706,-0.8706,-0.8777,-0.8791,-0.871,-0.8781,-0.8855,-0.8875,-0.8937,-0.8937,-0.8937,-0.8937,-0.8937,-0.8937,-0.8937,-0.8937,-0.8937,-0.8937,-0.8937,-0.8937,-0.8937,-0.8937,-0.8937,-0.8937,-0.8937,-0.8937,-0.8937,-0.8937,-0.9158,-0.9544,-1.0036,-1.0637,-1.1782,-1.2876,-1.3635,-1.4487,-1.5298,-1.5998,-1.659,-1.706,-1.7325,-1.7529,-1.7589,-1.7589,-1.7589,-1.7589,-1.7589,-1.7589,-1.7589,-1.7589,-1.7589,-1.7589,-1.7589,-1.7589,-1.7589,0.0,0.0,0.0,0.0,0.0,0.0,0.0,0.0,0.0,0.0,0.0,-0.1788,-0.2589,-0.3575,-0.4067,-0.4808,-0.5665,-0.6563,-0.7188,-0.7485,-0.8044,-0.8466,-0.8815,-0.8877,-0.9114,-0.9467,-0.9526,-0.9587,-0.9697,-0.9758,-0.9819,-0.9819,-0.9819,-0.9819,-0.9819,-0.9819,-0.97,-0.9469,-0.9459,-0.9445,-0.9425,-0.9422,-0.9351,-0.9251,-0.9224,-0.9152,-0.8981,-0.8895,-0.8937,-0.8937,-0.8937,-0.8937,-0.8937,-0.8937,-0.8937,-0.8937,-0.8937,-0.8937,-0.8937,-0.8937,-0.8937,-0.8937,-0.8937,-0.8937,-0.8937,-0.8937,-0.8937,-0.8937,-0.8937,-0.8937,-0.8937,-0.8937,-0.8937,-0.8937,-0.8937,-0.8937,-0.8937,-0.8937,-0.8937,-0.8937,-0.8937,-0.8937,-0.8937,-0.8937,-0.8937,-0.8937,-0.8937,-0.8937,-0.894,-0.9213,-0.9761,-1.0586,-1.1514,-1.2382,-1.3093,-1.3846,-1.4761,-1.5571,-1.6152,-1.6683,-1.712,-1.7378,-1.7529,-1.7589,-1.7589,-1.7589,-1.7589,-1.7589,-1.7589,-1.7589,-1.7589,-1.7589,-1.7589,-1.7589,-1.7589,0.0,0.0,0.0,0.0,0.0,0.0,0.0,0.0,-0.031,-0.0494,-0.0679,-0.1603,-0.2096,-0.2343,-0.3452,-0.4192,-0.4684,-0.5657,-0.6385,0.0,-0.7643,-0.8124,-0.8484,-0.8796,-0.893,-0.9009,-0.9249,-0.9319,-0.9396,-0.964,-0.9819,-0.9758,-0.9819,-0.9819,-0.9819,-0.9819,-0.9802,-0.9758,-0.9761,-0.97,-0.9581,-0.9578,-0.9507,-0.9412,-0.9279,-0.92,-0.918,-0.9005,-0.8937,-0.8937,-0.8937,-0.8937,-0.8937,-0.8937,-0.8937,-0.8937,-0.8937,-0.8937,-0.8937,-0.8937,-0.8937,-0.8937,-0.8937,-0.8937,-0.8937,-0.8937,-0.8937,-0.8937,-0.8937,-0.8937,-0.8937,-0.8937,-0.8937,-0.8937,-0.8937,-0.8937,-0.8937,-0.8937,-0.8937,-0.8937,-0.8937,-0.8937,-0.8937,-0.8937,-0.8937,-0.8937,-0.8937,-0.8937,-0.8937,-0.9213,-0.9761,-1.0531,-1.1021,-1.1618,-1.2382,-1.3246,-1.411,-1.4987,-1.5624,-1.6264,-1.6961,-1.7226,-1.7331,-1.7582,-1.7589,-1.7589,-1.7589,-1.7589,-1.7589,-1.7589,-1.7589,-1.7589,-1.7589,-1.7589,-1.7589,0.0,0.0,0.0,0.0,0.0,0.0,0.0,0.0,-0.0188,-0.0311,-0.0556,-0.0987,-0.1481,-0.2034,-0.2589,-0.3267,-0.3947,-0.4747,-0.536,-0.5847,-0.6707,-0.7255,-0.7559,-0.7933,-0.8302,-0.8604,-0.8726,-0.8909,-0.9095,-0.922,-0.9339,-0.9339,-0.9457,-0.964,-0.9819,-0.9819,-0.9819,-0.9819,-0.9819,-0.9788,-0.9727,-0.9724,-0.9652,-0.9507,-0.9432,-0.9378,-0.9214,-0.9089,-0.9022,-0.8888,-0.8937,-0.8937,-0.8937,-0.8937,-0.8937,-0.8937,-0.8937,-0.8937,-0.8937,-0.8937,-0.8937,-0.8937,-0.8937,-0.8937,-0.8937,-0.8937,-0.8937,-0.8937,-0.8937,-0.8937,-0.8937,-0.8937,-0.8937,-0.8937,-0.8937,-0.8937,-0.8937,-0.8937,-0.8937,-0.8937,-0.8937,-0.8937,-0.8937,-0.8937,-0.8937,-0.8937,-0.8937,-0.8937,-0.8937,-0.9047,-0.9323,-0.9926,-1.0472,-1.1017,-1.1618,-1.2599,-1.3467,-1.4218,-1.5078,-1.5832,-1.6477,-1.6802,-1.7226,-1.7384,-1.7483,-1.7589,-1.7589,-1.7589,-1.7589,-1.7589,-1.7589,-1.7589,-1.7589,-1.7589,-1.7589,0.0,0.0,0.0,0.0,0.0,0.0,0.0,0.0,0.0,-0.0125,-0.0371,-0.0432,-0.0926,-0.1604,-0.1788,-0.2343,-0.3146,-0.3824,-0.4253,-0.4682,-0.5604,-0.6217,-0.646,-0.6893,-0.7444,-0.793,-0.8113,-0.8297,-0.8546,-0.8729,-0.8854,-0.8915,-0.9095,-0.9339,-0.9582,-0.9579,-0.9582,-0.9579,-0.9579,-0.964,-0.9819,-0.9819,-0.9764,-0.9666,-0.9622,-0.95,-0.9326,-0.9245,-0.91,-0.8994,-0.8902,-0.8937,-0.8937,-0.8937,-0.8937,-0.8937,-0.8937,-0.8937,-0.8937,-0.8937,-0.8937,-0.8937,-0.8937,-0.8937,-0.8937,-0.8937,-0.8937,-0.8937,-0.8937,-0.8937,-0.8937,-0.8937,-0.8937,-0.8937,-0.8937,-0.8937,-0.8937,-0.8937,-0.8937,-0.8937,-0.8937,-0.8937,-0.8937,-0.8937,-0.8937,-0.8937,-0.8937,-0.8937,-0.8937,-0.8937,-0.9047,-0.9323,-0.9926,-1.0527,-1.0962,-1.1782,-1.2654,-1.3349,-1.4379,-1.5131,-1.5725,-1.6477,-1.6961,-1.7126,-1.7378,-1.7536,-1.7589,-1.7589,-1.7589,-1.7589,-1.7589,-1.7589,-1.7589,-1.7589,-1.7589,0.0,0.0,0.0,0.0,0.0,0.0,0.0,0.0,0.0,0.0,0.0,-0.0371,-0.0556,-0.0741,-0.1295,-0.1788,-0.222,-0.2837,-0.3331,-0.3701,-0.4619,-0.5047,-0.5172,-0.6033,-0.6526,-0.6648,-0.7138,-0.7508,-0.7569,-0.8113,-0.8604,-0.8854,-0.8918,-0.8915,-0.8973,-0.8976,-0.8976,-0.8976,-0.8976,-0.9278,-0.9761,-0.9819,-0.9815,-0.9802,-0.9676,-0.9598,-0.9544,-0.9357,-0.9204,-0.9183,-0.9008,-0.894,-0.8937,-0.8937,-0.8937,-0.8937,-0.8937,-0.8937,-0.8937,-0.8937,-0.8937,-0.8937,-0.8937,-0.8937,-0.8937,-0.8937,-0.8937,-0.8937,-0.8937,-0.8937,-0.8937,-0.8937,-0.8937,-0.8937,-0.8937,-0.8937,-0.8937,-0.8937,-0.8937,-0.8937,-0.8937,-0.8937,-0.8937,-0.8937,-0.8937,-0.8937,-0.8937,-0.8937,-0.8937,-0.8937,-0.8937,-0.8992,-0.932,-0.9871,-1.0527,-1.0966,-1.1782,-1.2762,-1.3462,-1.4266,-1.5185,-1.5779,-1.6211,-1.6914,-1.7232,-1.7331,-1.7536,-1.7589,-1.7589,-1.7589,-1.7589,-1.7589,-1.7589,-1.7589,-1.7589,0.0,0.0,0.0,0.0,0.0,0.0,0.0,0.0,0.0,0.0,0.0,-0.0124,-0.0309,-0.0494,-0.0802,-0.1111,-0.1419,-0.2097,-0.2466,-0.2714,-0.3638,-0.407,-0.413,-0.4868,-0.5297,-0.554,-0.6033,-0.6401,-0.6834,-0.7324,-0.7691,-0.7997,-0.7997,-0.8119,-0.8299,-0.8482,-0.8604,-0.8604,-0.8793,-0.9034,-0.9278,-0.9396,-0.9579,-0.9754,-0.9764,-0.969,-0.9612,-0.9483,-0.9344,-0.9228,-0.9152,-0.9025,-0.8888,-0.8937,-0.8937,-0.8937,-0.8937,-0.8937,-0.8937,-0.8937,-0.8937,-0.8937,-0.8937,-0.8937,-0.8937,-0.8937,-0.8937,-0.8937,-0.8937,-0.8937,-0.8937,-0.8937,-0.8937,-0.8937,-0.8937,-0.8937,-0.8937,-0.8937,-0.8937,-0.8937,-0.8937,-0.8937,-0.8937,-0.8937,-0.8937,-0.8937,-0.8937,-0.8937,-0.8937,-0.8937,-0.8937,-0.8937,-0.9047,-0.9323,-0.9871,-1.0472,-1.1181,-1.1951,-1.2767,-1.363,-1.4493,-1.5298,-1.5891,-1.6537,-1.6908,-1.7279,-1.7582,-1.7589,-1.7589,-1.7589,-1.7589,-1.7589,-1.7589,-1.7589,-1.7589,0.0,0.0,0.0,0.0,0.0,0.0,0.0,0.0,0.0,0.0,0.0,0.0,-0.0124,-0.0371,-0.0371,-0.0556,-0.0864,-0.1357,-0.1666,-0.1789,-0.259,-0.296,-0.3146,-0.3701,-0.4192,-0.4498,-0.4867,-0.5358,-0.5974,-0.6344,-0.665,-0.6954,-0.7016,-0.7138,-0.738,-0.7686,-0.7867,-0.7869,-0.818,-0.8366,-0.8485,-0.8668,-0.9034,-0.9457,-0.9582,-0.9533,-0.9437,-0.945,-0.9389,-0.9171,-0.9201,-0.9163,-0.9008,-0.8905,-0.8937,-0.8937,-0.8937,-0.8937,-0.8937,-0.8937,-0.8937,-0.8937,-0.8937,-0.8937,-0.8937,-0.8937,-0.8937,-0.8937,-0.8937,-0.8937,-0.8937,-0.8937,-0.8937,-0.8937,-0.8937,-0.8937,-0.8937,-0.8937,-0.8937,-0.8937,-0.8937,-0.8937,-0.8937,-0.8937,-0.8937,-0.8937,-0.8937,-0.8937,-0.8937,-0.8937,-0.8937,-0.8937,-0.8937,-0.9047,-0.9375,-0.9978,-1.0692,-1.1295,-1.206,-1.293,-1.3792,-1.4654,-1.5512,-1.6105,-1.6643,-1.712,-1.7378,-1.7483,-1.7589,-1.7589,-1.7589,-1.7589,-1.7589,-1.7589,-1.7589,0.0,0.0,0.0,0.0,0.0,0.0,0.0,0.0,0.0,0.0,0.0,0.0,0.0,0.0,0.0,-0.0185,-0.0494,-0.0617,-0.0803,-0.1111,-0.148,-0.1788,-0.2096,-0.2775,-0.3208,-0.3516,-0.3821,-0.4312,-0.4986,-0.5297,-0.5604,-0.597,-0.5908,-0.5968,-0.6029,-0.634,-0.6464,-0.6526,-0.6896,-0.7143,-0.7447,-0.7508,-0.7933,-0.8729,-0.8915,-0.897,-0.8948,-0.9074,-0.911,-0.9097,-0.914,-0.9157,-0.913,-0.8956,-0.8881,-0.8881,-0.8881,-0.8937,-0.8937,-0.8937,-0.8937,-0.8937,-0.8937,-0.8937,-0.8937,-0.8937,-0.8937,-0.8937,-0.8937,-0.8937,-0.8937,-0.8937,-0.8937,-0.8937,-0.8937,-0.8937,-0.8937,-0.8937,-0.8937,-0.8937,-0.8937,-0.8937,-0.8937,-0.8937,-0.8937,-0.8937,-0.8937,-0.8937,-0.8937,-0.8937,-0.8937,-0.8937,-0.8937,-0.8995,-0.9323,-0.9706,-1.0091,-1.0747,-1.1509,-1.2327,-1.3197,-1.4067,-1.4874,-1.5678,-1.6258,-1.6743,-1.712,-1.7384,-1.7536,-1.7589,-1.7589,-1.7589,-1.7589,-1.7589,-1.7589,0.0,0.0,0.0,0.0,0.0,0.0,0.0,0.0,0.0,0.0,0.0,0.0,0.0,0.0,0.0,-0.0062,0.0,-0.0371,-0.0556,-0.0741,-0.1049,-0.1234,-0.1419,-0.1851,-0.2096,-0.2281,-0.2775,-0.3329,-0.3946,-0.4313,-0.4496,-0.4619,-0.4619,-0.4619,-0.4742,-0.5172,-0.5418,-0.5479,-0.5972,-0.634,-0.6399,-0.6462,-0.6644,-0.7011,-0.8052,-0.8604,-0.8604,-0.8799,-0.8919,-0.8772,-0.8787,-0.8714,-0.86,-0.8621,-0.8654,-0.8654,-0.8823,-0.8937,-0.8937,-0.8937,-0.8937,-0.8937,-0.8937,-0.8937,-0.8937,-0.8937,-0.8937,-0.8937,-0.8937,-0.8937,-0.8937,-0.8937,-0.8937,-0.8937,-0.8937,-0.8937,-0.8937,-0.8937,-0.8937,-0.8937,-0.8937,-0.8937,-0.8937,-0.8937,-0.8937,-0.8937,-0.8937,-0.8937,-0.8937,-0.8937,-0.8937,-0.8937,-0.8937,-0.8937,-0.9047,-0.9323,-0.9761,-1.0308,-1.0962,-1.1673,-1.2491,-1.331,-1.4116,-1.5089,-1.5779,-1.653,-1.6908,-1.7384,-1.7536,-1.7589,-1.7589,-1.7589,-1.7589,-1.7589,-1.7589,0.0,0.0,0.0,0.0,0.0,0.0,0.0,0.0,0.0,0.0,0.0,0.0,0.0,0.0,0.0,0.0,0.0,-0.0247,-0.0309,-0.0371,-0.0556,-0.0741,-0.0864,-0.1049,-0.1233,-0.1418,-0.1912,-0.2405,-0.2837,-0.3144,-0.3328,-0.3451,-0.3452,-0.3513,-0.3698,-0.419,-0.4435,-0.4558,-0.4986,-0.5232,-0.5232,-0.5293,-0.5293,-0.5477,-0.658,-0.7436,-0.7744,-0.8177,-0.8329,-0.8242,-0.825,-0.8248,-0.8157,-0.8182,-0.8273,-0.8385,-0.8517,-0.866,-0.8768,-0.8768,-0.8823,-0.8881,-0.8937,-0.8937,-0.8937,-0.8937,-0.8937,-0.8937,-0.8937,-0.8937,-0.8937,-0.8937,-0.8937,-0.8937,-0.8937,-0.8937,-0.8937,-0.8937,-0.8937,-0.8937,-0.8937,-0.8937,-0.8937,-0.8937,-0.8937,-0.8937,-0.8937,-0.8937,-0.8937,-0.8937,-0.8937,-0.8937,-0.8937,-0.8937,-0.8937,-0.9158,-0.9379,-0.9871,-1.0527,-1.1185,-1.1837,-1.2659,-1.3472,-1.4493,-1.5357,-1.6158,-1.6802,-1.7279,-1.749,-1.7589,-1.7589,-1.7589,-1.7589,-1.7589,-1.7589,0.0,0.0,0.0,0.0,0.0,0.0,0.0,0.0,0.0,0.0,0.0,0.0,0.0,0.0,0.0,0.0,0.0,0.0,0.0,0.0,0.0,0.0,-0.0494,-0.0556,-0.0741,-0.0987,-0.1357,-0.148,-0.1665,-0.1912,-0.222,-0.2466,-0.2467,-0.259,-0.296,-0.3269,-0.3455,-0.3516,-0.376,-0.388,-0.3881,-0.3943,-0.3944,-0.4004,-0.4679,-0.5479,-0.6342,-0.7018,-0.738,-0.7426,-0.7457,-0.7635,-0.7755,-0.7732,-0.7834,-0.804,-0.8062,-0.8162,-0.8432,-0.8484,-0.8598,-0.8823,-0.8881,-0.8881,-0.8881,-0.8937,-0.8937,-0.8937,-0.8937,-0.8937,-0.8937,-0.8937,-0.8937,-0.8937,-0.8937,-0.8937,-0.8937,-0.8937,-0.8937,-0.8937,-0.8937,-0.8937,-0.8937,-0.8937,-0.8937,-0.8937,-0.8937,-0.8937,-0.8937,-0.8937,-0.8937,-0.8937,-0.8937,-0.8937,-0.8937,-0.8937,-0.9158,-0.9434,-1.0147,-1.0857,-1.1455,-1.2164,-1.2985,-1.3954,-1.5083,-1.5885,-1.653,-1.6955,-1.7272,-1.7378,-1.7483,-1.7589,-1.7589,-1.7589,-1.7589,0.0,0.0,0.0,0.0,0.0,0.0,0.0,0.0,0.0,0.0,0.0,0.0,0.0,0.0,0.0,0.0,0.0,0.0,0.0,0.0,0.0,0.0,0.0,0.0,-0.0371,-0.0617,-0.0741,-0.0926,-0.1172,-0.1234,-0.1358,-0.1481,-0.1482,-0.1543,-0.1667,-0.1974,-0.2157,-0.2157,-0.2404,-0.2589,-0.2651,-0.2836,-0.2959,-0.3021,-0.3576,-0.4132,-0.4439,-0.5665,-0.634,-0.6337,-0.6431,-0.6489,-0.6677,-0.6746,-0.7054,-0.7496,-0.7676,-0.7826,-0.81,-0.8152,-0.8263,-0.8543,-0.8598,-0.8712,-0.8881,-0.8881,-0.8881,-0.8881,-0.8937,-0.8937,-0.8937,-0.8937,-0.8937,-0.8937,-0.8937,-0.8937,-0.8937,-0.8937,-0.8937,-0.8937,-0.8937,-0.8937,-0.8937,-0.8937,-0.8937,-0.8937,-0.8937,-0.8937,-0.8937,-0.8937,-0.8937,-0.8937,-0.8937,-0.8937,-0.8937,-0.8937,-0.8992,-0.9213,-0.9765,-1.0421,-1.1021,-1.1618,-1.2436,-1.3467,-1.4595,-1.5458,-1.6105,-1.6636,-1.6902,-1.7166,-1.7279,-1.7378,-1.7536,-1.7589,-1.7589,0.0,0.0,0.0,0.0,0.0,0.0,0.0,0.0,0.0,0.0,0.0,0.0,0.0,0.0,0.0,0.0,0.0,0.0,0.0,0.0,0.0,0.0,0.0,0.0,-0.0124,-0.0247,-0.0309,-0.0432,-0.0618,-0.0618,-0.0679,-0.0803,-0.0803,-0.0926,-0.0988,-0.1172,-0.1296,-0.1357,-0.1542,-0.1605,-0.1666,-0.1851,-0.1912,-0.2036,-0.2468,-0.2714,-0.2837,-0.3881,-0.4677,-0.5047,-0.5235,-0.5452,-0.5696,-0.5865,-0.623,-0.6754,-0.6956,-0.7099,-0.7446,-0.7601,-0.782,-0.81,-0.8263,-0.8377,-0.8546,-0.8657,-0.8768,-0.8768,-0.8826,-0.8937,-0.8937,-0.8937,-0.8937,-0.8937,-0.8937,-0.8937,-0.8937,-0.8937,-0.8937,-0.8937,-0.8937,-0.8937,-0.8937,-0.8937,-0.8937,-0.8937,-0.8937,-0.8937,-0.8937,-0.8937,-0.8937,-0.8937,-0.8937,-0.8937,-0.8937,-0.8937,-0.8937,-0.9103,-0.9379,-0.9981,-1.0527,-1.1017,-1.1728,-1.2925,-1.4116,-1.4869,-1.5512,-1.6045,-1.6471,-1.669,-1.7014,-1.7226,-1.743,-1.7536,-1.7582,0.0,0.0,0.0,0.0,0.0,0.0,0.0,0.0,0.0,0.0,0.0,0.0,0.0,0.0,0.0,0.0,0.0,0.0,0.0,0.0,0.0,0.0,0.0,0.0,0.0,0.0,0.0,0.0,0.0,0.0,-0.0185,-0.0432,-0.0494,-0.0618,-0.0803,-0.0926,-0.0926,-0.0926,-0.0926,-0.0926,-0.0988,-0.0988,-0.0988,-0.105,-0.1419,-0.1603,-0.1727,-0.2035,-0.2712,-0.3698,-0.4129,-0.4433,-0.4789,-0.4976,-0.5303,-0.5925,-0.5901,-0.6143,-0.6573,-0.6877,-0.721,-0.7438,-0.7712,-0.7989,-0.7989,-0.8211,-0.8432,-0.8484,-0.8657,-0.8826,-0.8826,-0.8826,-0.8881,-0.8881,-0.8937,-0.8937,-0.8937,-0.8937,-0.8937,-0.8937,-0.8937,-0.8937,-0.8937,-0.8937,-0.8937,-0.8937,-0.8937,-0.8937,-0.8937,-0.8937,-0.8937,-0.8937,-0.8937,-0.8937,-0.8937,-0.8937,-0.8937,-0.8992,-0.9158,-0.9544,-1.0091,-1.0582,-1.1236,-1.2436,-1.3418,-1.4169,-1.4815,-1.5345,-1.5885,-1.6318,-1.6643,-1.7014,-1.7279,-1.743,-1.7529,0.0,0.0,0.0,0.0,0.0,0.0,0.0,0.0,0.0,0.0,0.0,0.0,0.0,0.0,0.0,0.0,0.0,0.0,0.0,0.0,0.0,0.0,0.0,0.0,0.0,0.0,0.0,0.0,0.0,0.0,0.0,-0.0124,0.0,0.0,0.0,0.0,-0.0247,-0.0247,0.0,0.0,-0.0309,-0.0556,-0.0618,-0.0679,-0.0926,-0.1111,-0.1111,-0.1235,-0.1727,-0.2713,-0.2959,-0.3269,-0.3756,-0.383,-0.4193,-0.4892,-0.4986,-0.5131,-0.5622,-0.5986,-0.632,-0.6599,-0.6879,-0.7215,-0.7662,-0.7771,-0.7937,-0.81,-0.8211,-0.8322,-0.8543,-0.8598,-0.8712,-0.8881,-0.8881,-0.8881,-0.8881,-0.8937,-0.8937,-0.8937,-0.8937,-0.8937,-0.8937,-0.8937,-0.8937,-0.8937,-0.8937,-0.8937,-0.8937,-0.8937,-0.8937,-0.8937,-0.8937,-0.8937,-0.8937,-0.8937,-0.8937,-0.8937,-0.9047,-0.9158,-0.9761,-1.0312,-1.1076,-1.2055,-1.2659,-1.3364,-1.3948,-1.4482,-1.5078,-1.5725,-1.6158,-1.6477,-1.6967,-1.7285,-1.7378,0.0,0.0,0.0,0.0,0.0,0.0,0.0,0.0,0.0,0.0,0.0,0.0,0.0,0.0,0.0,0.0,0.0,0.0,0.0,0.0,0.0,0.0,0.0,0.0,0.0,0.0,0.0,0.0,0.0,0.0,0.0,0.0,0.0,0.0,0.0,0.0,0.0,0.0,0.0,0.0,0.0,-0.0185,-0.0247,-0.0309,-0.0494,-0.0556,-0.0556,-0.0556,-0.0988,-0.1727,-0.2035,-0.2281,-0.265,-0.2877,-0.3263,-0.3867,-0.3923,-0.4206,-0.4595,-0.5006,-0.5318,-0.5594,-0.5873,-0.6323,-0.6768,-0.699,-0.7157,-0.7379,-0.7657,-0.7934,-0.81,-0.8211,-0.8432,-0.8654,-0.8768,-0.8768,-0.8881,-0.8937,-0.8937,-0.8937,-0.8937,-0.8937,-0.8937,-0.8937,-0.8937,-0.8937,-0.8937,-0.8937,-0.8937,-0.8937,-0.8937,-0.8937,-0.8937,-0.8937,-0.8937,-0.8937,-0.8937,-0.8937,-0.8937,-0.9047,-0.9434,-0.9981,-1.0641,-1.1404,-1.1951,-1.255,-1.3083,-1.3673,-1.4326,-1.4917,-1.5405,-1.5998,-1.6483,-1.702,-1.712,0.0,0.0,0.0,0.0,0.0,0.0,0.0,0.0,0.0,0.0,0.0,0.0,0.0,0.0,0.0,0.0,0.0,0.0,0.0,0.0,0.0,0.0,0.0,0.0,0.0,0.0,0.0,0.0,0.0,0.0,0.0,0.0,0.0,0.0,0.0,0.0,0.0,0.0,0.0,0.0,0.0,0.0,0.0,0.0,0.0,0.0,0.0,0.0,-0.037,-0.0865,-0.1233,-0.1418,-0.1541,-0.2096,-0.2385,-0.265,-0.2903,-0.3149,-0.3506,-0.3954,-0.4311,-0.4423,-0.4869,-0.5371,-0.5652,-0.5929,-0.6209,-0.6543,-0.7102,-0.7326,-0.766,-0.7826,-0.81,-0.8377,-0.8429,-0.8598,-0.8768,-0.8881,-0.8937,-0.8937,-0.8937,-0.8937,-0.8937,-0.8937,-0.8937,-0.8937,-0.8937,-0.8937,-0.8937,-0.8937,-0.8937,-0.8937,-0.8937,-0.8937,-0.8937,-0.8937,-0.8937,-0.8937,-0.8937,-0.8992,-0.9213,-0.9706,-1.0147,-1.0696,-1.124,-1.1732,-1.2164,-1.2812,-1.357,-1.4272,-1.4809,-1.5405,-1.5945,-1.6483,-1.6743,0.0,0.0,0.0,0.0,0.0,0.0,0.0,0.0,0.0,0.0,0.0,0.0,0.0,0.0,0.0,0.0,0.0,0.0,0.0,0.0,0.0,0.0,0.0,0.0,0.0,0.0,0.0,0.0,0.0,0.0,0.0,0.0,0.0,0.0,0.0,0.0,0.0,0.0,0.0,0.0,0.0,0.0,0.0,0.0,0.0,0.0,0.0,0.0,0.0,-0.0247,-0.0555,-0.0864,-0.1049,-0.1234,-0.1471,-0.1692,-0.1784,-0.2047,-0.2475,-0.289,-0.3192,-0.3417,-0.3754,-0.4201,-0.4704,-0.4814,-0.5148,-0.5596,-0.5989,-0.649,-0.7102,-0.7493,-0.7712,-0.7934,-0.8097,-0.8208,-0.8543,-0.8768,-0.8881,-0.8881,-0.8937,-0.8937,-0.8937,-0.8937,-0.8937,-0.8937,-0.8937,-0.8937,-0.8937,-0.8937,-0.8937,-0.8937,-0.8937,-0.8937,-0.8937,-0.8937,-0.8937,-0.8937,-0.8937,-0.8937,-0.9158,-0.9323,-0.9761,-1.0147,-1.0527,-1.0966,-1.1455,-1.2055,-1.2812,-1.3511,-1.4213,-1.4809,-1.5405,-1.5891,-1.6371,0.0,0.0,0.0,0.0,0.0,0.0,0.0,0.0,0.0,0.0,0.0,0.0,0.0,0.0,0.0,0.0,0.0,0.0,0.0,0.0,0.0,0.0,0.0,0.0,0.0,0.0,0.0,0.0,0.0,0.0,0.0,0.0,0.0,0.0,0.0,0.0,0.0,0.0,0.0,0.0,0.0,0.0,0.0,0.0,0.0,0.0,0.0,0.0,0.0,0.0,0.0,0.0,-0.0556,-0.0679,-0.086,-0.0975,-0.1133,-0.1235,-0.1625,-0.1878,-0.213,-0.2297,-0.269,-0.3138,-0.3529,-0.3752,-0.4089,-0.4536,-0.4983,-0.5539,-0.6432,-0.6601,-0.6935,-0.7324,-0.7546,-0.7765,-0.8045,-0.8436,-0.8768,-0.8881,-0.8937,-0.8937,-0.8937,-0.8937,-0.8937,-0.8937,-0.8937,-0.8937,-0.8937,-0.8937,-0.8937,-0.8937,-0.8937,-0.8937,-0.8937,-0.8937,-0.8937,-0.8937,-0.8937,-0.8937,-0.8992,-0.9103,-0.9268,-0.9651,-1.0036,-1.0363,-1.0852,-1.1509,-1.2114,-1.2817,-1.3521,-1.4169,-1.4761,-1.5196,-1.5731,0.0067,0.0,0.0,0.0,0.0,0.0,0.0,0.0,0.0,0.0,0.0,0.0,0.0,0.0,0.0,0.0,0.0,0.0,0.0,0.0,0.0,0.0,0.0,0.0,0.0,0.0,0.0,0.0,0.0,0.0,0.0,0.0,0.0,0.0,0.0,0.0,0.0,0.0,0.0,0.0,0.0,0.0,0.0,0.0,0.0,0.0,0.0,0.0,0.0,0.0,0.0,0.0,0.0,-0.0247,-0.0431,-0.043,-0.0598,-0.0764,-0.0931,-0.1084,-0.1234,-0.1234,-0.1683,-0.213,-0.2464,-0.2745,-0.3082,-0.3474,-0.3921,-0.4648,-0.5485,-0.5652,-0.5931,-0.6379,-0.6765,-0.7099,-0.7435,-0.7934,-0.8322,-0.8768,-0.8768,-0.8768,-0.8881,-0.8937,-0.8937,-0.8937,-0.8881,-0.8937,-0.8937,-0.8937,-0.8937,-0.8937,-0.8937,-0.8937,-0.8937,-0.8937,-0.8937,-0.8937,-0.8937,-0.8937,-0.8937,-0.8992,-0.9103,-0.9213,-0.9599,-0.9926,-1.0308,-1.0852,-1.1455,-1.2114,-1.2767,-1.3467,-1.4008,-1.4498,-1.5035,0.0263,0.0,0.0,0.0,0.0,0.0,0.0,0.0,0.0,0.0,0.0,0.0,0.0,0.0,0.0,0.0,0.0,0.0,0.0,0.0,0.0,0.0,0.0,0.0,0.0,0.0,0.0,0.0,0.0,0.0,0.0,0.0,0.0,0.0,0.0,0.0,0.0,0.0,0.0,0.0,0.0,0.0,0.0,0.0,0.0,0.0,0.0,0.0,0.0,0.0,0.0,0.0,0.0,0.0,0.0,0.0,0.0,-0.0352,-0.0463,-0.0511,-0.073,-0.0897,-0.1121,-0.1234,-0.1569,-0.185,-0.2187,-0.2523,-0.3027,-0.3698,-0.459,-0.4702,-0.4981,-0.5483,-0.5875,-0.6156,-0.6485,-0.7043,-0.7654,-0.8208,-0.8374,-0.8598,-0.8657,-0.8768,-0.8823,-0.8826,-0.8881,-0.8881,-0.8937,-0.8937,-0.8937,-0.8937,-0.8937,-0.8937,-0.8937,-0.8937,-0.8937,-0.8937,-0.8937,-0.8937,-0.8937,-0.8937,-0.8992,-0.9103,-0.9213,-0.9489,-0.9926,-1.0308,-1.0802,-1.1459,-1.206,-1.2713,-1.3202,-1.3743,-1.4229,0.039,0.0258,0.0064,0.0,0.0,0.0,0.0,0.0,0.0,0.0,0.0,0.0,0.0,0.0,0.0,0.0,0.0,0.0,0.0,0.0,0.0,0.0,0.0,0.0,0.0,0.0,0.0,0.0,0.0,0.0,0.0,0.0,0.0,0.0,0.0,0.0,0.0,0.0,0.0,0.0,0.0,0.0,0.0,0.0,0.0,0.0,0.0,0.0,0.0,0.0,0.0,0.0,0.0,0.0,0.0,0.0,0.0,0.0,0.0,-0.017,-0.028,-0.0392,-0.0561,-0.0673,-0.0897,-0.1177,-0.1458,-0.1795,-0.2132,-0.2746,-0.3471,-0.3696,-0.3976,-0.4423,-0.4815,-0.515,-0.5485,-0.6042,-0.671,-0.7374,-0.782,-0.81,-0.8377,-0.8488,-0.8654,-0.8768,-0.8823,-0.8881,-0.8881,-0.8937,-0.8937,-0.8937,-0.8937,-0.8937,-0.8937,-0.8937,-0.8937,-0.8937,-0.8937,-0.8937,-0.8937,-0.8937,-0.8937,-0.8937,-0.9103,-0.9217,-0.9434,-0.9816,-1.0312,-1.0747,-1.124,-1.1787,-1.2441,-1.2985,-1.3418,0.0706,0.0576,0.0253,0.0126,0.0063,0.0,0.0,0.0,0.0,0.0,0.0,0.0,0.0,0.0,0.0,0.0,0.0,0.0,0.0,0.0,0.0,0.0,0.0,0.0,0.0,0.0,0.0,0.0,0.0,0.0,0.0,0.0,0.0,0.0,0.0,0.0,0.0,0.0,0.0,0.0,0.0,0.0,0.0,0.0,0.0,0.0,0.0,0.0,0.0,0.0,0.0,0.0,0.0,0.0,0.0,0.0,0.0,0.0,0.0,0.0,0.0,0.0,0.0,-0.028,-0.0392,-0.0673,-0.0953,-0.1177,-0.1458,-0.1851,-0.2409,-0.269,-0.297,-0.3363,-0.3866,-0.4255,-0.4479,-0.4925,-0.5539,-0.6262,-0.7043,-0.7546,-0.7768,-0.8211,-0.8377,-0.8488,-0.8546,-0.8709,-0.8712,-0.8881,-0.8937,-0.8937,-0.8937,-0.8937,-0.8937,-0.8937,-0.8937,-0.8937,-0.8937,-0.8937,-0.8937,-0.8937,-0.8937,-0.8937,-0.8937,-0.9047,-0.9213,-0.9379,-0.9816,-1.0202,-1.0472,-1.0911,-1.1564,-1.211,-1.2545,0.1507,0.0931,0.062,0.0433,0.0372,0.0124,0.0,0.0,0.0,0.0,0.0,0.0,0.0,0.0,0.0,0.0,0.0,0.0,0.0,0.0,0.0,0.0,0.0,0.0,0.0,0.0,0.0,0.0,0.0,0.0,0.0,0.0,0.0,0.0,0.0,0.0,0.0,0.0,0.0,0.0,0.0,0.0,0.0,0.0,0.0,0.0,0.0,0.0,0.0,0.0,0.0,0.0,0.0,0.0,0.0,0.0,0.0,0.0,0.0,0.0,0.0,0.0,0.0,0.0,-0.0168,-0.0336,-0.0617,-0.0897,-0.1009,-0.1177,-0.1514,-0.1794,-0.2075,-0.2411,-0.2858,-0.3193,-0.3417,-0.392,-0.4533,-0.4981,-0.5761,-0.6599,-0.7157,-0.7657,-0.8042,-0.8156,-0.8322,-0.8429,-0.8654,-0.8823,-0.8937,-0.8937,-0.8937,-0.8937,-0.8937,-0.8937,-0.8937,-0.8937,-0.8937,-0.8937,-0.8937,-0.8937,-0.8937,-0.8937,-0.8937,-0.8937,-0.9047,-0.9213,-0.9375,-0.9651,-1.0036,-1.0366,-1.0747,-1.1236,-1.1728,0.2667,0.1543,0.1234,0.0802,0.0494,0.0371,0.0185,0.0,0.0,0.0,0.0,0.0,0.0,0.0,0.0,0.0,0.0,0.0,0.0,0.0,0.0,0.0,0.0,0.0,0.0,0.0,0.0,0.0,0.0,0.0,0.0,0.0,0.0,0.0,0.0,0.0,0.0,0.0,0.0,0.0,0.0,0.0,0.0,0.0,0.0,0.0,0.0,0.0,0.0,0.0,0.0,0.0,0.0,0.0,0.0,0.0,0.0,0.0,0.0,0.0,0.0,0.0,0.0,0.0,0.0,0.0,0.0,-0.0336,-0.0561,-0.0673,-0.0841,-0.1121,-0.129,-0.157,-0.1962,-0.2186,-0.2521,-0.3024,-0.3583,-0.3976,-0.448,-0.5316,-0.6154,-0.6821,-0.7263,-0.7543,-0.7875,-0.8266,-0.8488,-0.8768,-0.8881,-0.8937,-0.8937,-0.8937,-0.8937,-0.8937,-0.8937,-0.8937,-0.8937,-0.8937,-0.8937,-0.8937,-0.8937,-0.8937,-0.8937,-0.8937,-0.8937,-0.8992,-0.9158,-0.9379,-0.9599,-0.9926,-1.0198,-1.0527,-1.0911,0.3944,0.2649,0.1911,0.1295,0.0864,0.0679,0.0432,0.0124,0.0,0.0,0.0,0.0,0.0,0.0,0.0,0.0,0.0,0.0,0.0,0.0,0.0,0.0,0.0,0.0,0.0,0.0,0.0,0.0,0.0,0.0,0.0,0.0,0.0,0.0,0.0,0.0,0.0,0.0,0.0,0.0,0.0,0.0,0.0,0.0,0.0,0.0,0.0,0.0,0.0,0.0,0.0,0.0,0.0,0.0,0.0,0.0,0.0,0.0,0.0,0.0,0.0,0.0,0.0,0.0,0.0,0.0,0.0,0.0,-0.0168,-0.028,-0.0392,-0.0617,-0.0785,-0.0953,-0.1121,-0.1346,-0.157,-0.2129,-0.2576,-0.2969,-0.3417,-0.3864,-0.4756,-0.5759,-0.6374,-0.6821,-0.7321,-0.7934,-0.8322,-0.8657,-0.8823,-0.8826,-0.8881,-0.8881,-0.8937,-0.8937,-0.8937,-0.8937,-0.8937,-0.8937,-0.8937,-0.8937,-0.8937,-0.8937,-0.8937,-0.8937,-0.8937,-0.8937,-0.8937,-0.9158,-0.9323,-0.9434,-0.9706,-0.9981,-1.0202,0.536,0.4556,0.2773,0.1973,0.185,0.1235,0.0803,0.0494,0.0432,0.0247,0.0,0.0,0.0,0.0,0.0,0.0,0.0,0.0,0.0,0.0,0.0,0.0,0.0,0.0,0.0,0.0,0.0,0.0,0.0,0.0,0.0,0.0,0.0,0.0,0.0,0.0,0.0,0.0,0.0,0.0,0.0,0.0,0.0,0.0,0.0,0.0,0.0,0.0,0.0,0.0,0.0,0.0,0.0,0.0,0.0,0.0,0.0,0.0,0.0,0.0,0.0,0.0,0.0,0.0,0.0,0.0,0.0,0.0,0.0,0.0,0.0,-0.028,-0.0448,-0.0504,-0.0673,-0.0841,-0.1065,-0.1234,-0.1625,-0.1962,-0.2353,-0.2857,-0.336,-0.4364,-0.5427,-0.5929,-0.7043,-0.7657,-0.81,-0.8432,-0.8654,-0.8768,-0.8881,-0.8881,-0.8881,-0.8937,-0.8937,-0.8937,-0.8937,-0.8937,-0.8937,-0.8937,-0.8937,-0.8937,-0.8937,-0.8937,-0.8937,-0.8937,-0.8937,-0.8937,-0.8992,-0.9213,-0.9323,-0.9544,-0.9706,0.628,0.5421,0.4249,0.3328,0.259,0.1912,0.1419,0.1049,0.0679,0.0309,0.0,0.0,0.0,0.0,0.0,0.0,0.0,0.0,0.0,0.0,0.0,0.0,0.0,0.0,0.0,0.0,0.0,0.0,0.0,0.0,0.0,0.0,0.0,0.0,0.0,0.0,0.0,0.0,0.0,0.0,0.0,0.0,0.0,0.0,0.0,0.0,0.0,0.0,0.0,0.0,0.0,0.0,0.0,0.0,0.0,0.0,0.0,0.0,0.0,0.0,0.0,0.0,0.0,0.0,0.0,0.0,0.0,0.0,0.0,0.0,0.0,0.0,-0.0168,-0.0168,-0.028,-0.0448,-0.0617,-0.0729,-0.0953,-0.1345,-0.1626,-0.1962,-0.2465,-0.2968,-0.4032,-0.5094,-0.6265,-0.7324,-0.7765,-0.8152,-0.8377,-0.8654,-0.8768,-0.8881,-0.8881,-0.8881,-0.8881,-0.8937,-0.8937,-0.8937,-0.8937,-0.8937,-0.8937,-0.8937,-0.8937,-0.8937,-0.8937,-0.8937,-0.8937,-0.8937,-0.8937,-0.8992,-0.9103,-0.9213,-0.9323,0.7141,0.6405,0.5663,0.4559,0.3268,0.2652,0.2157,0.1603,0.1172,0.0617,0.0185,0.0185,0.0062,0.0,0.0,0.0,0.0,0.0,0.0,0.0,0.0,0.0247,0.0185,0.0,0.0,0.0,0.0,0.0,0.0,0.0,0.0,0.0,0.0,0.0,0.0,0.0,0.0,0.0,0.0,0.0,0.0,0.0,0.0,0.0,0.0,0.0,0.0,0.0,0.0,0.0,0.0,0.0,0.0,0.0,0.0,0.0,0.0,0.0,0.0,0.0,0.0,0.0,0.0,0.0,0.0,0.0,0.0,0.0,0.0,0.0,0.0,0.0,0.0,0.0,0.0,-0.0224,-0.0224,-0.0392,-0.0561,-0.0785,-0.1009,-0.1234,-0.1738,-0.2297,-0.353,-0.4536,-0.5594,-0.6654,-0.7376,-0.7765,-0.8097,-0.8377,-0.8654,-0.8768,-0.8881,-0.8881,-0.8881,-0.8937,-0.8937,-0.8937,-0.8937,-0.8937,-0.8937,-0.8937,-0.8937,-0.8937,-0.8937,-0.8937,-0.8937,-0.8937,-0.8937,-0.8937,-0.8937,-0.9047,-0.9047,0.7872,0.775,0.6771,0.5418,0.4067,0.3577,0.296,0.2157,0.1912,0.1357,0.0617,0.0494,0.0309,0.0,0.0,0.0,0.0432,0.0494,0.0618,0.0803,0.0741,0.0679,0.0618,0.0494,0.0371,0.0062,0.0,0.0,0.0,0.0,0.0,0.0,0.0,0.0,0.0,0.0,0.0,0.0,0.0,0.0,0.0,0.0,0.0,0.0,0.0,0.0,0.0,0.0,0.0,0.0,0.0,0.0,0.0,0.0,0.0,0.0,0.0,0.0,0.0,0.0,0.0,0.0,0.0,0.0,0.0,0.0,0.0,0.0,0.0,0.0,0.0,0.0,0.0,0.0,0.0,0.0,0.0,-0.0112,-0.028,-0.0392,-0.0448,-0.0617,-0.1121,-0.1794,-0.3026,-0.4089,-0.4981,-0.5873,-0.671,-0.7376,-0.7765,-0.7986,-0.8318,-0.8598,-0.8712,-0.8826,-0.8881,-0.8881,-0.8937,-0.8937,-0.8937,-0.8937,-0.8937,-0.8937,-0.8937,-0.8937,-0.8937,-0.8937,-0.8937,-0.8937,-0.8937,-0.8937,-0.8937,-0.8937,-0.8937,0.8601,0.8175,0.7625,0.683,0.5847,0.4805,0.4006,0.3204,0.2404,0.1665,0.1233,0.0926,0.0803,0.0679,0.0678,0.074,0.0864,0.0865,0.0988,0.105,0.1112,0.0926,0.0865,0.0864,0.0803,0.0679,0.0679,0.0679,0.0,0.0679,0.0679,0.0,0.0617,0.0,0.0,0.0,0.0,0.0,0.0,0.0,0.0,0.0,0.0,0.0,0.0,0.0,0.0,0.0,0.0,0.0,0.0,0.0,0.0,0.0,0.0,0.0,0.0,0.0,0.0,0.0,0.0,0.0,0.0,0.0,0.0,0.0,0.0,0.0,0.0,0.0,0.0,0.0,0.0,0.0,0.0,0.0,0.0,0.0,-0.0112,-0.0112,-0.0168,-0.0336,-0.0673,-0.1234,-0.2298,-0.3251,-0.4089,-0.4983,-0.5875,-0.6765,-0.7376,-0.7598,-0.782,-0.8263,-0.8488,-0.8546,-0.8712,-0.8823,-0.8881,-0.8937,-0.8937,-0.8937,-0.8937,-0.8937,-0.8937,-0.8937,-0.8937,-0.8937,-0.8937,-0.8937,-0.8937,-0.8937,-0.8937,-0.8937,-0.8937,0.902,0.8648,0.8245,0.7687,0.6974,0.5762,0.4734,0.3857,0.2875,0.2257,0.1821,0.1517,0.1396,0.1336,0.1276,0.1405,0.1468,0.1469,0.1664,0.1664,0.1728,0.1728,0.1605,0.1481,0.1481,0.142,0.1358,0.1358,0.1358,0.1358,0.1358,0.1358,0.1358,0.1173,0.0,0.0,0.0,0.0,0.0,0.0,0.0,0.0,0.0,0.0,0.0,0.0,0.0,0.0185,0.0,0.0,0.0,0.0,0.0,0.0,0.0,0.0,0.0,0.0,0.0,0.0,0.0,0.0,0.0,0.0,0.0,0.0,0.0,0.0,0.0,0.0,0.0,0.0,0.0,0.0,0.0,0.0,0.0,0.0,0.0,0.0,0.0,0.0,-0.0336,-0.0841,-0.1514,-0.2354,-0.3139,-0.4033,-0.4927,-0.5929,-0.6707,-0.693,-0.7265,-0.7712,-0.8045,-0.8266,-0.8436,-0.8712,-0.8768,-0.8771,-0.8937,-0.8937,-0.8937,-0.8881,-0.8881,-0.8881,-0.8881,-0.8937,-0.8937,-0.8937,-0.8937,-0.8937,-0.8937,-0.8937,-0.8937,0.9116,0.9038,0.8626,0.8058,0.7445,0.6426,0.524,0.3977,0.3614,0.3047,0.2416,0.2422,0.2251,0.195,0.1889,0.2143,0.2404,0.2408,0.2613,0.2819,0.2822,0.2705,0.2589,0.2529,0.2406,0.222,0.2158,0.2281,0.2097,0.222,0.222,0.2158,0.222,0.2097,0.1912,0.1666,0.1296,0.1111,0.105,0.1049,0.1049,0.105,0.105,0.0988,0.0926,0.0803,0.0679,0.0555,0.037,0.0,0.0,0.0,0.0,0.0,0.0,0.0,0.0,0.0,0.0,0.0,0.0,0.0,0.0,0.0,0.0,0.0,0.0,0.0,0.0,0.0,0.0,0.0,0.0,0.0,0.0,0.0,0.0,0.0,0.0,0.0,0.0,0.0,0.0,-0.0617,-0.1009,-0.1458,-0.2242,-0.2914,-0.3808,-0.4925,-0.5704,-0.6096,-0.6541,-0.7102,-0.7435,-0.7654,-0.8048,-0.8269,-0.8432,-0.8491,-0.8657,-0.8826,-0.8823,-0.8768,-0.8881,-0.8881,-0.8881,-0.8937,-0.8937,-0.8937,-0.8937,-0.8937,-0.8937,-0.8937,-0.8937,0.9325,0.9263,0.8936,0.8629,0.8347,0.7415,0.6296,0.5094,0.456,0.4012,0.3647,0.3413,0.3226,0.318,0.3122,0.3247,0.3315,0.3327,0.3414,0.356,0.3705,0.3544,0.3499,0.3511,0.3449,0.3389,0.3329,0.3328,0.339,0.3389,0.3389,0.3389,0.3388,0.3389,0.3267,0.3144,0.2528,0.2035,0.1912,0.1789,0.1789,0.1789,0.1789,0.1789,0.1604,0.1419,0.1295,0.1049,0.0864,0.0741,0.0679,0.0618,0.037,0.0369,0.0,0.0,0.0,0.0,0.0,0.0,0.0,0.0,0.0,0.0,0.0,0.0,0.0,0.0,0.0,0.0,0.0,0.0,0.0,0.0,0.0,0.0,0.0,0.0,0.0,0.0,0.0,0.0,0.0,-0.0336,-0.0673,-0.0897,-0.129,-0.1961,-0.2745,-0.3863,-0.4644,-0.5091,-0.5706,-0.6265,-0.671,-0.6985,-0.7435,-0.7771,-0.7934,-0.81,-0.8269,-0.838,-0.8543,-0.8654,-0.8712,-0.8826,-0.8881,-0.8937,-0.8937,-0.8937,-0.8937,-0.8937,-0.8937,-0.8937,-0.8937,0.9289,0.9283,0.9,0.8863,0.8632,0.8007,0.7146,0.6348,0.5518,0.4995,0.4674,0.4441,0.4386,0.438,0.438,0.4398,0.4428,0.4433,0.4526,0.4583,0.4559,0.4596,0.4632,0.4666,0.4679,0.4681,0.4681,0.4679,0.4681,0.4681,0.4679,0.4679,0.4679,0.4679,0.4679,0.4618,0.4309,0.3634,0.3142,0.2835,0.2773,0.2773,0.2774,0.2712,0.2404,0.2281,0.2096,0.179,0.1481,0.1234,0.1173,0.105,0.0803,0.0679,0.0551,0.0,0.0,0.0,0.0,0.0,0.0,0.0,0.0,0.0,0.0,0.0,0.0,0.0,0.0,0.0,0.0,0.0,0.0,0.0,0.0,0.0,0.0,0.0,0.0,0.0,0.0,0.0,0.0,0.0,-0.0336,-0.0561,-0.0785,-0.1121,-0.1905,-0.2857,-0.3527,-0.3974,-0.4702,-0.5373,-0.5761,-0.6207,-0.6599,-0.7046,-0.7435,-0.7598,-0.7768,-0.7989,-0.8211,-0.8377,-0.8543,-0.8602,-0.8712,-0.8881,-0.8937,-0.8881,-0.8826,-0.8881,-0.8881,-0.8937,-0.8937,0.9193,0.9187,0.8994,0.8791,0.8491,0.8174,0.7841,0.7563,0.6603,0.591,0.5562,0.5489,0.5394,0.5358,0.536,0.5447,0.5482,0.55,0.5605,0.5693,0.5831,0.5823,0.5869,0.5983,0.602,0.6029,0.6029,0.6029,0.609,0.609,0.609,0.6031,0.6031,0.6029,0.6029,0.6092,0.5906,0.5661,0.4925,0.4433,0.4127,0.4066,0.4066,0.4004,0.376,0.3453,0.3145,0.2775,0.2343,0.1911,0.1665,0.1604,0.1358,0.1049,0.0856,0.0729,0.0602,0.0356,0.0175,0.0,0.0,0.0,0.0,0.0,0.0,0.0,0.0,0.0,0.0,0.0,0.0,0.0,0.0,0.0,0.0,0.0,0.0,0.0,0.0,0.0,0.0,0.0,0.0,0.0,0.0,-0.028,-0.0392,-0.0617,-0.1065,-0.1961,-0.2465,-0.2968,-0.3639,-0.4311,-0.4646,-0.5093,-0.5706,-0.6154,-0.6654,-0.6932,-0.7046,-0.7435,-0.7878,-0.8045,-0.8159,-0.8322,-0.8436,-0.8546,-0.866,-0.866,-0.866,-0.8826,-0.8881,-0.8826,-0.8937,0.8991,0.8988,0.8898,0.8826,0.8768,0.8488,0.8377,0.8269,0.7741,0.7075,0.6437,0.6214,0.6102,0.6158,0.6158,0.624,0.6415,0.6444,0.6601,0.6752,0.692,0.6956,0.7093,0.718,0.7301,0.7439,0.7441,0.7319,0.7317,0.7378,0.738,0.738,0.738,0.7317,0.7319,0.7319,0.7319,0.7258,0.6888,0.6151,0.5602,0.5479,0.5418,0.5233,0.4928,0.4558,0.425,0.3883,0.3453,0.3085,0.3022,0.2714,0.2221,0.1727,0.1416,0.1226,0.1093,0.0781,0.0536,0.0412,0.029,0.0115,0.0,0.0,0.0,0.0,0.0,0.0,0.0,0.0,0.0,0.0,0.0,0.0,0.0,0.0,0.0,0.0,0.0,0.0,0.0,0.0,0.0,0.0,0.0,-0.0056,-0.0056,-0.0224,-0.0392,-0.1009,-0.1513,-0.2017,-0.2632,-0.3192,-0.3585,-0.4032,-0.4646,-0.515,-0.5652,-0.5931,-0.6267,-0.6654,-0.7043,-0.7493,-0.7773,-0.7826,-0.7934,-0.81,-0.8214,-0.8269,-0.8436,-0.8546,-0.8657,-0.8657,-0.8771,0.8937,0.8937,0.8937,0.8937,0.8881,0.8712,0.8654,0.8602,0.8322,0.7934,0.749,0.7215,0.7049,0.7051,0.7051,0.7049,0.7268,0.7271,0.7365,0.7618,0.7735,0.7849,0.7971,0.8162,0.8184,0.8279,0.8358,0.8302,0.836,0.8302,0.8302,0.8363,0.836,0.836,0.836,0.836,0.836,0.836,0.836,0.7872,0.7074,0.683,0.6585,0.634,0.6033,0.5663,0.5418,0.5049,0.4619,0.413,0.3822,0.3515,0.3083,0.2714,0.2405,0.2092,0.1775,0.1336,0.1026,0.0837,0.0709,0.0526,0.0,0.0,0.0,0.0,0.0,0.0,0.0,0.0,0.0,0.0,0.0,0.0,0.0,0.0,0.0,0.0,0.0,0.0,0.0,0.0,0.0,0.0,0.0,0.0,0.0,0.0,0.0,0.0,-0.0673,-0.1065,-0.1737,-0.2185,-0.2578,-0.3081,-0.3639,-0.4143,-0.4592,-0.515,-0.5596,-0.5875,-0.6265,-0.6601,-0.6937,-0.716,-0.7268,-0.749,-0.7771,-0.7881,-0.81,-0.8263,-0.8322,-0.8322,-0.8436,0.8937,0.8937,0.8937,0.8937,0.8937,0.8881,0.8881,0.8881,0.8654,0.854,0.8432,0.8159,0.8103,0.7992,0.7992,0.8045,0.8045,0.7934,0.7998,0.8149,0.8317,0.8465,0.8598,0.8713,0.8846,0.8939,0.9031,0.9034,0.9034,0.8976,0.8973,0.8976,0.9037,0.9037,0.9037,0.9034,0.9034,0.9034,0.8973,0.9034,0.8607,0.8119,0.7752,0.7385,0.7016,0.6707,0.6585,0.6217,0.5784,0.5232,0.4682,0.4313,0.4067,0.3761,0.3454,0.3142,0.2587,0.214,0.1762,0.1515,0.1318,0.1124,0.1107,0.104,0.1036,0.0855,0.0622,0.0,0.0,0.0,0.0,0.0,0.0,0.0,0.0,0.0,0.0,0.0,0.0,0.0,0.0,0.0,0.0,0.0,0.0,0.0,0.0,0.0,0.0,0.0,-0.0336,-0.0561,-0.0897,-0.1289,-0.1683,-0.213,-0.2688,-0.3081,-0.364,-0.4367,-0.4925,-0.4983,-0.5206,-0.5596,-0.5875,-0.6098,-0.6546,-0.6824,-0.7102,-0.7268,-0.749,-0.7598,-0.7709,-0.7712,-0.7823,0.8937,0.8937,0.8937,0.8937,0.8937,0.8937,0.8937,0.8881,0.8826,0.8823,0.8768,0.8716,0.8494,0.7992,0.7992,0.81,0.8377,0.8377,0.8546,0.8739,0.8785,0.8993,0.9162,0.9146,0.9447,0.9529,0.9518,0.9579,0.946,0.9521,0.9579,0.9579,0.9579,0.9579,0.9579,0.9579,0.9518,0.9518,0.9518,0.9518,0.94,0.9034,0.8732,0.8424,0.8238,0.8111,0.7867,0.738,0.6952,0.646,0.5847,0.5418,0.5112,0.4867,0.4498,0.4192,0.3575,0.3139,0.2755,0.2386,0.2183,0.1984,0.19,0.1773,0.1699,0.1502,0.1203,0.0854,0.0,0.0,0.0,0.0,0.0,0.0,0.0,0.0,0.0,0.0,0.0,0.0,0.0,0.0,0.0,0.0,0.0,0.0,0.0,0.0,0.0,0.0,0.0,0.0,0.0,-0.0561,-0.1009,-0.129,-0.1793,-0.2185,-0.2577,-0.3305,-0.3752,-0.3867,-0.4147,-0.459,-0.4814,-0.5037,-0.5483,-0.5933,-0.61,-0.6265,-0.6657,-0.6879,-0.6988,-0.7043,-0.7099]}]]